Wetterdaten: Freitag, 17.02.2017
Datum Zeit Temp. A. Feuchte A. Luftdruck Regen Wind Richtung Richtung Sonnenschein ET UV Solar Taupunkt Windchill Windben Empfang
17.02.2017 00:00 -0,4 C 88 % 1027,9 hPa 0,0 l/m 0,1 km/h (0 Bft) S 180 0 min 0,000 mm 0,0 UV-I 0 W/m -2,1 C -0,4 C 1,6 km/h (1 Bft) 100,00 %
17.02.2017 00:02 -0,7 C 88 % 1027,9 hPa 0,0 l/m 0,0 km/h (0 Bft) S 180 0 min 0,000 mm 0,0 UV-I 0 W/m -2,4 C -0,7 C 0,0 km/h (0 Bft) 94,87 %
17.02.2017 00:04 -0,8 C 89 % 1027,9 hPa 0,0 l/m 0,8 km/h (0 Bft) S 180 0 min 0,000 mm 0,0 UV-I 0 W/m -2,4 C -0,8 C 3,2 km/h (1 Bft) 100,00 %
17.02.2017 00:06 -0,9 C 90 % 1027,8 hPa 0,0 l/m 2,0 km/h (1 Bft) S 180 0 min 0,000 mm 0,0 UV-I 0 W/m -2,3 C -0,9 C 3,2 km/h (1 Bft) 92,00 %
17.02.2017 00:08 -1,0 C 91 % 1027,8 hPa 0,0 l/m 1,8 km/h (1 Bft) S 180 0 min 0,000 mm 0,0 UV-I 0 W/m -2,3 C -1,0 C 4,8 km/h (1 Bft) 98,00 %
17.02.2017 00:10 -1,1 C 91 % 1027,7 hPa 0,0 l/m 4,3 km/h (1 Bft) S 180 0 min 0,000 mm 0,0 UV-I 0 W/m -2,4 C -1,1 C 4,8 km/h (1 Bft) 97,56 %
17.02.2017 00:12 -1,1 C 91 % 1027,7 hPa 0,0 l/m 4,6 km/h (1 Bft) S 179 0 min 0,000 mm 0,0 UV-I 0 W/m -2,4 C -1,1 C 4,8 km/h (1 Bft) 100,00 %
17.02.2017 00:14 -1,2 C 91 % 1027,7 hPa 0,0 l/m 4,4 km/h (1 Bft) S 179 0 min 0,000 mm 0,0 UV-I 0 W/m -2,5 C -1,2 C 4,8 km/h (1 Bft) 93,62 %
17.02.2017 00:16 -1,2 C 92 % 1027,6 hPa 0,0 l/m 3,0 km/h (1 Bft) S 179 0 min 0,000 mm 0,0 UV-I 0 W/m -2,3 C -1,2 C 4,8 km/h (1 Bft) 100,00 %
17.02.2017 00:18 -1,1 C 92 % 1027,6 hPa 0,0 l/m 1,9 km/h (1 Bft) S 179 0 min 0,000 mm 0,0 UV-I 0 W/m -2,2 C -1,1 C 3,2 km/h (1 Bft) 100,00 %
17.02.2017 00:20 -1,0 C 92 % 1027,6 hPa 0,0 l/m 0,1 km/h (0 Bft) S 179 0 min 0,000 mm 0,0 UV-I 0 W/m -2,1 C -1,0 C 1,6 km/h (1 Bft) 100,00 %
17.02.2017 00:22 -0,9 C 92 % 1027,5 hPa 0,0 l/m 0,0 km/h (0 Bft) S 179 0 min 0,000 mm 0,0 UV-I 0 W/m -2,0 C -0,9 C 0,0 km/h (0 Bft) 100,00 %
17.02.2017 00:24 -0,8 C 92 % 1027,5 hPa 0,0 l/m 1,0 km/h (0 Bft) S 179 0 min 0,000 mm 0,0 UV-I 0 W/m -1,9 C -0,8 C 3,2 km/h (1 Bft) 97,37 %
17.02.2017 00:26 -0,8 C 92 % 1027,5 hPa 0,0 l/m 1,5 km/h (1 Bft) S 179 0 min 0,000 mm 0,0 UV-I 0 W/m -1,9 C -0,8 C 3,2 km/h (1 Bft) 100,00 %
17.02.2017 00:28 -0,9 C 92 % 1027,5 hPa 0,0 l/m 1,2 km/h (1 Bft) S 179 0 min 0,000 mm 0,0 UV-I 0 W/m -2,0 C -0,9 C 3,2 km/h (1 Bft) 100,00 %
17.02.2017 00:30 -0,9 C 92 % 1027,4 hPa 0,0 l/m 2,3 km/h (1 Bft) S 179 0 min 0,000 mm 0,0 UV-I 0 W/m -2,0 C -0,9 C 3,2 km/h (1 Bft) 96,36 %
17.02.2017 00:32 -0,9 C 92 % 1027,4 hPa 0,0 l/m 4,3 km/h (1 Bft) S 179 0 min 0,000 mm 0,0 UV-I 0 W/m -2,0 C -0,9 C 6,4 km/h (2 Bft) 93,75 %
17.02.2017 00:34 -0,8 C 92 % 1027,3 hPa 0,0 l/m 3,5 km/h (1 Bft) S 179 0 min 0,000 mm 0,0 UV-I 0 W/m -1,9 C -0,8 C 6,4 km/h (2 Bft) 97,44 %
17.02.2017 00:36 -0,7 C 92 % 1027,3 hPa 0,0 l/m 0,9 km/h (0 Bft) S 179 0 min 0,000 mm 0,0 UV-I 0 W/m -1,8 C -0,7 C 3,2 km/h (1 Bft) 96,23 %
17.02.2017 00:38 -0,7 C 92 % 1027,3 hPa 0,0 l/m 0,8 km/h (0 Bft) S 179 0 min 0,000 mm 0,0 UV-I 0 W/m -1,8 C -0,7 C 3,2 km/h (1 Bft) 98,00 %
17.02.2017 00:40 -0,7 C 92 % 1027,3 hPa 0,0 l/m 2,7 km/h (1 Bft) S 179 0 min 0,000 mm 0,0 UV-I 0 W/m -1,8 C -0,7 C 4,8 km/h (1 Bft) 95,74 %
17.02.2017 00:42 -0,8 C 91 % 1027,4 hPa 0,0 l/m 4,4 km/h (1 Bft) S 180 0 min 0,000 mm 0,0 UV-I 0 W/m -2,1 C -0,8 C 6,4 km/h (2 Bft) 93,62 %
17.02.2017 00:44 -0,9 C 91 % 1027,4 hPa 0,0 l/m 4,5 km/h (1 Bft) S 181 0 min 0,000 mm 0,0 UV-I 0 W/m -2,2 C -0,9 C 6,4 km/h (2 Bft) 100,00 %
17.02.2017 00:46 -1,1 C 91 % 1027,3 hPa 0,0 l/m 3,5 km/h (1 Bft) S 181 0 min 0,000 mm 0,0 UV-I 0 W/m -2,4 C -1,1 C 4,8 km/h (1 Bft) 94,00 %
17.02.2017 00:48 -1,1 C 92 % 1027,3 hPa 0,0 l/m 4,2 km/h (1 Bft) S 181 0 min 0,000 mm 0,0 UV-I 0 W/m -2,2 C -1,1 C 4,8 km/h (1 Bft) 97,87 %
17.02.2017 00:50 -1,2 C 92 % 1027,3 hPa 0,0 l/m 3,7 km/h (1 Bft) S 181 0 min 0,000 mm 0,0 UV-I 0 W/m -2,3 C -1,2 C 4,8 km/h (1 Bft) 93,62 %
17.02.2017 00:52 -1,3 C 92 % 1027,3 hPa 0,0 l/m 3,2 km/h (1 Bft) S 181 0 min 0,000 mm 0,0 UV-I 0 W/m -2,4 C -1,3 C 4,8 km/h (1 Bft) 95,74 %
17.02.2017 00:54 -1,3 C 92 % 1027,3 hPa 0,0 l/m 3,8 km/h (1 Bft) S 181 0 min 0,000 mm 0,0 UV-I 0 W/m -2,4 C -1,3 C 4,8 km/h (1 Bft) 96,00 %
17.02.2017 00:56 -1,4 C 93 % 1027,3 hPa 0,0 l/m 3,6 km/h (1 Bft) S 181 0 min 0,000 mm 0,0 UV-I 0 W/m -2,4 C -1,4 C 4,8 km/h (1 Bft) 97,37 %
17.02.2017 00:58 -1,4 C 93 % 1027,2 hPa 0,0 l/m 2,7 km/h (1 Bft) S 181 0 min 0,000 mm 0,0 UV-I 0 W/m -2,4 C -1,4 C 4,8 km/h (1 Bft) 93,22 %
17.02.2017 01:00 -1,4 C 93 % 1027,2 hPa 0,0 l/m 2,0 km/h (1 Bft) S 181 0 min 0,000 mm 0,0 UV-I 0 W/m -2,4 C -1,4 C 3,2 km/h (1 Bft) 94,74 %
17.02.2017 01:02 -1,3 C 93 % 1027,2 hPa 0,0 l/m 1,5 km/h (1 Bft) S 181 0 min 0,000 mm 0,0 UV-I 0 W/m -2,3 C -1,3 C 3,2 km/h (1 Bft) 91,49 %
17.02.2017 01:04 -1,3 C 93 % 1027,2 hPa 0,0 l/m 2,0 km/h (1 Bft) S 181 0 min 0,000 mm 0,0 UV-I 0 W/m -2,3 C -1,3 C 3,2 km/h (1 Bft) 93,62 %
17.02.2017 01:06 -1,2 C 93 % 1027,2 hPa 0,0 l/m 2,8 km/h (1 Bft) S 181 0 min 0,000 mm 0,0 UV-I 0 W/m -2,2 C -1,2 C 3,2 km/h (1 Bft) 95,74 %
17.02.2017 01:08 -1,1 C 93 % 1027,2 hPa 0,0 l/m 2,6 km/h (1 Bft) S 181 0 min 0,000 mm 0,0 UV-I 0 W/m -2,1 C -1,1 C 3,2 km/h (1 Bft) 94,34 %
17.02.2017 01:10 -1,1 C 93 % 1027,2 hPa 0,0 l/m 2,8 km/h (1 Bft) S 181 0 min 0,000 mm 0,0 UV-I 0 W/m -2,1 C -1,1 C 3,2 km/h (1 Bft) 95,74 %
17.02.2017 01:12 -1,2 C 93 % 1027,2 hPa 0,0 l/m 1,9 km/h (1 Bft) S 181 0 min 0,000 mm 0,0 UV-I 0 W/m -2,2 C -1,2 C 4,8 km/h (1 Bft) 95,24 %
17.02.2017 01:14 -1,2 C 93 % 1027,1 hPa 0,0 l/m 2,7 km/h (1 Bft) S 181 0 min 0,000 mm 0,0 UV-I 0 W/m -2,2 C -1,2 C 4,8 km/h (1 Bft) 92,45 %
17.02.2017 01:16 -1,2 C 93 % 1027,1 hPa 0,0 l/m 4,9 km/h (1 Bft) S 175 0 min 0,000 mm 0,0 UV-I 0 W/m -2,2 C -1,2 C 6,4 km/h (2 Bft) 97,87 %
17.02.2017 01:18 -1,1 C 93 % 1027,0 hPa 0,0 l/m 4,6 km/h (1 Bft) S 173 0 min 0,000 mm 0,0 UV-I 0 W/m -2,1 C -1,1 C 8,0 km/h (2 Bft) 97,87 %
17.02.2017 01:20 -1,1 C 93 % 1027,0 hPa 0,0 l/m 2,8 km/h (1 Bft) S 173 0 min 0,000 mm 0,0 UV-I 0 W/m -2,1 C -1,1 C 4,8 km/h (1 Bft) 94,74 %
17.02.2017 01:22 -1,0 C 93 % 1026,9 hPa 0,0 l/m 1,9 km/h (1 Bft) S 173 0 min 0,000 mm 0,0 UV-I 0 W/m -2,0 C -1,0 C 4,8 km/h (1 Bft) 97,37 %
17.02.2017 01:24 -0,9 C 93 % 1026,9 hPa 0,0 l/m 0,4 km/h (0 Bft) S 173 0 min 0,000 mm 0,0 UV-I 0 W/m -1,9 C -0,9 C 3,2 km/h (1 Bft) 100,00 %
17.02.2017 01:26 -0,7 C 93 % 1026,9 hPa 0,0 l/m 0,3 km/h (0 Bft) S 173 0 min 0,000 mm 0,0 UV-I 0 W/m -1,7 C -0,7 C 1,6 km/h (1 Bft) 97,73 %
17.02.2017 01:28 -0,4 C 93 % 1026,9 hPa 0,0 l/m 0,0 km/h (0 Bft) S 173 0 min 0,000 mm 0,0 UV-I 0 W/m -1,4 C -0,4 C 0,0 km/h (0 Bft) 100,00 %
17.02.2017 01:30 -0,4 C 92 % 1026,9 hPa 0,0 l/m 0,0 km/h (0 Bft) S 173 0 min 0,000 mm 0,0 UV-I 0 W/m -1,5 C -0,4 C 0,0 km/h (0 Bft) 100,00 %
17.02.2017 01:32 -0,6 C 91 % 1026,9 hPa 0,0 l/m 1,2 km/h (1 Bft) S 173 0 min 0,000 mm 0,0 UV-I 0 W/m -1,9 C -0,6 C 3,2 km/h (1 Bft) 95,74 %
17.02.2017 01:34 -0,8 C 91 % 1026,9 hPa 0,0 l/m 1,8 km/h (1 Bft) S 173 0 min 0,000 mm 0,0 UV-I 0 W/m -2,1 C -0,8 C 3,2 km/h (1 Bft) 98,00 %
17.02.2017 01:36 -1,0 C 91 % 1026,9 hPa 0,0 l/m 0,0 km/h (0 Bft) S 173 0 min 0,000 mm 0,0 UV-I 0 W/m -2,3 C -1,0 C 0,0 km/h (0 Bft) 97,37 %
17.02.2017 01:38 -1,2 C 91 % 1026,9 hPa 0,0 l/m 0,0 km/h (0 Bft) S 173 0 min 0,000 mm 0,0 UV-I 0 W/m -2,5 C -1,2 C 0,0 km/h (0 Bft) 98,00 %
17.02.2017 01:40 -1,3 C 91 % 1026,9 hPa 0,0 l/m 0,0 km/h (0 Bft) S 173 0 min 0,000 mm 0,0 UV-I 0 W/m -2,6 C -1,3 C 0,0 km/h (0 Bft) 100,00 %
17.02.2017 01:42 -1,4 C 91 % 1026,8 hPa 0,0 l/m 0,5 km/h (0 Bft) S 173 0 min 0,000 mm 0,0 UV-I 0 W/m -2,7 C -1,4 C 1,6 km/h (1 Bft) 94,00 %
17.02.2017 01:44 -1,5 C 92 % 1026,8 hPa 0,0 l/m 2,0 km/h (1 Bft) S 173 0 min 0,000 mm 0,0 UV-I 0 W/m -2,6 C -1,5 C 3,2 km/h (1 Bft) 100,00 %
17.02.2017 01:46 -1,5 C 93 % 1026,7 hPa 0,0 l/m 2,7 km/h (1 Bft) S 173 0 min 0,000 mm 0,0 UV-I 0 W/m -2,5 C -1,5 C 4,8 km/h (1 Bft) 96,23 %
17.02.2017 01:48 -1,4 C 93 % 1026,7 hPa 0,0 l/m 1,6 km/h (1 Bft) S 173 0 min 0,000 mm 0,0 UV-I 0 W/m -2,4 C -1,4 C 4,8 km/h (1 Bft) 100,00 %
17.02.2017 01:50 -1,3 C 93 % 1026,8 hPa 0,0 l/m 2,2 km/h (1 Bft) S 173 0 min 0,000 mm 0,0 UV-I 0 W/m -2,3 C -1,3 C 3,2 km/h (1 Bft) 100,00 %
17.02.2017 01:52 -1,3 C 93 % 1026,7 hPa 0,0 l/m 2,8 km/h (1 Bft) S 173 0 min 0,000 mm 0,0 UV-I 0 W/m -2,3 C -1,3 C 4,8 km/h (1 Bft) 100,00 %
17.02.2017 01:54 -1,3 C 93 % 1026,7 hPa 0,0 l/m 1,0 km/h (0 Bft) S 173 0 min 0,000 mm 0,0 UV-I 0 W/m -2,3 C -1,3 C 3,2 km/h (1 Bft) 98,00 %
17.02.2017 01:56 -1,4 C 93 % 1026,7 hPa 0,0 l/m 1,2 km/h (1 Bft) S 173 0 min 0,000 mm 0,0 UV-I 0 W/m -2,4 C -1,4 C 1,6 km/h (1 Bft) 100,00 %
17.02.2017 01:58 -1,6 C 92 % 1026,6 hPa 0,0 l/m 1,4 km/h (1 Bft) S 173 0 min 0,000 mm 0,0 UV-I 0 W/m -2,7 C -1,6 C 3,2 km/h (1 Bft) 100,00 %
17.02.2017 02:00 -1,5 C 93 % 1026,5 hPa 0,0 l/m 5,6 km/h (1 Bft) S 171 0 min 0,000 mm 0,0 UV-I 0 W/m -2,5 C -1,5 C 9,7 km/h (2 Bft) 97,37 %
17.02.2017 02:02 -1,2 C 94 % 1026,4 hPa 0,0 l/m 5,1 km/h (1 Bft) S-SO 165 0 min 0,000 mm 0,0 UV-I 0 W/m -2,0 C -1,2 C 8,0 km/h (2 Bft) 100,00 %
17.02.2017 02:04 -0,9 C 94 % 1026,4 hPa 0,0 l/m 2,3 km/h (1 Bft) S-SO 165 0 min 0,000 mm 0,0 UV-I 0 W/m -1,7 C -0,9 C 6,4 km/h (2 Bft) 98,00 %
17.02.2017 02:06 -0,7 C 93 % 1026,4 hPa 0,0 l/m 0,5 km/h (0 Bft) S-SO 165 0 min 0,000 mm 0,0 UV-I 0 W/m -1,7 C -0,7 C 1,6 km/h (1 Bft) 100,00 %
17.02.2017 02:08 -0,7 C 93 % 1026,4 hPa 0,0 l/m 0,3 km/h (0 Bft) S-SO 165 0 min 0,000 mm 0,0 UV-I 0 W/m -1,7 C -0,7 C 1,6 km/h (1 Bft) 97,73 %
17.02.2017 02:10 -0,7 C 92 % 1026,4 hPa 0,0 l/m 0,8 km/h (0 Bft) S-SO 165 0 min 0,000 mm 0,0 UV-I 0 W/m -1,8 C -0,7 C 3,2 km/h (1 Bft) 96,23 %
17.02.2017 02:12 -0,7 C 92 % 1026,4 hPa 0,0 l/m 0,6 km/h (0 Bft) S-SO 165 0 min 0,000 mm 0,0 UV-I 0 W/m -1,8 C -0,7 C 1,6 km/h (1 Bft) 100,00 %
17.02.2017 02:14 -0,7 C 92 % 1026,4 hPa 0,0 l/m 0,3 km/h (0 Bft) S-SO 165 0 min 0,000 mm 0,0 UV-I 0 W/m -1,8 C -0,7 C 3,2 km/h (1 Bft) 96,23 %
17.02.2017 02:16 -0,9 C 91 % 1026,4 hPa 0,0 l/m 1,5 km/h (1 Bft) S-SO 165 0 min 0,000 mm 0,0 UV-I 0 W/m -2,2 C -0,9 C 3,2 km/h (1 Bft) 100,00 %
17.02.2017 02:18 -1,1 C 91 % 1026,3 hPa 0,0 l/m 1,5 km/h (1 Bft) S-SO 165 0 min 0,000 mm 0,0 UV-I 0 W/m -2,4 C -1,1 C 3,2 km/h (1 Bft) 97,14 %
17.02.2017 02:20 -1,2 C 91 % 1026,3 hPa 0,0 l/m 1,5 km/h (1 Bft) S-SO 165 0 min 0,000 mm 0,0 UV-I 0 W/m -2,5 C -1,2 C 3,2 km/h (1 Bft) 96,61 %
17.02.2017 02:22 -1,3 C 92 % 1026,3 hPa 0,0 l/m 0,9 km/h (0 Bft) S-SO 165 0 min 0,000 mm 0,0 UV-I 0 W/m -2,4 C -1,3 C 1,6 km/h (1 Bft) 100,00 %
17.02.2017 02:24 -1,3 C 92 % 1026,3 hPa 0,0 l/m 1,7 km/h (1 Bft) S-SO 165 0 min 0,000 mm 0,0 UV-I 0 W/m -2,4 C -1,3 C 3,2 km/h (1 Bft) 98,21 %
17.02.2017 02:26 -1,4 C 92 % 1026,3 hPa 0,0 l/m 1,2 km/h (1 Bft) S-SO 165 0 min 0,000 mm 0,0 UV-I 0 W/m -2,5 C -1,4 C 1,6 km/h (1 Bft) 100,00 %
17.02.2017 02:28 -1,4 C 92 % 1026,3 hPa 0,0 l/m 0,5 km/h (0 Bft) S-SO 165 0 min 0,000 mm 0,0 UV-I 0 W/m -2,5 C -1,4 C 1,6 km/h (1 Bft) 97,37 %
17.02.2017 02:30 -1,4 C 92 % 1026,2 hPa 0,0 l/m 0,9 km/h (0 Bft) S-SO 165 0 min 0,000 mm 0,0 UV-I 0 W/m -2,5 C -1,4 C 1,6 km/h (1 Bft) 96,23 %
17.02.2017 02:32 -1,4 C 93 % 1026,2 hPa 0,0 l/m 1,5 km/h (1 Bft) S-SO 165 0 min 0,000 mm 0,0 UV-I 0 W/m -2,4 C -1,4 C 3,2 km/h (1 Bft) 97,22 %
17.02.2017 02:34 -1,3 C 93 % 1026,2 hPa 0,0 l/m 1,5 km/h (1 Bft) S-SO 165 0 min 0,000 mm 0,0 UV-I 0 W/m -2,3 C -1,3 C 1,6 km/h (1 Bft) 94,34 %
17.02.2017 02:36 -1,3 C 93 % 1026,2 hPa 0,0 l/m 1,7 km/h (1 Bft) S-SO 165 0 min 0,000 mm 0,0 UV-I 0 W/m -2,3 C -1,3 C 3,2 km/h (1 Bft) 98,00 %
17.02.2017 02:38 -1,2 C 93 % 1026,2 hPa 0,0 l/m 1,8 km/h (1 Bft) S-SO 165 0 min 0,000 mm 0,0 UV-I 0 W/m -2,2 C -1,2 C 3,2 km/h (1 Bft) 94,00 %
17.02.2017 02:40 -1,2 C 93 % 1026,3 hPa 0,0 l/m 4,1 km/h (1 Bft) S-SO 166 0 min 0,000 mm 0,0 UV-I 0 W/m -2,2 C -1,2 C 6,4 km/h (2 Bft) 94,74 %
17.02.2017 02:42 -1,2 C 93 % 1026,3 hPa 0,0 l/m 2,9 km/h (1 Bft) S-SO 166 0 min 0,000 mm 0,0 UV-I 0 W/m -2,2 C -1,2 C 6,4 km/h (2 Bft) 94,00 %
17.02.2017 02:44 -1,2 C 93 % 1026,2 hPa 0,0 l/m 2,5 km/h (1 Bft) S-SO 166 0 min 0,000 mm 0,0 UV-I 0 W/m -2,2 C -1,2 C 4,8 km/h (1 Bft) 93,62 %
17.02.2017 02:46 -1,2 C 92 % 1026,2 hPa 0,0 l/m 0,5 km/h (0 Bft) S-SO 166 0 min 0,000 mm 0,0 UV-I 0 W/m -2,3 C -1,2 C 1,6 km/h (1 Bft) 95,74 %
17.02.2017 02:48 -1,1 C 93 % 1026,2 hPa 0,0 l/m 0,0 km/h (0 Bft) S-SO 166 0 min 0,000 mm 0,0 UV-I 0 W/m -2,1 C -1,1 C 0,0 km/h (0 Bft) 98,00 %
17.02.2017 02:50 -1,0 C 93 % 1026,1 hPa 0,0 l/m 0,0 km/h (0 Bft) S-SO 166 0 min 0,000 mm 0,0 UV-I 0 W/m -2,0 C -1,0 C 0,0 km/h (0 Bft) 96,00 %
17.02.2017 02:52 -0,9 C 92 % 1026,1 hPa 0,0 l/m 0,0 km/h (0 Bft) S-SO 166 0 min 0,000 mm 0,0 UV-I 0 W/m -2,0 C -0,9 C 0,0 km/h (0 Bft) 91,43 %
17.02.2017 02:54 -0,9 C 92 % 1026,1 hPa 0,0 l/m 0,0 km/h (0 Bft) S-SO 166 0 min 0,000 mm 0,0 UV-I 0 W/m -2,0 C -0,9 C 0,0 km/h (0 Bft) 92,00 %
17.02.2017 02:56 -0,9 C 92 % 1026,0 hPa 0,0 l/m 0,0 km/h (0 Bft) S-SO 166 0 min 0,000 mm 0,0 UV-I 0 W/m -2,0 C -0,9 C 0,0 km/h (0 Bft) 96,00 %
17.02.2017 02:58 -0,9 C 92 % 1026,0 hPa 0,0 l/m 0,0 km/h (0 Bft) S-SO 166 0 min 0,000 mm 0,0 UV-I 0 W/m -2,0 C -0,9 C 0,0 km/h (0 Bft) 97,87 %
17.02.2017 03:00 -1,0 C 92 % 1026,0 hPa 0,0 l/m 0,0 km/h (0 Bft) S-SO 166 0 min 0,000 mm 0,0 UV-I 0 W/m -2,1 C -1,0 C 0,0 km/h (0 Bft) 95,74 %
17.02.2017 03:02 -1,1 C 92 % 1025,9 hPa 0,0 l/m 0,0 km/h (0 Bft) S-SO 166 0 min 0,000 mm 0,0 UV-I 0 W/m -2,2 C -1,1 C 0,0 km/h (0 Bft) 94,00 %
17.02.2017 03:04 -1,1 C 92 % 1025,9 hPa 0,0 l/m 0,0 km/h (0 Bft) S-SO 166 0 min 0,000 mm 0,0 UV-I 0 W/m -2,2 C -1,1 C 0,0 km/h (0 Bft) 91,49 %
17.02.2017 03:06 -1,0 C 92 % 1025,9 hPa 0,0 l/m 0,5 km/h (0 Bft) S-SO 166 0 min 0,000 mm 0,0 UV-I 0 W/m -2,1 C -1,0 C 4,8 km/h (1 Bft) 97,56 %
17.02.2017 03:08 -0,9 C 92 % 1025,8 hPa 0,0 l/m 1,8 km/h (1 Bft) S-SO 166 0 min 0,000 mm 0,0 UV-I 0 W/m -2,0 C -0,9 C 4,8 km/h (1 Bft) 96,00 %
17.02.2017 03:10 -1,0 C 92 % 1025,8 hPa 0,0 l/m 0,4 km/h (0 Bft) S-SO 166 0 min 0,000 mm 0,0 UV-I 0 W/m -2,1 C -1,0 C 4,8 km/h (1 Bft) 97,87 %
17.02.2017 03:12 -1,1 C 91 % 1025,7 hPa 0,0 l/m 2,8 km/h (1 Bft) S-SO 166 0 min 0,000 mm 0,0 UV-I 0 W/m -2,4 C -1,1 C 4,8 km/h (1 Bft) 96,00 %
17.02.2017 03:14 -1,2 C 92 % 1025,7 hPa 0,0 l/m 0,0 km/h (0 Bft) S-SO 166 0 min 0,000 mm 0,0 UV-I 0 W/m -2,3 C -1,2 C 1,6 km/h (1 Bft) 94,44 %
17.02.2017 03:16 -1,3 C 92 % 1025,6 hPa 0,0 l/m 1,0 km/h (0 Bft) S-SO 166 0 min 0,000 mm 0,0 UV-I 0 W/m -2,4 C -1,3 C 4,8 km/h (1 Bft) 96,15 %
17.02.2017 03:18 -1,3 C 92 % 1025,6 hPa 0,0 l/m 4,4 km/h (1 Bft) S-SO 166 0 min 0,000 mm 0,0 UV-I 0 W/m -2,4 C -1,3 C 4,8 km/h (1 Bft) 95,74 %
17.02.2017 03:20 -1,4 C 92 % 1025,5 hPa 0,0 l/m 5,8 km/h (2 Bft) S-SO 166 0 min 0,000 mm 0,0 UV-I 0 W/m -2,5 C -1,4 C 6,4 km/h (2 Bft) 97,56 %
17.02.2017 03:22 -1,5 C 92 % 1025,5 hPa 0,0 l/m 2,8 km/h (1 Bft) S-SO 166 0 min 0,000 mm 0,0 UV-I 0 W/m -2,6 C -1,5 C 6,4 km/h (2 Bft) 94,64 %
17.02.2017 03:24 -1,4 C 93 % 1025,5 hPa 0,0 l/m 0,7 km/h (0 Bft) S-SO 166 0 min 0,000 mm 0,0 UV-I 0 W/m -2,4 C -1,4 C 6,4 km/h (2 Bft) 97,37 %
17.02.2017 03:26 -1,5 C 92 % 1025,6 hPa 0,0 l/m 6,2 km/h (2 Bft) S-SO 167 0 min 0,000 mm 0,0 UV-I 0 W/m -2,6 C -1,5 C 8,0 km/h (2 Bft) 96,43 %
17.02.2017 03:28 -1,6 C 92 % 1025,7 hPa 0,0 l/m 4,1 km/h (1 Bft) S-SO 167 0 min 0,000 mm 0,0 UV-I 0 W/m -2,7 C -1,6 C 6,4 km/h (2 Bft) 97,37 %
17.02.2017 03:30 -1,7 C 92 % 1025,6 hPa 0,0 l/m 1,7 km/h (1 Bft) S-SO 167 0 min 0,000 mm 0,0 UV-I 0 W/m -2,8 C -1,7 C 4,8 km/h (1 Bft) 98,00 %
17.02.2017 03:32 -1,7 C 93 % 1025,5 hPa 0,0 l/m 2,2 km/h (1 Bft) S-SO 167 0 min 0,000 mm 0,0 UV-I 0 W/m -2,7 C -1,7 C 6,4 km/h (2 Bft) 96,00 %
17.02.2017 03:34 -1,8 C 93 % 1025,5 hPa 0,0 l/m 6,0 km/h (2 Bft) S-SO 165 0 min 0,000 mm 0,0 UV-I 0 W/m -2,8 C -1,8 C 8,0 km/h (2 Bft) 100,00 %
17.02.2017 03:36 -1,8 C 93 % 1025,5 hPa 0,0 l/m 3,4 km/h (1 Bft) S-SO 165 0 min 0,000 mm 0,0 UV-I 0 W/m -2,8 C -1,8 C 6,4 km/h (2 Bft) 97,01 %
17.02.2017 03:38 -1,7 C 94 % 1025,5 hPa 0,0 l/m 1,0 km/h (0 Bft) S-SO 165 0 min 0,000 mm 0,0 UV-I 0 W/m -2,5 C -1,7 C 3,2 km/h (1 Bft) 100,00 %
17.02.2017 03:40 -1,6 C 94 % 1025,6 hPa 0,0 l/m 2,3 km/h (1 Bft) S-SO 165 0 min 0,000 mm 0,0 UV-I 0 W/m -2,4 C -1,6 C 6,4 km/h (2 Bft) 97,87 %
17.02.2017 03:42 -1,6 C 94 % 1025,6 hPa 0,0 l/m 4,2 km/h (1 Bft) S-SO 165 0 min 0,000 mm 0,0 UV-I 0 W/m -2,4 C -1,6 C 6,4 km/h (2 Bft) 100,00 %
17.02.2017 03:44 -1,6 C 94 % 1025,5 hPa 0,0 l/m 4,5 km/h (1 Bft) S-SO 165 0 min 0,000 mm 0,0 UV-I 0 W/m -2,4 C -1,6 C 6,4 km/h (2 Bft) 97,87 %
17.02.2017 03:46 -1,6 C 94 % 1025,6 hPa 0,0 l/m 3,1 km/h (1 Bft) S-SO 165 0 min 0,000 mm 0,0 UV-I 0 W/m -2,4 C -1,6 C 6,4 km/h (2 Bft) 95,83 %
17.02.2017 03:48 -1,5 C 94 % 1025,6 hPa 0,0 l/m 3,8 km/h (1 Bft) S-SO 166 0 min 0,000 mm 0,0 UV-I 0 W/m -2,3 C -1,5 C 6,4 km/h (2 Bft) 98,44 %
17.02.2017 03:50 -1,4 C 94 % 1025,5 hPa 0,0 l/m 2,3 km/h (1 Bft) S-SO 165 0 min 0,000 mm 0,0 UV-I 0 W/m -2,2 C -1,4 C 4,8 km/h (1 Bft) 97,62 %
17.02.2017 03:52 -1,4 C 94 % 1025,4 hPa 0,0 l/m 1,0 km/h (0 Bft) S-SO 165 0 min 0,000 mm 0,0 UV-I 0 W/m -2,2 C -1,4 C 4,8 km/h (1 Bft) 96,00 %
17.02.2017 03:54 -1,4 C 94 % 1025,4 hPa 0,0 l/m 2,3 km/h (1 Bft) S-SO 165 0 min 0,000 mm 0,0 UV-I 0 W/m -2,2 C -1,4 C 4,8 km/h (1 Bft) 97,73 %
17.02.2017 03:56 -1,3 C 94 % 1025,5 hPa 0,0 l/m 1,2 km/h (1 Bft) S-SO 166 0 min 0,000 mm 0,0 UV-I 0 W/m -2,1 C -1,3 C 3,2 km/h (1 Bft) 98,21 %
17.02.2017 03:58 -1,3 C 94 % 1025,3 hPa 0,0 l/m 3,5 km/h (1 Bft) S-SO 165 0 min 0,000 mm 0,0 UV-I 0 W/m -2,1 C -1,3 C 6,4 km/h (2 Bft) 97,56 %
17.02.2017 04:00 -1,2 C 94 % 1025,4 hPa 0,0 l/m 0,4 km/h (0 Bft) S-SO 165 0 min 0,000 mm 0,0 UV-I 0 W/m -2,0 C -1,2 C 3,2 km/h (1 Bft) 100,00 %
17.02.2017 04:02 -1,2 C 94 % 1025,4 hPa 0,0 l/m 1,5 km/h (1 Bft) S-SO 165 0 min 0,000 mm 0,0 UV-I 0 W/m -2,0 C -1,2 C 1,6 km/h (1 Bft) 96,43 %
17.02.2017 04:04 -1,1 C 94 % 1025,4 hPa 0,0 l/m 0,0 km/h (0 Bft) S-SO 166 0 min 0,000 mm 0,0 UV-I 0 W/m -1,9 C -1,1 C 0,0 km/h (0 Bft) 95,74 %
17.02.2017 04:06 -1,1 C 94 % 1025,4 hPa 0,0 l/m 0,0 km/h (0 Bft) S-SO 165 0 min 0,000 mm 0,0 UV-I 0 W/m -1,9 C -1,1 C 0,0 km/h (0 Bft) 94,74 %
17.02.2017 04:08 -1,0 C 94 % 1025,3 hPa 0,0 l/m 0,0 km/h (0 Bft) S-SO 165 0 min 0,000 mm 0,0 UV-I 0 W/m -1,8 C -1,0 C 0,0 km/h (0 Bft) 96,23 %
17.02.2017 04:10 -1,0 C 94 % 1025,2 hPa 0,0 l/m 0,0 km/h (0 Bft) S-SO 165 0 min 0,000 mm 0,0 UV-I 0 W/m -1,8 C -1,0 C 0,0 km/h (0 Bft) 97,87 %
17.02.2017 04:12 -0,9 C 94 % 1025,2 hPa 0,0 l/m 0,0 km/h (0 Bft) S-SO 166 0 min 0,000 mm 0,0 UV-I 0 W/m -1,7 C -0,9 C 0,0 km/h (0 Bft) 90,00 %
17.02.2017 04:14 -0,8 C 94 % 1025,2 hPa 0,0 l/m 0,7 km/h (0 Bft) S-SO 165 0 min 0,000 mm 0,0 UV-I 0 W/m -1,6 C -0,8 C 1,6 km/h (1 Bft) 100,00 %
17.02.2017 04:16 -0,7 C 93 % 1025,2 hPa 0,0 l/m 1,8 km/h (1 Bft) S-SO 165 0 min 0,000 mm 0,0 UV-I 0 W/m -1,7 C -0,7 C 4,8 km/h (1 Bft) 93,62 %
17.02.2017 04:18 -0,7 C 93 % 1025,1 hPa 0,0 l/m 2,4 km/h (1 Bft) S-SO 165 0 min 0,000 mm 0,0 UV-I 0 W/m -1,7 C -0,7 C 6,4 km/h (2 Bft) 95,83 %
17.02.2017 04:20 -0,6 C 93 % 1025,1 hPa 0,0 l/m 3,1 km/h (1 Bft) S-SO 165 0 min 0,000 mm 0,0 UV-I 0 W/m -1,6 C -0,6 C 6,4 km/h (2 Bft) 98,00 %
17.02.2017 04:22 -0,5 C 93 % 1025,2 hPa 0,0 l/m 0,9 km/h (0 Bft) S-SO 165 0 min 0,000 mm 0,0 UV-I 0 W/m -1,5 C -0,5 C 3,2 km/h (1 Bft) 92,68 %
17.02.2017 04:24 -0,4 C 93 % 1025,1 hPa 0,0 l/m 1,2 km/h (1 Bft) S-SO 165 0 min 0,000 mm 0,0 UV-I 0 W/m -1,4 C -0,4 C 3,2 km/h (1 Bft) 98,00 %
17.02.2017 04:26 -0,5 C 92 % 1025,0 hPa 0,0 l/m 2,0 km/h (1 Bft) S-SO 165 0 min 0,000 mm 0,0 UV-I 0 W/m -1,6 C -0,5 C 3,2 km/h (1 Bft) 94,34 %
17.02.2017 04:28 -0,6 C 92 % 1025,0 hPa 0,0 l/m 1,6 km/h (1 Bft) S-SO 165 0 min 0,000 mm 0,0 UV-I 0 W/m -1,7 C -0,6 C 3,2 km/h (1 Bft) 97,30 %
17.02.2017 04:30 -0,7 C 92 % 1025,0 hPa 0,0 l/m 0,6 km/h (0 Bft) S-SO 165 0 min 0,000 mm 0,0 UV-I 0 W/m -1,8 C -0,7 C 3,2 km/h (1 Bft) 96,00 %
17.02.2017 04:32 -0,7 C 93 % 1024,9 hPa 0,0 l/m 0,0 km/h (0 Bft) S-SO 165 0 min 0,000 mm 0,0 UV-I 0 W/m -1,7 C -0,7 C 1,6 km/h (1 Bft) 100,00 %
17.02.2017 04:34 -0,7 C 93 % 1024,9 hPa 0,0 l/m 0,0 km/h (0 Bft) S-SO 165 0 min 0,000 mm 0,0 UV-I 0 W/m -1,7 C -0,7 C 0,0 km/h (0 Bft) 97,87 %
17.02.2017 04:36 -0,7 C 93 % 1025,0 hPa 0,0 l/m 0,1 km/h (0 Bft) S-SO 165 0 min 0,000 mm 0,0 UV-I 0 W/m -1,7 C -0,7 C 1,6 km/h (1 Bft) 100,00 %
17.02.2017 04:38 -0,7 C 93 % 1025,0 hPa 0,0 l/m 0,0 km/h (0 Bft) S-SO 165 0 min 0,000 mm 0,0 UV-I 0 W/m -1,7 C -0,7 C 0,0 km/h (0 Bft) 97,87 %
17.02.2017 04:40 -0,8 C 93 % 1024,9 hPa 0,0 l/m 0,1 km/h (0 Bft) S-SO 165 0 min 0,000 mm 0,0 UV-I 0 W/m -1,8 C -0,8 C 1,6 km/h (1 Bft) 100,00 %
17.02.2017 04:42 -0,8 C 93 % 1024,9 hPa 0,0 l/m 0,0 km/h (0 Bft) S-SO 165 0 min 0,000 mm 0,0 UV-I 0 W/m -1,8 C -0,8 C 0,0 km/h (0 Bft) 97,87 %
17.02.2017 04:44 -0,8 C 93 % 1024,9 hPa 0,0 l/m 0,0 km/h (0 Bft) S-SO 165 0 min 0,000 mm 0,0 UV-I 0 W/m -1,8 C -0,8 C 0,0 km/h (0 Bft) 93,62 %
17.02.2017 04:46 -0,9 C 93 % 1024,9 hPa 0,0 l/m 0,0 km/h (0 Bft) S-SO 165 0 min 0,000 mm 0,0 UV-I 0 W/m -1,9 C -0,9 C 0,0 km/h (0 Bft) 97,92 %
17.02.2017 04:48 -0,9 C 93 % 1024,9 hPa 0,0 l/m 0,0 km/h (0 Bft) S-SO 165 0 min 0,000 mm 0,0 UV-I 0 W/m -1,9 C -0,9 C 0,0 km/h (0 Bft) 100,00 %
17.02.2017 04:50 -0,9 C 93 % 1024,9 hPa 0,0 l/m 0,0 km/h (0 Bft) S-SO 165 0 min 0,000 mm 0,0 UV-I 0 W/m -1,9 C -0,9 C 0,0 km/h (0 Bft) 95,74 %
17.02.2017 04:52 -0,9 C 93 % 1024,9 hPa 0,0 l/m 0,0 km/h (0 Bft) S-SO 165 0 min 0,000 mm 0,0 UV-I 0 W/m -1,9 C -0,9 C 0,0 km/h (0 Bft) 98,00 %
17.02.2017 04:54 -0,9 C 93 % 1024,9 hPa 0,0 l/m 0,0 km/h (0 Bft) S-SO 165 0 min 0,000 mm 0,0 UV-I 0 W/m -1,9 C -0,9 C 0,0 km/h (0 Bft) 100,00 %
17.02.2017 04:56 -0,8 C 93 % 1024,9 hPa 0,0 l/m 0,0 km/h (0 Bft) S-SO 165 0 min 0,000 mm 0,0 UV-I 0 W/m -1,8 C -0,8 C 0,0 km/h (0 Bft) 100,00 %
17.02.2017 04:58 -0,8 C 93 % 1024,8 hPa 0,0 l/m 0,0 km/h (0 Bft) S-SO 165 0 min 0,000 mm 0,0 UV-I 0 W/m -1,8 C -0,8 C 0,0 km/h (0 Bft) 100,00 %
17.02.2017 05:00 -0,9 C 93 % 1024,8 hPa 0,0 l/m 0,0 km/h (0 Bft) S-SO 165 0 min 0,000 mm 0,0 UV-I 0 W/m -1,9 C -0,9 C 0,0 km/h (0 Bft) 97,87 %
17.02.2017 05:02 -0,9 C 93 % 1024,7 hPa 0,0 l/m 0,0 km/h (0 Bft) S-SO 165 0 min 0,000 mm 0,0 UV-I 0 W/m -1,9 C -0,9 C 0,0 km/h (0 Bft) 100,00 %
17.02.2017 05:04 -0,8 C 93 % 1024,6 hPa 0,0 l/m 0,9 km/h (0 Bft) S-SO 165 0 min 0,000 mm 0,0 UV-I 0 W/m -1,8 C -0,8 C 3,2 km/h (1 Bft) 100,00 %
17.02.2017 05:06 -0,8 C 93 % 1024,5 hPa 0,0 l/m 4,3 km/h (1 Bft) S-SO 165 0 min 0,000 mm 0,0 UV-I 0 W/m -1,8 C -0,8 C 6,4 km/h (2 Bft) 98,00 %
17.02.2017 05:08 -0,8 C 94 % 1024,4 hPa 0,0 l/m 2,7 km/h (1 Bft) S-SO 165 0 min 0,000 mm 0,0 UV-I 0 W/m -1,6 C -0,8 C 6,4 km/h (2 Bft) 97,56 %
17.02.2017 05:10 -0,8 C 94 % 1024,4 hPa 0,0 l/m 1,0 km/h (0 Bft) S-SO 165 0 min 0,000 mm 0,0 UV-I 0 W/m -1,6 C -0,8 C 3,2 km/h (1 Bft) 96,00 %
17.02.2017 05:12 -0,8 C 93 % 1024,4 hPa 0,0 l/m 0,0 km/h (0 Bft) S-SO 165 0 min 0,000 mm 0,0 UV-I 0 W/m -1,8 C -0,8 C 0,0 km/h (0 Bft) 95,74 %
17.02.2017 05:14 -0,7 C 93 % 1024,4 hPa 0,0 l/m 0,0 km/h (0 Bft) S-SO 165 0 min 0,000 mm 0,0 UV-I 0 W/m -1,7 C -0,7 C 0,0 km/h (0 Bft) 95,83 %
17.02.2017 05:16 -0,7 C 94 % 1024,4 hPa 0,0 l/m 0,0 km/h (0 Bft) S-SO 165 0 min 0,000 mm 0,0 UV-I 0 W/m -1,5 C -0,7 C 0,0 km/h (0 Bft) 95,74 %
17.02.2017 05:18 -0,7 C 94 % 1024,3 hPa 0,0 l/m 0,0 km/h (0 Bft) S-SO 165 0 min 0,000 mm 0,0 UV-I 0 W/m -1,5 C -0,7 C 0,0 km/h (0 Bft) 95,74 %
17.02.2017 05:20 -0,7 C 94 % 1024,3 hPa 0,0 l/m 0,0 km/h (0 Bft) S-SO 165 0 min 0,000 mm 0,0 UV-I 0 W/m -1,5 C -0,7 C 0,0 km/h (0 Bft) 97,87 %
17.02.2017 05:22 -0,7 C 93 % 1024,3 hPa 0,0 l/m 0,0 km/h (0 Bft) S-SO 165 0 min 0,000 mm 0,0 UV-I 0 W/m -1,7 C -0,7 C 0,0 km/h (0 Bft) 94,74 %
17.02.2017 05:24 -0,7 C 93 % 1024,3 hPa 0,0 l/m 0,0 km/h (0 Bft) S-SO 165 0 min 0,000 mm 0,0 UV-I 0 W/m -1,7 C -0,7 C 0,0 km/h (0 Bft) 98,11 %
17.02.2017 05:26 -0,7 C 93 % 1024,3 hPa 0,0 l/m 0,0 km/h (0 Bft) S-SO 165 0 min 0,000 mm 0,0 UV-I 0 W/m -1,7 C -0,7 C 0,0 km/h (0 Bft) 96,00 %
17.02.2017 05:28 -0,7 C 93 % 1024,2 hPa 0,0 l/m 0,0 km/h (0 Bft) S-SO 165 0 min 0,000 mm 0,0 UV-I 0 W/m -1,7 C -0,7 C 0,0 km/h (0 Bft) 95,74 %
17.02.2017 05:30 -0,7 C 93 % 1024,3 hPa 0,0 l/m 0,0 km/h (0 Bft) S-SO 165 0 min 0,000 mm 0,0 UV-I 0 W/m -1,7 C -0,7 C 1,6 km/h (1 Bft) 95,74 %
17.02.2017 05:32 -0,7 C 93 % 1024,2 hPa 0,0 l/m 1,9 km/h (1 Bft) S-SO 165 0 min 0,000 mm 0,0 UV-I 0 W/m -1,7 C -0,7 C 6,4 km/h (2 Bft) 95,12 %
17.02.2017 05:34 -0,7 C 93 % 1024,1 hPa 0,0 l/m 2,3 km/h (1 Bft) S-SO 165 0 min 0,000 mm 0,0 UV-I 0 W/m -1,7 C -0,7 C 3,2 km/h (1 Bft) 98,00 %
17.02.2017 05:36 -0,8 C 93 % 1024,1 hPa 0,0 l/m 0,5 km/h (0 Bft) S-SO 165 0 min 0,000 mm 0,0 UV-I 0 W/m -1,8 C -0,8 C 3,2 km/h (1 Bft) 94,00 %
17.02.2017 05:38 -0,8 C 93 % 1024,0 hPa 0,0 l/m 0,0 km/h (0 Bft) S-SO 165 0 min 0,000 mm 0,0 UV-I 0 W/m -1,8 C -0,8 C 0,0 km/h (0 Bft) 95,45 %
17.02.2017 05:40 -0,8 C 93 % 1024,1 hPa 0,0 l/m 0,2 km/h (0 Bft) S-SO 165 0 min 0,000 mm 0,0 UV-I 0 W/m -1,8 C -0,8 C 1,6 km/h (1 Bft) 97,37 %
17.02.2017 05:42 -0,8 C 93 % 1024,0 hPa 0,0 l/m 0,5 km/h (0 Bft) S-SO 165 0 min 0,000 mm 0,0 UV-I 0 W/m -1,8 C -0,8 C 3,2 km/h (1 Bft) 97,87 %
17.02.2017 05:44 -0,8 C 93 % 1023,9 hPa 0,0 l/m 0,9 km/h (0 Bft) S-SO 165 0 min 0,000 mm 0,0 UV-I 0 W/m -1,8 C -0,8 C 3,2 km/h (1 Bft) 96,23 %
17.02.2017 05:46 -0,8 C 93 % 1023,8 hPa 0,0 l/m 0,6 km/h (0 Bft) S-SO 165 0 min 0,000 mm 0,0 UV-I 0 W/m -1,8 C -0,8 C 1,6 km/h (1 Bft) 100,00 %
17.02.2017 05:48 -0,8 C 93 % 1023,9 hPa 0,0 l/m 0,1 km/h (0 Bft) S-SO 165 0 min 0,000 mm 0,0 UV-I 0 W/m -1,8 C -0,8 C 1,6 km/h (1 Bft) 100,00 %
17.02.2017 05:50 -0,8 C 93 % 1023,9 hPa 0,0 l/m 0,8 km/h (0 Bft) S-SO 165 0 min 0,000 mm 0,0 UV-I 0 W/m -1,8 C -0,8 C 3,2 km/h (1 Bft) 95,74 %
17.02.2017 05:52 -0,8 C 93 % 1023,9 hPa 0,0 l/m 1,3 km/h (1 Bft) S-SO 165 0 min 0,000 mm 0,0 UV-I 0 W/m -1,8 C -0,8 C 3,2 km/h (1 Bft) 96,00 %
17.02.2017 05:54 -0,8 C 93 % 1023,9 hPa 0,0 l/m 0,0 km/h (0 Bft) S-SO 165 0 min 0,000 mm 0,0 UV-I 0 W/m -1,8 C -0,8 C 0,0 km/h (0 Bft) 96,15 %
17.02.2017 05:56 -0,9 C 93 % 1023,9 hPa 0,0 l/m 0,0 km/h (0 Bft) S-SO 165 0 min 0,000 mm 0,0 UV-I 0 W/m -1,9 C -0,9 C 0,0 km/h (0 Bft) 93,85 %
17.02.2017 05:58 -0,9 C 93 % 1024,0 hPa 0,0 l/m 0,0 km/h (0 Bft) S-SO 165 0 min 0,000 mm 0,0 UV-I 0 W/m -1,9 C -0,9 C 0,0 km/h (0 Bft) 98,00 %
17.02.2017 06:00 -0,9 C 94 % 1024,0 hPa 0,0 l/m 0,0 km/h (0 Bft) S-SO 165 0 min 0,000 mm 0,0 UV-I 0 W/m -1,7 C -0,9 C 0,0 km/h (0 Bft) 98,11 %
17.02.2017 06:02 -1,0 C 94 % 1024,0 hPa 0,0 l/m 0,0 km/h (0 Bft) S-SO 165 0 min 0,000 mm 0,0 UV-I 0 W/m -1,8 C -1,0 C 0,0 km/h (0 Bft) 95,74 %
17.02.2017 06:04 -1,0 C 94 % 1024,0 hPa 0,0 l/m 0,0 km/h (0 Bft) S-SO 165 0 min 0,000 mm 0,0 UV-I 0 W/m -1,8 C -1,0 C 0,0 km/h (0 Bft) 95,74 %
17.02.2017 06:06 -0,9 C 94 % 1024,0 hPa 0,0 l/m 0,1 km/h (0 Bft) S-SO 165 0 min 0,000 mm 0,0 UV-I 0 W/m -1,7 C -0,9 C 1,6 km/h (1 Bft) 93,10 %
17.02.2017 06:08 -0,9 C 94 % 1023,9 hPa 0,0 l/m 0,0 km/h (0 Bft) S-SO 165 0 min 0,000 mm 0,0 UV-I 0 W/m -1,7 C -0,9 C 0,0 km/h (0 Bft) 98,21 %
17.02.2017 06:10 -0,8 C 94 % 1023,8 hPa 0,0 l/m 0,0 km/h (0 Bft) S-SO 165 0 min 0,000 mm 0,0 UV-I 0 W/m -1,6 C -0,8 C 0,0 km/h (0 Bft) 98,00 %
17.02.2017 06:12 -0,8 C 94 % 1023,8 hPa 0,0 l/m 0,0 km/h (0 Bft) S-SO 165 0 min 0,000 mm 0,0 UV-I 0 W/m -1,6 C -0,8 C 0,0 km/h (0 Bft) 97,37 %
17.02.2017 06:14 -0,8 C 94 % 1023,8 hPa 0,0 l/m 0,0 km/h (0 Bft) S-SO 165 0 min 0,000 mm 0,0 UV-I 0 W/m -1,6 C -0,8 C 0,0 km/h (0 Bft) 98,11 %
17.02.2017 06:16 -0,7 C 94 % 1023,8 hPa 0,0 l/m 0,2 km/h (0 Bft) S-SO 165 0 min 0,000 mm 0,0 UV-I 0 W/m -1,5 C -0,7 C 1,6 km/h (1 Bft) 95,74 %
17.02.2017 06:18 -0,7 C 94 % 1023,7 hPa 0,0 l/m 1,9 km/h (1 Bft) S-SO 165 0 min 0,000 mm 0,0 UV-I 0 W/m -1,5 C -0,7 C 3,2 km/h (1 Bft) 96,00 %
17.02.2017 06:20 -0,7 C 94 % 1023,7 hPa 0,0 l/m 1,7 km/h (1 Bft) S-SO 165 0 min 0,000 mm 0,0 UV-I 0 W/m -1,5 C -0,7 C 3,2 km/h (1 Bft) 97,73 %
17.02.2017 06:22 -0,7 C 94 % 1023,7 hPa 0,0 l/m 0,2 km/h (0 Bft) S-SO 165 0 min 0,000 mm 0,0 UV-I 0 W/m -1,5 C -0,7 C 1,6 km/h (1 Bft) 100,00 %
17.02.2017 06:24 -0,7 C 94 % 1023,7 hPa 0,0 l/m 0,0 km/h (0 Bft) S-SO 165 0 min 0,000 mm 0,0 UV-I 0 W/m -1,5 C -0,7 C 0,0 km/h (0 Bft) 97,87 %
17.02.2017 06:26 -0,7 C 94 % 1023,7 hPa 0,0 l/m 0,0 km/h (0 Bft) S-SO 165 0 min 0,000 mm 0,0 UV-I 0 W/m -1,5 C -0,7 C 0,0 km/h (0 Bft) 96,00 %
17.02.2017 06:28 -0,8 C 94 % 1023,8 hPa 0,0 l/m 0,0 km/h (0 Bft) S-SO 165 0 min 0,000 mm 0,0 UV-I 0 W/m -1,6 C -0,8 C 0,0 km/h (0 Bft) 100,00 %
17.02.2017 06:30 -0,8 C 93 % 1023,8 hPa 0,0 l/m 0,1 km/h (0 Bft) S-SO 165 0 min 0,000 mm 0,0 UV-I 0 W/m -1,8 C -0,8 C 1,6 km/h (1 Bft) 93,62 %
17.02.2017 06:32 -0,8 C 93 % 1023,8 hPa 0,0 l/m 0,0 km/h (0 Bft) S-SO 165 0 min 0,000 mm 0,0 UV-I 0 W/m -1,8 C -0,8 C 1,6 km/h (1 Bft) 100,00 %
17.02.2017 06:34 -0,8 C 93 % 1023,7 hPa 0,0 l/m 0,0 km/h (0 Bft) S-SO 165 0 min 0,000 mm 0,0 UV-I 0 W/m -1,8 C -0,8 C 0,0 km/h (0 Bft) 100,00 %
17.02.2017 06:36 -0,9 C 94 % 1023,7 hPa 0,0 l/m 0,6 km/h (0 Bft) S-SO 165 0 min 0,000 mm 0,0 UV-I 0 W/m -1,7 C -0,9 C 1,6 km/h (1 Bft) 98,11 %
17.02.2017 06:38 -0,9 C 94 % 1023,7 hPa 0,0 l/m 0,2 km/h (0 Bft) S-SO 165 0 min 0,000 mm 0,0 UV-I 0 W/m -1,7 C -0,9 C 1,6 km/h (1 Bft) 98,11 %
17.02.2017 06:40 -0,8 C 94 % 1023,7 hPa 0,0 l/m 0,0 km/h (0 Bft) S-SO 165 0 min 0,000 mm 0,0 UV-I 0 W/m -1,6 C -0,8 C 0,0 km/h (0 Bft) 97,37 %
17.02.2017 06:42 -0,8 C 94 % 1023,7 hPa 0,0 l/m 0,1 km/h (0 Bft) S-SO 165 0 min 0,000 mm 0,0 UV-I 0 W/m -1,6 C -0,8 C 1,6 km/h (1 Bft) 97,87 %
17.02.2017 06:44 -0,7 C 94 % 1023,7 hPa 0,0 l/m 0,8 km/h (0 Bft) S-SO 165 0 min 0,000 mm 0,0 UV-I 0 W/m -1,5 C -0,7 C 3,2 km/h (1 Bft) 94,34 %
17.02.2017 06:46 -0,6 C 94 % 1023,7 hPa 0,0 l/m 0,9 km/h (0 Bft) S-SO 165 0 min 0,000 mm 0,0 UV-I 0 W/m -1,4 C -0,6 C 3,2 km/h (1 Bft) 100,00 %
17.02.2017 06:48 -0,6 C 94 % 1023,7 hPa 0,0 l/m 0,1 km/h (0 Bft) S-SO 165 0 min 0,000 mm 0,0 UV-I 0 W/m -1,4 C -0,6 C 1,6 km/h (1 Bft) 98,00 %
17.02.2017 06:50 -0,6 C 94 % 1023,7 hPa 0,0 l/m 0,6 km/h (0 Bft) S-SO 165 0 min 0,000 mm 0,0 UV-I 0 W/m -1,4 C -0,6 C 1,6 km/h (1 Bft) 97,37 %
17.02.2017 06:52 -0,6 C 94 % 1023,7 hPa 0,0 l/m 3,0 km/h (1 Bft) S-SO 165 0 min 0,000 mm 0,0 UV-I 0 W/m -1,4 C -0,6 C 6,4 km/h (2 Bft) 100,00 %
17.02.2017 06:54 -0,5 C 94 % 1023,7 hPa 0,0 l/m 1,7 km/h (1 Bft) S-SO 165 0 min 0,000 mm 0,0 UV-I 0 W/m -1,3 C -0,5 C 6,4 km/h (2 Bft) 98,11 %
17.02.2017 06:56 -0,5 C 94 % 1023,8 hPa 0,0 l/m 2,1 km/h (1 Bft) S-SO 166 0 min 0,000 mm 0,0 UV-I 0 W/m -1,3 C -0,5 C 4,8 km/h (1 Bft) 100,00 %
17.02.2017 06:58 -0,5 C 93 % 1023,8 hPa 0,0 l/m 2,1 km/h (1 Bft) S-SO 165 0 min 0,000 mm 0,0 UV-I 0 W/m -1,5 C -0,5 C 4,8 km/h (1 Bft) 100,00 %
17.02.2017 07:00 -0,5 C 93 % 1023,8 hPa 0,0 l/m 3,1 km/h (1 Bft) S-SO 165 0 min 0,000 mm 0,0 UV-I 0 W/m -1,5 C -0,5 C 4,8 km/h (1 Bft) 94,29 %
17.02.2017 07:02 -0,4 C 94 % 1023,9 hPa 0,0 l/m 3,2 km/h (1 Bft) S-SO 165 0 min 0,000 mm 0,0 UV-I 0 W/m -1,2 C -0,4 C 6,4 km/h (2 Bft) 100,00 %
17.02.2017 07:04 -0,4 C 94 % 1023,9 hPa 0,0 l/m 3,8 km/h (1 Bft) S-SO 166 0 min 0,000 mm 0,0 UV-I 0 W/m -1,2 C -0,4 C 6,4 km/h (2 Bft) 92,45 %
17.02.2017 07:06 -0,4 C 94 % 1023,9 hPa 0,0 l/m 3,4 km/h (1 Bft) S-SO 165 0 min 0,000 mm 0,0 UV-I 0 W/m -1,2 C -0,4 C 6,4 km/h (2 Bft) 97,87 %
17.02.2017 07:08 -0,3 C 94 % 1023,9 hPa 0,0 l/m 2,1 km/h (1 Bft) S-SO 165 0 min 0,000 mm 0,0 UV-I 0 W/m -1,1 C -0,3 C 6,4 km/h (2 Bft) 96,30 %
17.02.2017 07:10 -0,3 C 94 % 1023,8 hPa 0,0 l/m 2,1 km/h (1 Bft) S-SO 165 0 min 0,000 mm 0,0 UV-I 0 W/m -1,1 C -0,3 C 4,8 km/h (1 Bft) 98,39 %
17.02.2017 07:12 -0,3 C 94 % 1023,9 hPa 0,0 l/m 4,0 km/h (1 Bft) S-SO 165 0 min 0,000 mm 0,0 UV-I 5 W/m -1,1 C -0,3 C 6,4 km/h (2 Bft) 100,00 %
17.02.2017 07:14 -0,2 C 93 % 1023,9 hPa 0,0 l/m 2,7 km/h (1 Bft) S-SO 166 0 min 0,000 mm 0,0 UV-I 5 W/m -1,2 C -0,2 C 6,4 km/h (2 Bft) 96,00 %
17.02.2017 07:16 -0,2 C 93 % 1024,0 hPa 0,0 l/m 5,0 km/h (1 Bft) S 173 0 min 0,000 mm 0,0 UV-I 5 W/m -1,2 C -0,2 C 9,7 km/h (2 Bft) 96,00 %
17.02.2017 07:18 -0,2 C 93 % 1024,0 hPa 0,0 l/m 4,7 km/h (1 Bft) S 173 0 min 0,000 mm 0,0 UV-I 6 W/m -1,2 C -0,2 C 8,0 km/h (2 Bft) 92,00 %
17.02.2017 07:20 -0,2 C 93 % 1024,0 hPa 0,0 l/m 4,0 km/h (1 Bft) S 173 0 min 0,000 mm 0,0 UV-I 8 W/m -1,2 C -0,2 C 8,0 km/h (2 Bft) 94,74 %
17.02.2017 07:22 -0,2 C 93 % 1024,1 hPa 0,0 l/m 5,7 km/h (1 Bft) S 188 0 min 0,000 mm 0,0 UV-I 10 W/m -1,2 C -0,2 C 8,0 km/h (2 Bft) 92,00 %
17.02.2017 07:24 -0,1 C 93 % 1024,2 hPa 0,0 l/m 4,9 km/h (1 Bft) S-SW 196 0 min 0,000 mm 0,0 UV-I 12 W/m -1,1 C -0,1 C 8,0 km/h (2 Bft) 92,00 %
17.02.2017 07:26 -0,1 C 93 % 1024,2 hPa 0,0 l/m 3,8 km/h (1 Bft) S 191 0 min 0,000 mm 0,0 UV-I 16 W/m -1,1 C -0,1 C 6,4 km/h (2 Bft) 94,00 %
17.02.2017 07:28 -0,1 C 93 % 1024,1 hPa 0,0 l/m 3,2 km/h (1 Bft) S 191 0 min 0,000 mm 0,0 UV-I 18 W/m -1,1 C -0,1 C 6,4 km/h (2 Bft) 88,57 %
17.02.2017 07:30 0,1 C 93 % 1024,2 hPa 0,0 l/m 4,2 km/h (1 Bft) S-SW 192 0 min 0,000 mm 0,0 UV-I 18 W/m -0,9 C 0,1 C 8,0 km/h (2 Bft) 91,49 %
17.02.2017 07:32 0,1 C 93 % 1024,3 hPa 0,0 l/m 4,8 km/h (1 Bft) S-SW 196 0 min 0,000 mm 0,0 UV-I 20 W/m -0,9 C 0,1 C 6,4 km/h (2 Bft) 98,11 %
17.02.2017 07:34 0,2 C 93 % 1024,3 hPa 0,0 l/m 5,6 km/h (1 Bft) S-SW 206 0 min 0,000 mm 0,0 UV-I 24 W/m -0,8 C 0,2 C 8,0 km/h (2 Bft) 97,37 %
17.02.2017 07:36 0,2 C 93 % 1024,3 hPa 0,0 l/m 4,4 km/h (1 Bft) S-SW 206 0 min 0,000 mm 0,0 UV-I 23 W/m -0,8 C 0,2 C 8,0 km/h (2 Bft) 94,34 %
17.02.2017 07:38 0,2 C 93 % 1024,2 hPa 0,0 l/m 3,6 km/h (1 Bft) S-SW 206 0 min 0,000 mm 0,0 UV-I 20 W/m -0,8 C 0,2 C 6,4 km/h (2 Bft) 94,34 %
17.02.2017 07:40 0,3 C 93 % 1024,3 hPa 0,0 l/m 3,8 km/h (1 Bft) S-SW 206 0 min 0,000 mm 0,0 UV-I 18 W/m -0,7 C 0,3 C 4,8 km/h (1 Bft) 93,62 %
17.02.2017 07:42 0,3 C 93 % 1024,3 hPa 0,0 l/m 4,1 km/h (1 Bft) S-SW 206 0 min 0,000 mm 0,0 UV-I 16 W/m -0,7 C 0,3 C 6,4 km/h (2 Bft) 97,37 %
17.02.2017 07:44 0,4 C 92 % 1024,3 hPa 0,0 l/m 5,3 km/h (1 Bft) S-SW 206 0 min 0,000 mm 0,0 UV-I 14 W/m -0,7 C 0,4 C 6,4 km/h (2 Bft) 96,23 %
17.02.2017 07:46 0,4 C 92 % 1024,3 hPa 0,0 l/m 5,2 km/h (1 Bft) SW 226 0 min 0,000 mm 0,0 UV-I 14 W/m -0,7 C 0,4 C 8,0 km/h (2 Bft) 97,73 %
17.02.2017 07:48 0,4 C 92 % 1024,3 hPa 0,0 l/m 6,7 km/h (2 Bft) SW 235 0 min 0,000 mm 0,0 UV-I 15 W/m -0,7 C 0,1 C 8,0 km/h (2 Bft) 95,56 %
17.02.2017 07:50 0,5 C 92 % 1024,4 hPa 0,0 l/m 6,5 km/h (2 Bft) SW 234 0 min 0,000 mm 0,0 UV-I 17 W/m -0,6 C 0,4 C 9,7 km/h (2 Bft) 95,74 %
17.02.2017 07:52 0,5 C 92 % 1024,4 hPa 0,0 l/m 5,3 km/h (1 Bft) SW 225 0 min 0,000 mm 0,0 UV-I 18 W/m -0,6 C 0,5 C 8,0 km/h (2 Bft) 95,74 %
17.02.2017 07:54 0,6 C 92 % 1024,5 hPa 0,0 l/m 8,1 km/h (2 Bft) SW 232 0 min 0,000 mm 0,0 UV-I 18 W/m -0,5 C -1,1 C 11,3 km/h (2 Bft) 96,00 %
17.02.2017 07:56 0,6 C 92 % 1024,5 hPa 0,0 l/m 9,7 km/h (2 Bft) W-SW 244 0 min 0,000 mm 0,0 UV-I 15 W/m -0,5 C -2,5 C 17,7 km/h (3 Bft) 88,00 %
17.02.2017 07:58 0,6 C 92 % 1024,6 hPa 0,0 l/m 9,8 km/h (2 Bft) SW 221 0 min 0,000 mm 0,0 UV-I 12 W/m -0,5 C -2,6 C 16,1 km/h (3 Bft) 100,00 %
17.02.2017 08:00 0,7 C 92 % 1024,6 hPa 0,0 l/m 9,0 km/h (2 Bft) SW 231 0 min 0,000 mm 0,0 UV-I 12 W/m -0,4 C -1,8 C 12,9 km/h (3 Bft) 94,00 %
17.02.2017 08:02 0,7 C 92 % 1024,6 hPa 0,0 l/m 9,7 km/h (2 Bft) SW 224 0 min 0,000 mm 0,0 UV-I 12 W/m -0,4 C -2,4 C 14,5 km/h (3 Bft) 95,12 %
17.02.2017 08:04 0,8 C 92 % 1024,6 hPa 0,0 l/m 11,2 km/h (2 Bft) W-SW 246 0 min 0,000 mm 0,0 UV-I 14 W/m -0,3 C -3,5 C 14,5 km/h (3 Bft) 94,64 %
17.02.2017 08:06 0,8 C 92 % 1024,7 hPa 0,0 l/m 13,1 km/h (3 Bft) SW 233 0 min 0,000 mm 0,0 UV-I 16 W/m -0,3 C -4,8 C 16,1 km/h (3 Bft) 96,00 %
17.02.2017 08:08 0,8 C 92 % 1024,7 hPa 0,0 l/m 10,0 km/h (2 Bft) W-SW 249 0 min 0,000 mm 0,0 UV-I 17 W/m -0,3 C -2,6 C 16,1 km/h (3 Bft) 95,12 %
17.02.2017 08:10 0,9 C 92 % 1024,7 hPa 0,0 l/m 10,3 km/h (2 Bft) W-SW 248 0 min 0,000 mm 0,0 UV-I 17 W/m -0,2 C -2,7 C 16,1 km/h (3 Bft) 95,74 %
17.02.2017 08:12 1,0 C 92 % 1024,8 hPa 0,0 l/m 11,1 km/h (2 Bft) W-SW 250 0 min 0,000 mm 0,0 UV-I 14 W/m -0,2 C -3,2 C 14,5 km/h (3 Bft) 96,00 %
17.02.2017 08:14 1,2 C 92 % 1024,8 hPa 0,0 l/m 11,8 km/h (2 Bft) W-SW 242 0 min 0,000 mm 0,0 UV-I 14 W/m 0,0 C -3,5 C 17,7 km/h (3 Bft) 97,73 %
17.02.2017 08:16 1,3 C 92 % 1024,8 hPa 0,0 l/m 12,6 km/h (3 Bft) W 261 0 min 0,000 mm 0,0 UV-I 12 W/m 0,1 C -3,9 C 16,1 km/h (3 Bft) 98,11 %
17.02.2017 08:18 1,4 C 92 % 1024,9 hPa 0,0 l/m 14,8 km/h (3 Bft) W 273 0 min 0,000 mm 0,0 UV-I 12 W/m 0,2 C -5,2 C 20,9 km/h (4 Bft) 95,45 %
17.02.2017 08:20 1,5 C 92 % 1024,9 hPa 0,0 l/m 13,8 km/h (3 Bft) W-SW 246 0 min 0,000 mm 0,0 UV-I 12 W/m 0,3 C -4,4 C 19,3 km/h (3 Bft) 95,12 %
17.02.2017 08:22 1,6 C 92 % 1024,9 hPa 0,0 l/m 13,4 km/h (3 Bft) W 267 0 min 0,000 mm 0,0 UV-I 12 W/m 0,4 C -4,1 C 20,9 km/h (4 Bft) 94,00 %
17.02.2017 08:24 1,7 C 92 % 1024,9 hPa 0,0 l/m 16,7 km/h (3 Bft) W 262 0 min 0,000 mm 0,0 UV-I 12 W/m 0,5 C -5,9 C 22,5 km/h (4 Bft) 95,74 %
17.02.2017 08:26 1,8 C 92 % 1024,9 hPa 0,0 l/m 13,5 km/h (3 Bft) W-SW 257 0 min 0,000 mm 0,0 UV-I 12 W/m 0,6 C -3,9 C 17,7 km/h (3 Bft) 97,87 %
17.02.2017 08:28 1,8 C 92 % 1024,9 hPa 0,0 l/m 14,0 km/h (3 Bft) W 269 0 min 0,000 mm 0,0 UV-I 12 W/m 0,6 C -4,2 C 19,3 km/h (3 Bft) 97,44 %
17.02.2017 08:30 1,9 C 92 % 1024,9 hPa 0,0 l/m 13,0 km/h (3 Bft) W-SW 251 0 min 0,000 mm 0,0 UV-I 14 W/m 0,7 C -3,5 C 17,7 km/h (3 Bft) 98,00 %
17.02.2017 08:32 2,0 C 92 % 1024,9 hPa 0,0 l/m 10,5 km/h (2 Bft) W-SW 241 0 min 0,000 mm 0,0 UV-I 16 W/m 0,8 C -1,6 C 12,9 km/h (3 Bft) 94,74 %
17.02.2017 08:34 2,0 C 92 % 1024,9 hPa 0,0 l/m 13,3 km/h (3 Bft) W 259 0 min 0,000 mm 0,0 UV-I 16 W/m 0,8 C -3,5 C 19,3 km/h (3 Bft) 96,77 %
17.02.2017 08:36 2,1 C 92 % 1024,9 hPa 0,0 l/m 10,8 km/h (2 Bft) W-SW 246 0 min 0,000 mm 0,0 UV-I 18 W/m 0,9 C -1,7 C 19,3 km/h (3 Bft) 94,74 %
17.02.2017 08:38 2,1 C 92 % 1025,0 hPa 0,0 l/m 9,9 km/h (2 Bft) SW 216 0 min 0,000 mm 0,0 UV-I 21 W/m 0,9 C -1,1 C 14,5 km/h (3 Bft) 98,00 %
17.02.2017 08:40 2,1 C 92 % 1025,0 hPa 0,0 l/m 10,9 km/h (2 Bft) S-SW 209 0 min 0,000 mm 0,0 UV-I 23 W/m 0,9 C -1,8 C 16,1 km/h (3 Bft) 91,67 %
17.02.2017 08:42 2,0 C 92 % 1025,0 hPa 0,0 l/m 9,1 km/h (2 Bft) SW 223 0 min 0,000 mm 0,0 UV-I 24 W/m 0,8 C -0,5 C 14,5 km/h (3 Bft) 98,00 %
17.02.2017 08:44 1,9 C 92 % 1025,0 hPa 0,0 l/m 9,1 km/h (2 Bft) SW 216 0 min 0,000 mm 0,0 UV-I 27 W/m 0,7 C -0,6 C 12,9 km/h (3 Bft) 95,12 %
17.02.2017 08:46 1,9 C 92 % 1025,0 hPa 0,0 l/m 8,3 km/h (2 Bft) S-SW 208 0 min 0,000 mm 0,0 UV-I 34 W/m 0,7 C 0,1 C 12,9 km/h (3 Bft) 96,43 %
17.02.2017 08:48 1,9 C 92 % 1025,0 hPa 0,0 l/m 9,7 km/h (2 Bft) S-SW 207 0 min 0,000 mm 0,0 UV-I 39 W/m 0,7 C -1,1 C 14,5 km/h (3 Bft) 100,00 %
17.02.2017 08:50 2,0 C 92 % 1025,1 hPa 0,0 l/m 9,9 km/h (2 Bft) W-SW 237 0 min 0,000 mm 0,0 UV-I 43 W/m 0,8 C -1,2 C 17,7 km/h (3 Bft) 92,68 %
17.02.2017 08:52 2,1 C 92 % 1025,1 hPa 0,0 l/m 10,7 km/h (2 Bft) W-SW 244 0 min 0,000 mm 0,0 UV-I 45 W/m 0,9 C -1,7 C 16,1 km/h (3 Bft) 96,23 %
17.02.2017 08:54 2,1 C 92 % 1025,2 hPa 0,0 l/m 11,4 km/h (2 Bft) S-SW 206 0 min 0,000 mm 0,0 UV-I 40 W/m 0,9 C -2,2 C 16,1 km/h (3 Bft) 98,00 %
17.02.2017 08:56 2,2 C 92 % 1025,1 hPa 0,0 l/m 10,6 km/h (2 Bft) SW 233 0 min 0,000 mm 0,0 UV-I 35 W/m 1,0 C -1,5 C 17,7 km/h (3 Bft) 100,00 %
17.02.2017 08:58 2,2 C 92 % 1025,2 hPa 0,0 l/m 11,8 km/h (2 Bft) SW 232 0 min 0,000 mm 0,0 UV-I 35 W/m 1,0 C -2,3 C 16,1 km/h (3 Bft) 97,73 %
17.02.2017 09:00 2,3 C 92 % 1025,3 hPa 0,0 l/m 14,3 km/h (3 Bft) W-SW 241 0 min 0,025 mm 0,0 UV-I 30 W/m 1,1 C -3,8 C 20,9 km/h (4 Bft) 98,21 %
17.02.2017 09:02 2,3 C 93 % 1025,3 hPa 0,0 l/m 13,6 km/h (3 Bft) SW 228 0 min 0,000 mm 0,0 UV-I 29 W/m 1,3 C -3,4 C 22,5 km/h (4 Bft) 97,37 %
17.02.2017 09:04 2,4 C 93 % 1025,2 hPa 0,0 l/m 12,6 km/h (3 Bft) SW 236 0 min 0,000 mm 0,0 UV-I 32 W/m 1,4 C -2,6 C 20,9 km/h (4 Bft) 95,24 %
17.02.2017 09:06 2,5 C 93 % 1025,2 hPa 0,0 l/m 13,5 km/h (3 Bft) W-SW 238 0 min 0,000 mm 0,0 UV-I 34 W/m 1,5 C -3,1 C 19,3 km/h (3 Bft) 100,00 %
17.02.2017 09:08 2,6 C 93 % 1025,1 hPa 0,0 l/m 13,4 km/h (3 Bft) SW 215 0 min 0,000 mm 0,0 UV-I 39 W/m 1,6 C -2,9 C 20,9 km/h (4 Bft) 100,00 %
17.02.2017 09:10 2,7 C 93 % 1025,1 hPa 0,0 l/m 12,6 km/h (3 Bft) SW 221 0 min 0,000 mm 0,0 UV-I 43 W/m 1,7 C -2,3 C 17,7 km/h (3 Bft) 100,00 %
17.02.2017 09:12 2,7 C 93 % 1025,2 hPa 0,0 l/m 11,4 km/h (2 Bft) W-SW 248 0 min 0,000 mm 0,0 UV-I 44 W/m 1,7 C -1,5 C 17,7 km/h (3 Bft) 98,11 %
17.02.2017 09:14 2,8 C 93 % 1025,1 hPa 0,0 l/m 12,6 km/h (3 Bft) W-SW 250 0 min 0,000 mm 0,0 UV-I 47 W/m 1,8 C -2,2 C 19,3 km/h (3 Bft) 100,00 %
17.02.2017 09:16 2,9 C 93 % 1025,2 hPa 0,0 l/m 12,5 km/h (3 Bft) W-SW 252 0 min 0,000 mm 0,0 UV-I 53 W/m 1,9 C -2,0 C 19,3 km/h (3 Bft) 100,00 %
17.02.2017 09:18 2,9 C 93 % 1025,2 hPa 0,2 l/m 14,7 km/h (3 Bft) W-SW 246 0 min 0,000 mm 0,0 UV-I 59 W/m 1,9 C -3,3 C 24,1 km/h (4 Bft) 98,00 %
17.02.2017 09:20 2,9 C 93 % 1025,2 hPa 0,0 l/m 12,1 km/h (2 Bft) SW 225 0 min 0,000 mm 0,0 UV-I 63 W/m 1,9 C -1,7 C 17,7 km/h (3 Bft) 100,00 %
17.02.2017 09:22 2,9 C 93 % 1025,2 hPa 0,0 l/m 12,4 km/h (3 Bft) W 267 0 min 0,000 mm 0,0 UV-I 72 W/m 1,9 C -1,9 C 20,9 km/h (4 Bft) 100,00 %
17.02.2017 09:24 3,0 C 93 % 1025,2 hPa 0,0 l/m 11,5 km/h (2 Bft) SW 234 0 min 0,000 mm 0,0 UV-I 79 W/m 2,0 C -1,2 C 17,7 km/h (3 Bft) 100,00 %
17.02.2017 09:26 3,0 C 94 % 1025,2 hPa 0,0 l/m 13,6 km/h (3 Bft) W-SW 252 0 min 0,000 mm 0,0 UV-I 82 W/m 2,1 C -2,5 C 19,3 km/h (3 Bft) 97,56 %
17.02.2017 09:28 3,0 C 94 % 1025,3 hPa 0,2 l/m 12,9 km/h (3 Bft) W-SW 244 0 min 0,000 mm 0,0 UV-I 81 W/m 2,1 C -2,1 C 19,3 km/h (3 Bft) 100,00 %
17.02.2017 09:30 3,0 C 94 % 1025,3 hPa 0,0 l/m 10,7 km/h (2 Bft) W-SW 244 0 min 0,000 mm 0,0 UV-I 79 W/m 2,1 C -0,7 C 16,1 km/h (3 Bft) 97,56 %
17.02.2017 09:32 3,0 C 94 % 1025,3 hPa 0,0 l/m 10,8 km/h (2 Bft) W 281 0 min 0,000 mm 0,0 UV-I 79 W/m 2,1 C -0,7 C 17,7 km/h (3 Bft) 97,56 %
17.02.2017 09:34 3,0 C 94 % 1025,3 hPa 0,0 l/m 11,9 km/h (2 Bft) W-SW 255 0 min 0,000 mm 0,0 UV-I 77 W/m 2,1 C -1,5 C 17,7 km/h (3 Bft) 96,23 %
17.02.2017 09:36 3,0 C 94 % 1025,3 hPa 0,0 l/m 13,0 km/h (3 Bft) W 260 0 min 0,000 mm 0,0 UV-I 73 W/m 2,1 C -2,2 C 17,7 km/h (3 Bft) 98,11 %
17.02.2017 09:38 3,0 C 94 % 1025,3 hPa 0,0 l/m 15,1 km/h (3 Bft) W 261 0 min 0,000 mm 0,0 UV-I 65 W/m 2,1 C -3,4 C 19,3 km/h (3 Bft) 97,37 %
17.02.2017 09:40 3,0 C 94 % 1025,3 hPa 0,0 l/m 11,5 km/h (2 Bft) W 261 0 min 0,000 mm 0,0 UV-I 51 W/m 2,1 C -1,2 C 16,1 km/h (3 Bft) 94,64 %
17.02.2017 09:42 3,0 C 94 % 1025,3 hPa 0,0 l/m 12,9 km/h (3 Bft) W-SW 247 0 min 0,000 mm 0,0 UV-I 49 W/m 2,1 C -2,1 C 22,5 km/h (4 Bft) 97,56 %
17.02.2017 09:44 2,9 C 94 % 1025,3 hPa 0,0 l/m 12,2 km/h (2 Bft) W-SW 248 0 min 0,000 mm 0,0 UV-I 66 W/m 2,0 C -1,8 C 17,7 km/h (3 Bft) 96,23 %
17.02.2017 09:46 2,9 C 94 % 1025,3 hPa 0,0 l/m 12,2 km/h (2 Bft) W-SW 253 0 min 0,000 mm 0,0 UV-I 77 W/m 2,0 C -1,8 C 14,5 km/h (3 Bft) 94,87 %
17.02.2017 09:48 2,9 C 94 % 1025,3 hPa 0,0 l/m 12,6 km/h (3 Bft) W-SW 254 0 min 0,000 mm 0,0 UV-I 80 W/m 2,0 C -2,1 C 17,7 km/h (3 Bft) 96,55 %
17.02.2017 09:50 2,9 C 94 % 1025,2 hPa 0,0 l/m 10,0 km/h (2 Bft) W-SW 258 0 min 0,000 mm 0,0 UV-I 85 W/m 2,0 C -0,2 C 12,9 km/h (3 Bft) 97,44 %
17.02.2017 09:52 2,9 C 94 % 1025,2 hPa 0,0 l/m 8,2 km/h (2 Bft) W 271 0 min 0,000 mm 0,0 UV-I 88 W/m 2,0 C 1,2 C 12,9 km/h (3 Bft) 93,62 %
17.02.2017 09:54 2,9 C 94 % 1025,2 hPa 0,0 l/m 10,4 km/h (2 Bft) W 265 0 min 0,000 mm 0,0 UV-I 92 W/m 2,0 C -0,5 C 16,1 km/h (3 Bft) 98,11 %
17.02.2017 09:56 2,9 C 94 % 1025,2 hPa 0,0 l/m 8,8 km/h (2 Bft) W-SW 248 0 min 0,000 mm 0,0 UV-I 101 W/m 2,0 C 0,7 C 14,5 km/h (3 Bft) 95,74 %
17.02.2017 09:58 2,9 C 94 % 1025,2 hPa 0,0 l/m 10,7 km/h (2 Bft) W 261 0 min 0,000 mm 0,0 UV-I 116 W/m 2,0 C -0,8 C 16,1 km/h (3 Bft) 95,12 %
17.02.2017 10:00 3,0 C 94 % 1025,2 hPa 0,0 l/m 12,1 km/h (2 Bft) W 261 0 min 0,026 mm 0,0 UV-I 128 W/m 2,1 C -1,6 C 16,1 km/h (3 Bft) 93,18 %
17.02.2017 10:02 3,0 C 94 % 1025,1 hPa 0,0 l/m 9,4 km/h (2 Bft) W-SW 250 0 min 0,000 mm 0,0 UV-I 122 W/m 2,1 C 0,3 C 12,9 km/h (3 Bft) 95,12 %
17.02.2017 10:04 3,1 C 94 % 1025,1 hPa 0,0 l/m 9,9 km/h (2 Bft) W-SW 240 0 min 0,000 mm 0,0 UV-I 108 W/m 2,2 C 0,0 C 14,5 km/h (3 Bft) 94,34 %
17.02.2017 10:06 3,1 C 94 % 1025,1 hPa 0,0 l/m 9,7 km/h (2 Bft) W 263 0 min 0,000 mm 0,0 UV-I 105 W/m 2,2 C 0,2 C 16,1 km/h (3 Bft) 98,00 %
17.02.2017 10:08 3,1 C 94 % 1025,1 hPa 0,0 l/m 12,3 km/h (3 Bft) W 261 0 min 0,000 mm 0,0 UV-I 110 W/m 2,2 C -1,6 C 16,1 km/h (3 Bft) 93,62 %
17.02.2017 10:10 3,1 C 94 % 1025,1 hPa 0,0 l/m 12,3 km/h (3 Bft) W-SW 254 0 min 0,000 mm 0,0 UV-I 105 W/m 2,2 C -1,6 C 16,1 km/h (3 Bft) 96,00 %
17.02.2017 10:12 3,1 C 94 % 1025,1 hPa 0,2 l/m 10,3 km/h (2 Bft) W-SW 252 0 min 0,000 mm 0,0 UV-I 92 W/m 2,2 C -0,2 C 14,5 km/h (3 Bft) 96,00 %
17.02.2017 10:14 3,1 C 95 % 1025,2 hPa 0,0 l/m 10,3 km/h (2 Bft) W-SW 237 0 min 0,000 mm 0,0 UV-I 74 W/m 2,4 C -0,2 C 16,1 km/h (3 Bft) 100,00 %
17.02.2017 10:16 3,1 C 94 % 1025,2 hPa 0,0 l/m 11,4 km/h (2 Bft) W-SW 252 0 min 0,000 mm 0,0 UV-I 71 W/m 2,2 C -1,0 C 17,7 km/h (3 Bft) 96,00 %
17.02.2017 10:18 3,1 C 94 % 1025,2 hPa 0,0 l/m 11,1 km/h (2 Bft) W-SW 255 0 min 0,000 mm 0,0 UV-I 76 W/m 2,2 C -0,8 C 14,5 km/h (3 Bft) 97,73 %
17.02.2017 10:20 3,1 C 94 % 1025,2 hPa 0,0 l/m 9,5 km/h (2 Bft) W-SW 243 0 min 0,000 mm 0,0 UV-I 81 W/m 2,2 C 0,4 C 14,5 km/h (3 Bft) 97,87 %
17.02.2017 10:22 3,1 C 95 % 1025,2 hPa 0,0 l/m 10,5 km/h (2 Bft) W 269 0 min 0,000 mm 0,0 UV-I 83 W/m 2,4 C -0,4 C 12,9 km/h (3 Bft) 98,00 %
17.02.2017 10:24 3,1 C 94 % 1025,3 hPa 0,0 l/m 10,1 km/h (2 Bft) W 261 0 min 0,000 mm 0,0 UV-I 86 W/m 2,2 C -0,1 C 12,9 km/h (3 Bft) 98,00 %
17.02.2017 10:26 3,1 C 94 % 1025,3 hPa 0,0 l/m 8,9 km/h (2 Bft) W 261 0 min 0,000 mm 0,0 UV-I 91 W/m 2,2 C 0,8 C 12,9 km/h (3 Bft) 97,56 %
17.02.2017 10:28 3,1 C 95 % 1025,2 hPa 0,0 l/m 8,8 km/h (2 Bft) W 261 0 min 0,000 mm 0,0 UV-I 93 W/m 2,4 C 0,9 C 12,9 km/h (3 Bft) 95,74 %
17.02.2017 10:30 3,2 C 95 % 1025,3 hPa 0,2 l/m 8,6 km/h (2 Bft) W 261 0 min 0,000 mm 0,0 UV-I 96 W/m 2,5 C 1,2 C 12,9 km/h (3 Bft) 97,78 %
17.02.2017 10:32 3,2 C 95 % 1025,2 hPa 0,0 l/m 8,3 km/h (2 Bft) W 262 0 min 0,000 mm 0,0 UV-I 113 W/m 2,5 C 1,5 C 11,3 km/h (2 Bft) 97,56 %
17.02.2017 10:34 3,2 C 95 % 1025,3 hPa 0,0 l/m 6,4 km/h (2 Bft) W-SW 256 0 min 0,000 mm 0,0 UV-I 143 W/m 2,5 C 3,2 C 9,7 km/h (2 Bft) 96,61 %
17.02.2017 10:36 3,2 C 95 % 1025,3 hPa 0,0 l/m 4,8 km/h (1 Bft) W-SW 252 0 min 0,000 mm 0,0 UV-I 138 W/m 2,5 C 3,2 C 6,4 km/h (2 Bft) 100,00 %
17.02.2017 10:38 3,3 C 95 % 1025,2 hPa 0,0 l/m 5,5 km/h (1 Bft) W 264 0 min 0,000 mm 0,0 UV-I 115 W/m 2,6 C 3,3 C 9,7 km/h (2 Bft) 97,87 %
17.02.2017 10:40 3,3 C 95 % 1025,2 hPa 0,0 l/m 5,6 km/h (1 Bft) W-SW 254 0 min 0,000 mm 0,0 UV-I 94 W/m 2,6 C 3,3 C 8,0 km/h (2 Bft) 100,00 %
17.02.2017 10:42 3,3 C 95 % 1025,2 hPa 0,0 l/m 5,2 km/h (1 Bft) W 264 0 min 0,000 mm 0,0 UV-I 85 W/m 2,6 C 3,3 C 8,0 km/h (2 Bft) 96,00 %
17.02.2017 10:44 3,3 C 95 % 1025,3 hPa 0,0 l/m 6,0 km/h (2 Bft) W-SW 255 0 min 0,000 mm 0,0 UV-I 76 W/m 2,6 C 3,3 C 8,0 km/h (2 Bft) 97,73 %
17.02.2017 10:46 3,3 C 95 % 1025,3 hPa 0,0 l/m 6,8 km/h (2 Bft) SW 227 0 min 0,000 mm 0,0 UV-I 67 W/m 2,6 C 2,9 C 11,3 km/h (2 Bft) 100,00 %
17.02.2017 10:48 3,3 C 95 % 1025,3 hPa 0,0 l/m 6,5 km/h (2 Bft) W-SW 247 0 min 0,000 mm 0,0 UV-I 63 W/m 2,6 C 3,2 C 11,3 km/h (2 Bft) 100,00 %
17.02.2017 10:50 3,3 C 95 % 1025,3 hPa 0,0 l/m 7,9 km/h (2 Bft) W-SW 238 0 min 0,000 mm 0,0 UV-I 69 W/m 2,6 C 1,9 C 11,3 km/h (2 Bft) 98,00 %
17.02.2017 10:52 3,3 C 95 % 1025,3 hPa 0,2 l/m 9,0 km/h (2 Bft) W-SW 251 0 min 0,000 mm 0,0 UV-I 77 W/m 2,6 C 1,0 C 14,5 km/h (3 Bft) 98,00 %
17.02.2017 10:54 3,3 C 95 % 1025,3 hPa 0,0 l/m 9,5 km/h (2 Bft) W 261 0 min 0,000 mm 0,0 UV-I 81 W/m 2,6 C 0,6 C 12,9 km/h (3 Bft) 97,14 %
17.02.2017 10:56 3,3 C 95 % 1025,3 hPa 0,0 l/m 9,0 km/h (2 Bft) W-SW 245 0 min 0,000 mm 0,0 UV-I 86 W/m 2,6 C 1,0 C 12,9 km/h (3 Bft) 96,43 %
17.02.2017 10:58 3,3 C 95 % 1025,3 hPa 0,0 l/m 6,8 km/h (2 Bft) W 263 0 min 0,000 mm 0,0 UV-I 94 W/m 2,6 C 2,9 C 11,3 km/h (2 Bft) 95,12 %
17.02.2017 11:00 3,3 C 95 % 1025,3 hPa 0,0 l/m 7,4 km/h (2 Bft) W-SW 258 0 min 0,000 mm 0,0 UV-I 99 W/m 2,6 C 2,4 C 11,3 km/h (2 Bft) 97,73 %
17.02.2017 11:02 3,3 C 95 % 1025,3 hPa 0,2 l/m 6,4 km/h (2 Bft) W-SW 246 0 min 0,025 mm 0,0 UV-I 98 W/m 2,6 C 3,3 C 11,3 km/h (2 Bft) 98,11 %
17.02.2017 11:04 3,3 C 95 % 1025,3 hPa 0,0 l/m 6,5 km/h (2 Bft) W-SW 238 0 min 0,000 mm 0,0 UV-I 96 W/m 2,6 C 3,2 C 11,3 km/h (2 Bft) 97,73 %
17.02.2017 11:06 3,3 C 95 % 1025,3 hPa 0,0 l/m 7,1 km/h (2 Bft) SW 227 0 min 0,000 mm 0,0 UV-I 93 W/m 2,6 C 2,6 C 9,7 km/h (2 Bft) 97,92 %
17.02.2017 11:08 3,3 C 95 % 1025,3 hPa 0,0 l/m 7,0 km/h (2 Bft) SW 219 0 min 0,000 mm 0,0 UV-I 94 W/m 2,6 C 2,7 C 9,7 km/h (2 Bft) 100,00 %
17.02.2017 11:10 3,3 C 95 % 1025,2 hPa 0,0 l/m 8,5 km/h (2 Bft) SW 235 0 min 0,000 mm 0,0 UV-I 99 W/m 2,6 C 1,4 C 12,9 km/h (3 Bft) 97,56 %
17.02.2017 11:12 3,3 C 95 % 1025,2 hPa 0,0 l/m 7,5 km/h (2 Bft) W-SW 248 0 min 0,000 mm 0,0 UV-I 102 W/m 2,6 C 2,3 C 11,3 km/h (2 Bft) 100,00 %
17.02.2017 11:14 3,3 C 95 % 1025,2 hPa 0,0 l/m 9,5 km/h (2 Bft) SW 234 0 min 0,000 mm 0,0 UV-I 98 W/m 2,6 C 0,6 C 14,5 km/h (3 Bft) 98,21 %
17.02.2017 11:16 3,3 C 95 % 1025,1 hPa 0,0 l/m 9,3 km/h (2 Bft) W-SW 248 0 min 0,000 mm 0,0 UV-I 97 W/m 2,6 C 0,7 C 14,5 km/h (3 Bft) 98,11 %
17.02.2017 11:18 3,3 C 96 % 1025,2 hPa 0,0 l/m 10,5 km/h (2 Bft) W-SW 244 0 min 0,000 mm 0,0 UV-I 101 W/m 2,7 C -0,2 C 14,5 km/h (3 Bft) 95,12 %
17.02.2017 11:20 3,3 C 96 % 1025,1 hPa 0,0 l/m 12,7 km/h (3 Bft) SW 230 0 min 0,000 mm 0,0 UV-I 114 W/m 2,7 C -1,6 C 19,3 km/h (3 Bft) 100,00 %
17.02.2017 11:22 3,4 C 96 % 1025,1 hPa 0,2 l/m 12,4 km/h (3 Bft) W-SW 242 0 min 0,000 mm 0,2 UV-I 129 W/m 2,8 C -1,3 C 17,7 km/h (3 Bft) 95,74 %
17.02.2017 11:24 3,4 C 96 % 1025,1 hPa 0,0 l/m 13,2 km/h (3 Bft) SW 233 0 min 0,000 mm 0,5 UV-I 135 W/m 2,8 C -1,8 C 19,3 km/h (3 Bft) 100,00 %
17.02.2017 11:26 3,5 C 96 % 1025,1 hPa 0,0 l/m 14,7 km/h (3 Bft) SW 229 0 min 0,000 mm 0,5 UV-I 132 W/m 2,9 C -2,6 C 19,3 km/h (3 Bft) 98,11 %
17.02.2017 11:28 3,5 C 96 % 1025,1 hPa 0,0 l/m 11,8 km/h (2 Bft) SW 228 0 min 0,000 mm 0,5 UV-I 132 W/m 2,9 C -0,8 C 17,7 km/h (3 Bft) 100,00 %
17.02.2017 11:30 3,6 C 96 % 1025,0 hPa 0,0 l/m 13,0 km/h (3 Bft) SW 227 0 min 0,000 mm 0,5 UV-I 145 W/m 3,0 C -1,5 C 17,7 km/h (3 Bft) 100,00 %
17.02.2017 11:32 3,6 C 96 % 1024,9 hPa 0,0 l/m 12,5 km/h (3 Bft) SW 233 0 min 0,000 mm 0,5 UV-I 162 W/m 3,0 C -1,2 C 17,7 km/h (3 Bft) 94,34 %
17.02.2017 11:34 3,6 C 96 % 1024,9 hPa 0,0 l/m 12,1 km/h (2 Bft) SW 232 0 min 0,000 mm 0,5 UV-I 172 W/m 3,0 C -0,9 C 17,7 km/h (3 Bft) 98,11 %
17.02.2017 11:36 3,6 C 96 % 1024,9 hPa 0,2 l/m 11,2 km/h (2 Bft) W-SW 250 0 min 0,000 mm 0,5 UV-I 170 W/m 3,0 C -0,3 C 17,7 km/h (3 Bft) 97,87 %
17.02.2017 11:38 3,7 C 96 % 1024,9 hPa 0,0 l/m 11,7 km/h (2 Bft) SW 219 0 min 0,000 mm 0,5 UV-I 173 W/m 3,1 C -0,5 C 16,1 km/h (3 Bft) 97,37 %
17.02.2017 11:40 3,7 C 96 % 1024,9 hPa 0,0 l/m 11,4 km/h (2 Bft) SW 228 0 min 0,000 mm 0,6 UV-I 182 W/m 3,1 C -0,3 C 16,1 km/h (3 Bft) 97,56 %
17.02.2017 11:42 3,7 C 96 % 1024,9 hPa 0,0 l/m 12,3 km/h (3 Bft) SW 232 0 min 0,000 mm 0,6 UV-I 199 W/m 3,1 C -0,9 C 16,1 km/h (3 Bft) 92,86 %
17.02.2017 11:44 3,7 C 96 % 1024,9 hPa 0,0 l/m 11,9 km/h (2 Bft) W-SW 237 0 min 0,000 mm 0,6 UV-I 205 W/m 3,1 C -0,7 C 17,7 km/h (3 Bft) 98,11 %
17.02.2017 11:46 3,8 C 96 % 1024,9 hPa 0,0 l/m 13,4 km/h (3 Bft) SW 227 0 min 0,000 mm 0,6 UV-I 204 W/m 3,2 C -1,5 C 17,7 km/h (3 Bft) 97,56 %
17.02.2017 11:48 3,8 C 96 % 1024,9 hPa 0,0 l/m 11,4 km/h (2 Bft) SW 228 0 min 0,000 mm 0,6 UV-I 199 W/m 3,2 C -0,2 C 14,5 km/h (3 Bft) 96,23 %
17.02.2017 11:50 3,8 C 96 % 1024,9 hPa 0,0 l/m 14,0 km/h (3 Bft) SW 232 0 min 0,000 mm 0,6 UV-I 191 W/m 3,2 C -1,8 C 22,5 km/h (4 Bft) 97,22 %
17.02.2017 11:52 3,8 C 96 % 1024,9 hPa 0,0 l/m 14,0 km/h (3 Bft) SW 234 0 min 0,000 mm 0,6 UV-I 178 W/m 3,2 C -1,8 C 19,3 km/h (3 Bft) 96,49 %
17.02.2017 11:54 3,8 C 96 % 1024,8 hPa 0,2 l/m 12,7 km/h (3 Bft) W-SW 238 0 min 0,000 mm 0,6 UV-I 166 W/m 3,2 C -1,1 C 17,7 km/h (3 Bft) 95,45 %
17.02.2017 11:56 3,8 C 96 % 1024,8 hPa 0,0 l/m 12,5 km/h (3 Bft) W-SW 238 0 min 0,000 mm 0,5 UV-I 155 W/m 3,2 C -0,9 C 17,7 km/h (3 Bft) 96,00 %
17.02.2017 11:58 3,8 C 96 % 1024,8 hPa 0,0 l/m 9,8 km/h (2 Bft) SW 221 0 min 0,000 mm 0,5 UV-I 154 W/m 3,2 C 0,9 C 12,9 km/h (3 Bft) 94,74 %
17.02.2017 12:00 3,8 C 96 % 1024,8 hPa 0,0 l/m 10,0 km/h (2 Bft) SW 225 0 min 0,000 mm 0,5 UV-I 158 W/m 3,2 C 0,7 C 16,1 km/h (3 Bft) 95,12 %
17.02.2017 12:02 3,8 C 96 % 1024,8 hPa 0,0 l/m 10,4 km/h (2 Bft) W-SW 248 0 min 0,051 mm 0,5 UV-I 164 W/m 3,2 C 0,5 C 16,1 km/h (3 Bft) 98,11 %
17.02.2017 12:04 3,8 C 96 % 1024,8 hPa 0,0 l/m 9,8 km/h (2 Bft) S-SW 212 0 min 0,000 mm 0,5 UV-I 155 W/m 3,2 C 0,9 C 14,5 km/h (3 Bft) 92,45 %
17.02.2017 12:06 3,8 C 96 % 1024,7 hPa 0,0 l/m 10,7 km/h (2 Bft) SW 227 0 min 0,000 mm 0,5 UV-I 149 W/m 3,2 C 0,2 C 16,1 km/h (3 Bft) 96,55 %
17.02.2017 12:08 3,8 C 96 % 1024,7 hPa 0,2 l/m 10,1 km/h (2 Bft) W-SW 245 0 min 0,000 mm 0,6 UV-I 164 W/m 3,2 C 0,7 C 16,1 km/h (3 Bft) 97,06 %
17.02.2017 12:10 3,9 C 96 % 1024,6 hPa 0,0 l/m 11,8 km/h (2 Bft) S-SW 213 0 min 0,000 mm 0,6 UV-I 182 W/m 3,3 C -0,4 C 16,1 km/h (3 Bft) 97,56 %
17.02.2017 12:12 3,9 C 96 % 1024,6 hPa 0,0 l/m 10,1 km/h (2 Bft) SW 232 0 min 0,000 mm 0,6 UV-I 184 W/m 3,3 C 0,8 C 14,5 km/h (3 Bft) 95,74 %
17.02.2017 12:14 3,9 C 96 % 1024,6 hPa 0,0 l/m 11,6 km/h (2 Bft) SW 227 0 min 0,000 mm 0,6 UV-I 186 W/m 3,3 C -0,3 C 16,1 km/h (3 Bft) 100,00 %
17.02.2017 12:16 3,9 C 96 % 1024,6 hPa 0,0 l/m 11,8 km/h (2 Bft) W-SW 237 0 min 0,000 mm 0,6 UV-I 193 W/m 3,3 C -0,4 C 19,3 km/h (3 Bft) 96,49 %
17.02.2017 12:18 4,0 C 96 % 1024,6 hPa 0,0 l/m 9,9 km/h (2 Bft) SW 227 0 min 0,000 mm 0,6 UV-I 203 W/m 3,4 C 1,0 C 16,1 km/h (3 Bft) 97,56 %
17.02.2017 12:20 4,0 C 96 % 1024,5 hPa 0,0 l/m 10,1 km/h (2 Bft) W-SW 242 0 min 0,000 mm 0,6 UV-I 212 W/m 3,4 C 0,9 C 14,5 km/h (3 Bft) 93,62 %
17.02.2017 12:22 4,1 C 96 % 1024,4 hPa 0,0 l/m 9,9 km/h (2 Bft) W-SW 254 0 min 0,000 mm 0,6 UV-I 195 W/m 3,5 C 1,2 C 14,5 km/h (3 Bft) 98,00 %
17.02.2017 12:24 4,1 C 95 % 1024,5 hPa 0,0 l/m 9,5 km/h (2 Bft) SW 217 0 min 0,000 mm 0,5 UV-I 170 W/m 3,4 C 1,4 C 16,1 km/h (3 Bft) 98,00 %
17.02.2017 12:26 4,1 C 96 % 1024,4 hPa 0,0 l/m 8,0 km/h (2 Bft) W-SW 250 0 min 0,000 mm 0,5 UV-I 152 W/m 3,5 C 2,7 C 12,9 km/h (3 Bft) 100,00 %
17.02.2017 12:28 4,1 C 96 % 1024,4 hPa 0,0 l/m 9,9 km/h (2 Bft) W-SW 242 0 min 0,000 mm 0,5 UV-I 136 W/m 3,5 C 1,2 C 14,5 km/h (3 Bft) 98,00 %
17.02.2017 12:30 4,1 C 95 % 1024,4 hPa 0,0 l/m 9,0 km/h (2 Bft) SW 235 0 min 0,000 mm 0,5 UV-I 130 W/m 3,4 C 1,8 C 16,1 km/h (3 Bft) 100,00 %
17.02.2017 12:32 4,1 C 95 % 1024,4 hPa 0,0 l/m 8,4 km/h (2 Bft) S-SW 211 0 min 0,000 mm 0,5 UV-I 132 W/m 3,4 C 2,3 C 12,9 km/h (3 Bft) 96,00 %
17.02.2017 12:34 4,1 C 95 % 1024,4 hPa 0,0 l/m 8,1 km/h (2 Bft) SW 234 0 min 0,000 mm 0,5 UV-I 134 W/m 3,4 C 2,6 C 11,3 km/h (2 Bft) 91,84 %
17.02.2017 12:36 4,1 C 96 % 1024,4 hPa 0,0 l/m 8,6 km/h (2 Bft) W-SW 245 0 min 0,000 mm 0,5 UV-I 130 W/m 3,5 C 2,2 C 12,9 km/h (3 Bft) 100,00 %
17.02.2017 12:38 4,1 C 96 % 1024,3 hPa 0,0 l/m 8,3 km/h (2 Bft) SW 234 0 min 0,000 mm 0,5 UV-I 127 W/m 3,5 C 2,4 C 11,3 km/h (2 Bft) 97,56 %
17.02.2017 12:40 4,1 C 96 % 1024,3 hPa 0,0 l/m 6,4 km/h (2 Bft) W-SW 255 0 min 0,000 mm 0,5 UV-I 127 W/m 3,5 C 4,1 C 9,7 km/h (2 Bft) 100,00 %
17.02.2017 12:42 4,2 C 96 % 1024,3 hPa 0,0 l/m 5,8 km/h (2 Bft) SW 227 0 min 0,000 mm 0,0 UV-I 123 W/m 3,6 C 4,2 C 12,9 km/h (3 Bft) 96,43 %
17.02.2017 12:44 4,2 C 96 % 1024,3 hPa 0,0 l/m 8,3 km/h (2 Bft) SW 228 0 min 0,000 mm 0,0 UV-I 120 W/m 3,6 C 2,5 C 12,9 km/h (3 Bft) 98,11 %
17.02.2017 12:46 4,2 C 96 % 1024,2 hPa 0,0 l/m 5,9 km/h (2 Bft) W-SW 237 0 min 0,000 mm 0,3 UV-I 129 W/m 3,6 C 4,2 C 8,0 km/h (2 Bft) 100,00 %
17.02.2017 12:48 4,1 C 95 % 1024,2 hPa 0,0 l/m 6,6 km/h (2 Bft) SW 220 0 min 0,000 mm 0,5 UV-I 142 W/m 3,4 C 3,9 C 12,9 km/h (3 Bft) 96,77 %
17.02.2017 12:50 4,2 C 96 % 1024,2 hPa 0,0 l/m 6,3 km/h (2 Bft) SW 224 0 min 0,000 mm 0,5 UV-I 137 W/m 3,6 C 4,2 C 11,3 km/h (2 Bft) 100,00 %
17.02.2017 12:52 4,2 C 96 % 1024,2 hPa 0,2 l/m 5,8 km/h (2 Bft) SW 220 0 min 0,000 mm 0,0 UV-I 121 W/m 3,6 C 4,2 C 11,3 km/h (2 Bft) 98,00 %
17.02.2017 12:54 4,2 C 96 % 1024,1 hPa 0,0 l/m 6,4 km/h (2 Bft) W-SW 246 0 min 0,000 mm 0,0 UV-I 117 W/m 3,6 C 4,2 C 11,3 km/h (2 Bft) 95,12 %
17.02.2017 12:56 4,2 C 96 % 1024,2 hPa 0,0 l/m 8,0 km/h (2 Bft) SW 231 0 min 0,000 mm 0,0 UV-I 109 W/m 3,6 C 2,8 C 12,9 km/h (3 Bft) 96,23 %
17.02.2017 12:58 4,2 C 96 % 1024,2 hPa 0,0 l/m 9,2 km/h (2 Bft) W-SW 238 0 min 0,000 mm 0,0 UV-I 99 W/m 3,6 C 1,8 C 14,5 km/h (3 Bft) 97,73 %
17.02.2017 13:00 4,2 C 96 % 1024,2 hPa 0,0 l/m 8,9 km/h (2 Bft) SW 232 0 min 0,000 mm 0,0 UV-I 90 W/m 3,6 C 2,0 C 12,9 km/h (3 Bft) 100,00 %
17.02.2017 13:02 4,1 C 96 % 1024,1 hPa 0,0 l/m 7,0 km/h (2 Bft) W-SW 239 0 min 0,051 mm 0,0 UV-I 85 W/m 3,5 C 3,6 C 9,7 km/h (2 Bft) 96,23 %
17.02.2017 13:04 4,2 C 96 % 1024,2 hPa 0,0 l/m 6,6 km/h (2 Bft) W 259 0 min 0,000 mm 0,0 UV-I 80 W/m 3,6 C 4,0 C 11,3 km/h (2 Bft) 100,00 %
17.02.2017 13:06 4,2 C 96 % 1024,2 hPa 0,0 l/m 7,5 km/h (2 Bft) SW 229 0 min 0,000 mm 0,0 UV-I 72 W/m 3,6 C 3,2 C 11,3 km/h (2 Bft) 100,00 %
17.02.2017 13:08 4,1 C 96 % 1024,2 hPa 0,0 l/m 7,6 km/h (2 Bft) W-SW 258 0 min 0,000 mm 0,0 UV-I 69 W/m 3,5 C 3,0 C 12,9 km/h (3 Bft) 97,56 %
17.02.2017 13:10 4,1 C 96 % 1024,2 hPa 0,0 l/m 7,2 km/h (2 Bft) W-SW 244 0 min 0,000 mm 0,0 UV-I 70 W/m 3,5 C 3,4 C 11,3 km/h (2 Bft) 100,00 %
17.02.2017 13:12 4,1 C 96 % 1024,2 hPa 0,0 l/m 6,4 km/h (2 Bft) W-SW 244 0 min 0,000 mm 0,0 UV-I 69 W/m 3,5 C 4,1 C 9,7 km/h (2 Bft) 100,00 %
17.02.2017 13:14 4,1 C 96 % 1024,2 hPa 0,2 l/m 7,1 km/h (2 Bft) SW 221 0 min 0,000 mm 0,0 UV-I 67 W/m 3,5 C 3,5 C 11,3 km/h (2 Bft) 100,00 %
17.02.2017 13:16 4,1 C 96 % 1024,2 hPa 0,0 l/m 7,8 km/h (2 Bft) SW 215 0 min 0,000 mm 0,0 UV-I 62 W/m 3,5 C 2,8 C 12,9 km/h (3 Bft) 98,46 %
17.02.2017 13:18 4,1 C 96 % 1024,2 hPa 0,0 l/m 10,1 km/h (2 Bft) W-SW 240 0 min 0,000 mm 0,0 UV-I 58 W/m 3,5 C 1,0 C 14,5 km/h (3 Bft) 97,87 %
17.02.2017 13:20 4,1 C 96 % 1024,2 hPa 0,0 l/m 9,1 km/h (2 Bft) SW 227 0 min 0,000 mm 0,0 UV-I 59 W/m 3,5 C 1,8 C 12,9 km/h (3 Bft) 100,00 %
17.02.2017 13:22 4,1 C 96 % 1024,2 hPa 0,0 l/m 7,0 km/h (2 Bft) W 269 0 min 0,000 mm 0,0 UV-I 53 W/m 3,5 C 3,6 C 11,3 km/h (2 Bft) 100,00 %
17.02.2017 13:24 4,1 C 96 % 1024,2 hPa 0,0 l/m 8,8 km/h (2 Bft) W-SW 257 0 min 0,000 mm 0,0 UV-I 60 W/m 3,5 C 2,0 C 14,5 km/h (3 Bft) 100,00 %
17.02.2017 13:26 4,1 C 96 % 1024,2 hPa 0,0 l/m 7,2 km/h (2 Bft) W 277 0 min 0,000 mm 0,0 UV-I 53 W/m 3,5 C 3,4 C 12,9 km/h (3 Bft) 100,00 %
17.02.2017 13:28 4,1 C 96 % 1024,2 hPa 0,0 l/m 7,6 km/h (2 Bft) SW 236 0 min 0,000 mm 0,0 UV-I 59 W/m 3,5 C 3,0 C 17,7 km/h (3 Bft) 100,00 %
17.02.2017 13:30 4,1 C 96 % 1024,2 hPa 0,2 l/m 13,3 km/h (3 Bft) W 270 0 min 0,000 mm 0,0 UV-I 63 W/m 3,5 C -1,1 C 19,3 km/h (3 Bft) 97,87 %
17.02.2017 13:32 4,1 C 96 % 1024,2 hPa 0,0 l/m 10,5 km/h (2 Bft) W 259 0 min 0,000 mm 0,0 UV-I 61 W/m 3,5 C 0,7 C 14,5 km/h (3 Bft) 97,37 %
17.02.2017 13:34 4,1 C 96 % 1024,2 hPa 0,0 l/m 14,2 km/h (3 Bft) W-SW 244 0 min 0,000 mm 0,0 UV-I 58 W/m 3,5 C -1,6 C 22,5 km/h (4 Bft) 95,74 %
17.02.2017 13:36 4,1 C 96 % 1024,2 hPa 0,2 l/m 12,3 km/h (3 Bft) SW 227 0 min 0,000 mm 0,0 UV-I 56 W/m 3,5 C -0,5 C 16,1 km/h (3 Bft) 92,45 %
17.02.2017 13:38 4,1 C 96 % 1024,2 hPa 0,0 l/m 12,2 km/h (2 Bft) W-SW 254 0 min 0,000 mm 0,0 UV-I 55 W/m 3,5 C -0,4 C 17,7 km/h (3 Bft) 94,74 %
17.02.2017 13:40 4,1 C 96 % 1024,2 hPa 0,0 l/m 15,6 km/h (3 Bft) W-SW 250 0 min 0,000 mm 0,0 UV-I 55 W/m 3,5 C -2,3 C 20,9 km/h (4 Bft) 97,62 %
17.02.2017 13:42 4,0 C 96 % 1024,2 hPa 0,0 l/m 13,0 km/h (3 Bft) W-SW 256 0 min 0,000 mm 0,0 UV-I 50 W/m 3,4 C -1,0 C 17,7 km/h (3 Bft) 94,00 %
17.02.2017 13:44 4,0 C 96 % 1024,2 hPa 0,2 l/m 15,3 km/h (3 Bft) W-SW 257 0 min 0,000 mm 0,0 UV-I 46 W/m 3,4 C -2,3 C 20,9 km/h (4 Bft) 95,08 %
17.02.2017 13:46 4,0 C 96 % 1024,3 hPa 0,0 l/m 11,7 km/h (2 Bft) W 261 0 min 0,000 mm 0,0 UV-I 51 W/m 3,4 C -0,2 C 16,1 km/h (3 Bft) 92,31 %
17.02.2017 13:48 3,9 C 96 % 1024,3 hPa 0,2 l/m 17,1 km/h (3 Bft) W-SW 247 0 min 0,000 mm 0,0 UV-I 54 W/m 3,3 C -3,3 C 24,1 km/h (4 Bft) 94,00 %
17.02.2017 13:50 3,9 C 96 % 1024,3 hPa 0,0 l/m 19,6 km/h (3 Bft) W-SW 250 0 min 0,000 mm 0,0 UV-I 54 W/m 3,3 C -4,4 C 30,6 km/h (5 Bft) 95,74 %
17.02.2017 13:52 3,8 C 95 % 1024,4 hPa 0,0 l/m 12,7 km/h (3 Bft) W 265 0 min 0,000 mm 0,0 UV-I 56 W/m 3,1 C -1,1 C 20,9 km/h (4 Bft) 96,23 %
17.02.2017 13:54 3,8 C 95 % 1024,3 hPa 0,0 l/m 14,0 km/h (3 Bft) W-SW 242 0 min 0,000 mm 0,0 UV-I 63 W/m 3,1 C -1,8 C 24,1 km/h (4 Bft) 93,18 %
17.02.2017 13:56 3,8 C 95 % 1024,3 hPa 0,2 l/m 16,2 km/h (3 Bft) W 275 0 min 0,000 mm 0,0 UV-I 65 W/m 3,1 C -3,0 C 24,1 km/h (4 Bft) 92,68 %
17.02.2017 13:58 3,8 C 95 % 1024,2 hPa 0,0 l/m 11,3 km/h (2 Bft) W-SW 248 0 min 0,000 mm 0,0 UV-I 67 W/m 3,1 C -0,2 C 17,7 km/h (3 Bft) 92,45 %
17.02.2017 14:00 3,7 C 95 % 1024,2 hPa 0,0 l/m 12,7 km/h (3 Bft) W-SW 248 0 min 0,025 mm 0,0 UV-I 68 W/m 3,0 C -1,2 C 16,1 km/h (3 Bft) 92,11 %
17.02.2017 14:02 3,7 C 95 % 1024,2 hPa 0,2 l/m 13,3 km/h (3 Bft) W-SW 250 0 min 0,000 mm 0,0 UV-I 67 W/m 3,0 C -1,5 C 17,7 km/h (3 Bft) 94,34 %
17.02.2017 14:04 3,7 C 95 % 1024,2 hPa 0,0 l/m 13,9 km/h (3 Bft) W 274 0 min 0,000 mm 0,0 UV-I 69 W/m 3,0 C -1,9 C 17,7 km/h (3 Bft) 93,18 %
17.02.2017 14:06 3,7 C 95 % 1024,2 hPa 0,0 l/m 12,8 km/h (3 Bft) W 259 0 min 0,000 mm 0,0 UV-I 70 W/m 3,0 C -1,2 C 16,1 km/h (3 Bft) 93,18 %
17.02.2017 14:08 3,7 C 95 % 1024,2 hPa 0,0 l/m 11,7 km/h (2 Bft) W 259 0 min 0,000 mm 0,0 UV-I 70 W/m 3,0 C -0,5 C 17,7 km/h (3 Bft) 96,00 %
17.02.2017 14:10 3,7 C 95 % 1024,2 hPa 0,0 l/m 13,3 km/h (3 Bft) W-SW 246 0 min 0,000 mm 0,0 UV-I 69 W/m 3,0 C -1,5 C 19,3 km/h (3 Bft) 94,34 %
17.02.2017 14:12 3,7 C 95 % 1024,2 hPa 0,0 l/m 13,2 km/h (3 Bft) SW 233 0 min 0,000 mm 0,0 UV-I 69 W/m 3,0 C -1,5 C 19,3 km/h (3 Bft) 94,74 %
17.02.2017 14:14 3,7 C 95 % 1024,2 hPa 0,0 l/m 14,7 km/h (3 Bft) SW 234 0 min 0,000 mm 0,0 UV-I 71 W/m 3,0 C -2,3 C 24,1 km/h (4 Bft) 100,00 %
17.02.2017 14:16 3,6 C 95 % 1024,2 hPa 0,0 l/m 9,8 km/h (2 Bft) W-SW 243 0 min 0,000 mm 0,0 UV-I 72 W/m 2,9 C 0,7 C 14,5 km/h (3 Bft) 94,74 %
17.02.2017 14:18 3,6 C 95 % 1024,2 hPa 0,0 l/m 12,8 km/h (3 Bft) W-SW 255 0 min 0,000 mm 0,0 UV-I 72 W/m 2,9 C -1,4 C 17,7 km/h (3 Bft) 100,00 %
17.02.2017 14:20 3,6 C 95 % 1024,2 hPa 0,0 l/m 11,4 km/h (2 Bft) W-SW 250 0 min 0,000 mm 0,0 UV-I 70 W/m 2,9 C -0,5 C 14,5 km/h (3 Bft) 100,00 %
17.02.2017 14:22 3,6 C 95 % 1024,2 hPa 0,0 l/m 10,9 km/h (2 Bft) W 267 0 min 0,000 mm 0,0 UV-I 69 W/m 2,9 C -0,1 C 16,1 km/h (3 Bft) 97,56 %
17.02.2017 14:24 3,6 C 95 % 1024,2 hPa 0,0 l/m 10,9 km/h (2 Bft) W-SW 253 0 min 0,000 mm 0,0 UV-I 70 W/m 2,9 C -0,1 C 17,7 km/h (3 Bft) 93,33 %
17.02.2017 14:26 3,5 C 95 % 1024,2 hPa 0,2 l/m 9,7 km/h (2 Bft) W-SW 255 0 min 0,000 mm 0,0 UV-I 77 W/m 2,8 C 0,6 C 14,5 km/h (3 Bft) 100,00 %
17.02.2017 14:28 3,5 C 95 % 1024,3 hPa 0,0 l/m 10,0 km/h (2 Bft) W-SW 242 0 min 0,000 mm 0,0 UV-I 79 W/m 2,8 C 0,4 C 12,9 km/h (3 Bft) 98,21 %
17.02.2017 14:30 3,5 C 95 % 1024,3 hPa 0,0 l/m 10,5 km/h (2 Bft) SW 228 0 min 0,000 mm 0,0 UV-I 81 W/m 2,8 C 0,1 C 14,5 km/h (3 Bft) 95,45 %
17.02.2017 14:32 3,5 C 95 % 1024,3 hPa 0,0 l/m 11,3 km/h (2 Bft) SW 227 0 min 0,000 mm 0,0 UV-I 79 W/m 2,8 C -0,5 C 14,5 km/h (3 Bft) 95,45 %
17.02.2017 14:34 3,5 C 95 % 1024,3 hPa 0,0 l/m 10,1 km/h (2 Bft) SW 227 0 min 0,000 mm 0,0 UV-I 74 W/m 2,8 C 0,3 C 14,5 km/h (3 Bft) 96,00 %
17.02.2017 14:36 3,5 C 95 % 1024,4 hPa 0,0 l/m 11,5 km/h (2 Bft) W 265 0 min 0,000 mm 0,0 UV-I 70 W/m 2,8 C -0,6 C 19,3 km/h (3 Bft) 94,00 %
17.02.2017 14:38 3,5 C 95 % 1024,4 hPa 0,0 l/m 9,3 km/h (2 Bft) SW 229 0 min 0,000 mm 0,0 UV-I 65 W/m 2,8 C 1,0 C 16,1 km/h (3 Bft) 97,56 %
17.02.2017 14:40 3,4 C 95 % 1024,4 hPa 0,0 l/m 11,7 km/h (2 Bft) S-SW 198 0 min 0,000 mm 0,0 UV-I 63 W/m 2,7 C -0,9 C 16,1 km/h (3 Bft) 98,21 %
17.02.2017 14:42 3,4 C 95 % 1024,4 hPa 0,0 l/m 10,8 km/h (2 Bft) W-SW 256 0 min 0,000 mm 0,0 UV-I 58 W/m 2,7 C -0,3 C 16,1 km/h (3 Bft) 93,33 %
17.02.2017 14:44 3,4 C 95 % 1024,5 hPa 0,0 l/m 11,3 km/h (2 Bft) W-SW 244 0 min 0,000 mm 0,0 UV-I 48 W/m 2,7 C -0,6 C 17,7 km/h (3 Bft) 97,14 %
17.02.2017 14:46 3,4 C 95 % 1024,6 hPa 0,0 l/m 10,0 km/h (2 Bft) SW 236 0 min 0,000 mm 0,0 UV-I 45 W/m 2,7 C 0,3 C 14,5 km/h (3 Bft) 100,00 %
17.02.2017 14:48 3,4 C 95 % 1024,6 hPa 0,0 l/m 10,9 km/h (2 Bft) W-SW 251 0 min 0,000 mm 0,0 UV-I 45 W/m 2,7 C -0,3 C 16,1 km/h (3 Bft) 97,87 %
17.02.2017 14:50 3,4 C 95 % 1024,6 hPa 0,0 l/m 11,2 km/h (2 Bft) W-SW 240 0 min 0,000 mm 0,0 UV-I 44 W/m 2,7 C -0,6 C 16,1 km/h (3 Bft) 96,00 %
17.02.2017 14:52 3,4 C 95 % 1024,7 hPa 0,2 l/m 10,8 km/h (2 Bft) W-SW 254 0 min 0,000 mm 0,0 UV-I 46 W/m 2,7 C -0,3 C 16,1 km/h (3 Bft) 97,56 %
17.02.2017 14:54 3,4 C 95 % 1024,7 hPa 0,0 l/m 11,4 km/h (2 Bft) W-SW 242 0 min 0,000 mm 0,0 UV-I 49 W/m 2,7 C -0,7 C 19,3 km/h (3 Bft) 100,00 %
17.02.2017 14:56 3,4 C 95 % 1024,7 hPa 0,0 l/m 8,9 km/h (2 Bft) W-SW 252 0 min 0,000 mm 0,0 UV-I 50 W/m 2,7 C 1,2 C 14,5 km/h (3 Bft) 94,03 %
17.02.2017 14:58 3,4 C 95 % 1024,7 hPa 0,0 l/m 7,1 km/h (2 Bft) W-SW 252 0 min 0,000 mm 0,0 UV-I 43 W/m 2,7 C 2,7 C 11,3 km/h (2 Bft) 97,73 %
17.02.2017 15:00 3,4 C 95 % 1024,7 hPa 0,0 l/m 9,8 km/h (2 Bft) W-SW 247 0 min 0,026 mm 0,0 UV-I 46 W/m 2,7 C 0,5 C 14,5 km/h (3 Bft) 100,00 %
17.02.2017 15:02 3,4 C 95 % 1024,8 hPa 0,0 l/m 8,9 km/h (2 Bft) SW 215 0 min 0,000 mm 0,0 UV-I 43 W/m 2,7 C 1,2 C 12,9 km/h (3 Bft) 94,00 %
17.02.2017 15:04 3,3 C 95 % 1024,8 hPa 0,0 l/m 10,1 km/h (2 Bft) W-SW 244 0 min 0,000 mm 0,0 UV-I 51 W/m 2,6 C 0,1 C 14,5 km/h (3 Bft) 97,56 %
17.02.2017 15:06 3,3 C 95 % 1024,7 hPa 0,0 l/m 7,3 km/h (2 Bft) SW 216 0 min 0,000 mm 0,0 UV-I 54 W/m 2,6 C 2,5 C 14,5 km/h (3 Bft) 98,00 %
17.02.2017 15:08 3,3 C 95 % 1024,7 hPa 0,0 l/m 8,7 km/h (2 Bft) SW 227 0 min 0,000 mm 0,0 UV-I 54 W/m 2,6 C 1,2 C 12,9 km/h (3 Bft) 90,24 %
17.02.2017 15:10 3,3 C 95 % 1024,7 hPa 0,0 l/m 8,0 km/h (2 Bft) S-SW 205 0 min 0,000 mm 0,0 UV-I 53 W/m 2,6 C 1,8 C 12,9 km/h (3 Bft) 94,34 %
17.02.2017 15:12 3,3 C 95 % 1024,8 hPa 0,0 l/m 9,6 km/h (2 Bft) S-SW 204 0 min 0,000 mm 0,0 UV-I 55 W/m 2,6 C 0,5 C 16,1 km/h (3 Bft) 97,73 %
17.02.2017 15:14 3,3 C 95 % 1024,7 hPa 0,0 l/m 13,0 km/h (3 Bft) SW 236 0 min 0,000 mm 0,0 UV-I 59 W/m 2,6 C -1,8 C 17,7 km/h (3 Bft) 92,00 %
17.02.2017 15:16 3,3 C 95 % 1024,7 hPa 0,0 l/m 12,2 km/h (2 Bft) S-SW 200 0 min 0,000 mm 0,0 UV-I 58 W/m 2,6 C -1,3 C 17,7 km/h (3 Bft) 95,12 %
17.02.2017 15:18 3,3 C 95 % 1024,7 hPa 0,0 l/m 9,5 km/h (2 Bft) S-SW 207 0 min 0,000 mm 0,0 UV-I 54 W/m 2,6 C 0,6 C 14,5 km/h (3 Bft) 92,45 %
17.02.2017 15:20 3,3 C 95 % 1024,8 hPa 0,0 l/m 10,0 km/h (2 Bft) S-SW 196 0 min 0,000 mm 0,0 UV-I 50 W/m 2,6 C 0,2 C 17,7 km/h (3 Bft) 94,00 %
17.02.2017 15:22 3,3 C 95 % 1024,8 hPa 0,0 l/m 11,4 km/h (2 Bft) SW 224 0 min 0,000 mm 0,0 UV-I 51 W/m 2,6 C -0,8 C 19,3 km/h (3 Bft) 92,68 %
17.02.2017 15:24 3,3 C 95 % 1024,8 hPa 0,0 l/m 11,4 km/h (2 Bft) SW 234 0 min 0,000 mm 0,0 UV-I 51 W/m 2,6 C -0,8 C 17,7 km/h (3 Bft) 97,37 %
17.02.2017 15:26 3,3 C 95 % 1024,8 hPa 0,0 l/m 12,1 km/h (2 Bft) S-SW 195 0 min 0,000 mm 0,0 UV-I 49 W/m 2,6 C -1,3 C 19,3 km/h (3 Bft) 96,77 %
17.02.2017 15:28 3,2 C 95 % 1024,9 hPa 0,0 l/m 9,9 km/h (2 Bft) S-SW 209 0 min 0,000 mm 0,0 UV-I 52 W/m 2,5 C 0,2 C 14,5 km/h (3 Bft) 97,37 %
17.02.2017 15:30 3,2 C 95 % 1024,8 hPa 0,0 l/m 12,4 km/h (3 Bft) S-SW 200 0 min 0,000 mm 0,0 UV-I 54 W/m 2,5 C -1,6 C 17,7 km/h (3 Bft) 98,11 %
17.02.2017 15:32 3,2 C 95 % 1024,8 hPa 0,0 l/m 11,6 km/h (2 Bft) S-SW 213 0 min 0,000 mm 0,0 UV-I 54 W/m 2,5 C -1,1 C 24,1 km/h (4 Bft) 92,00 %
17.02.2017 15:34 3,2 C 95 % 1024,8 hPa 0,0 l/m 12,9 km/h (3 Bft) S-SW 205 0 min 0,000 mm 0,0 UV-I 52 W/m 2,5 C -1,9 C 19,3 km/h (3 Bft) 92,11 %
17.02.2017 15:36 3,2 C 95 % 1024,8 hPa 0,0 l/m 14,3 km/h (3 Bft) SW 232 0 min 0,000 mm 0,0 UV-I 53 W/m 2,5 C -2,7 C 20,9 km/h (4 Bft) 96,23 %
17.02.2017 15:38 3,2 C 95 % 1024,8 hPa 0,0 l/m 12,7 km/h (3 Bft) SW 231 0 min 0,000 mm 0,0 UV-I 53 W/m 2,5 C -1,8 C 17,7 km/h (3 Bft) 95,12 %
17.02.2017 15:40 3,2 C 95 % 1024,8 hPa 0,0 l/m 13,0 km/h (3 Bft) SW 223 0 min 0,000 mm 0,0 UV-I 52 W/m 2,5 C -1,9 C 19,3 km/h (3 Bft) 88,64 %
17.02.2017 15:42 3,1 C 95 % 1024,8 hPa 0,0 l/m 11,1 km/h (2 Bft) SW 222 0 min 0,000 mm 0,0 UV-I 48 W/m 2,4 C -0,8 C 17,7 km/h (3 Bft) 86,79 %
17.02.2017 15:44 3,1 C 95 % 1024,8 hPa 0,0 l/m 13,0 km/h (3 Bft) W-SW 248 0 min 0,000 mm 0,0 UV-I 46 W/m 2,4 C -2,1 C 19,3 km/h (3 Bft) 93,62 %
17.02.2017 15:46 3,1 C 95 % 1024,8 hPa 0,0 l/m 12,5 km/h (3 Bft) SW 225 0 min 0,000 mm 0,0 UV-I 44 W/m 2,4 C -1,8 C 17,7 km/h (3 Bft) 94,00 %
17.02.2017 15:48 3,1 C 95 % 1024,8 hPa 0,0 l/m 12,8 km/h (3 Bft) S-SW 211 0 min 0,000 mm 0,0 UV-I 39 W/m 2,4 C -1,9 C 20,9 km/h (4 Bft) 88,89 %
17.02.2017 15:50 3,1 C 95 % 1024,8 hPa 0,0 l/m 12,8 km/h (3 Bft) SW 217 0 min 0,000 mm 0,0 UV-I 44 W/m 2,4 C -1,9 C 19,3 km/h (3 Bft) 96,23 %
17.02.2017 15:52 3,1 C 95 % 1024,7 hPa 0,0 l/m 10,8 km/h (2 Bft) S-SW 211 0 min 0,000 mm 0,0 UV-I 47 W/m 2,4 C -0,6 C 17,7 km/h (3 Bft) 92,00 %
17.02.2017 15:54 3,1 C 95 % 1024,8 hPa 0,0 l/m 13,9 km/h (3 Bft) SW 223 0 min 0,000 mm 0,0 UV-I 47 W/m 2,4 C -2,6 C 19,3 km/h (3 Bft) 92,00 %
17.02.2017 15:56 3,1 C 95 % 1024,8 hPa 0,0 l/m 12,7 km/h (3 Bft) S-SW 200 0 min 0,000 mm 0,0 UV-I 46 W/m 2,4 C -1,9 C 19,3 km/h (3 Bft) 95,12 %
17.02.2017 15:58 3,1 C 95 % 1024,8 hPa 0,0 l/m 14,3 km/h (3 Bft) SW 224 0 min 0,000 mm 0,0 UV-I 46 W/m 2,4 C -2,8 C 20,9 km/h (4 Bft) 93,62 %
17.02.2017 16:00 3,1 C 95 % 1024,8 hPa 0,0 l/m 17,1 km/h (3 Bft) SW 225 0 min 0,025 mm 0,0 UV-I 43 W/m 2,4 C -4,3 C 22,5 km/h (4 Bft) 91,49 %
17.02.2017 16:02 3,1 C 95 % 1024,8 hPa 0,0 l/m 13,3 km/h (3 Bft) W-SW 248 0 min 0,000 mm 0,0 UV-I 41 W/m 2,4 C -2,2 C 20,9 km/h (4 Bft) 95,45 %
17.02.2017 16:04 3,1 C 95 % 1024,8 hPa 0,0 l/m 12,1 km/h (2 Bft) SW 214 0 min 0,000 mm 0,0 UV-I 38 W/m 2,4 C -1,5 C 17,7 km/h (3 Bft) 93,62 %
17.02.2017 16:06 3,0 C 95 % 1024,8 hPa 0,0 l/m 13,4 km/h (3 Bft) S-SW 211 0 min 0,000 mm 0,0 UV-I 30 W/m 2,3 C -2,4 C 20,9 km/h (4 Bft) 92,45 %
17.02.2017 16:08 3,0 C 95 % 1024,8 hPa 0,0 l/m 13,8 km/h (3 Bft) W-SW 238 0 min 0,000 mm 0,0 UV-I 26 W/m 2,3 C -2,7 C 20,9 km/h (4 Bft) 92,11 %
17.02.2017 16:10 3,0 C 95 % 1024,8 hPa 0,0 l/m 13,5 km/h (3 Bft) S-SW 204 0 min 0,000 mm 0,0 UV-I 22 W/m 2,3 C -2,5 C 19,3 km/h (3 Bft) 96,61 %
17.02.2017 16:12 3,0 C 95 % 1024,8 hPa 0,0 l/m 13,1 km/h (3 Bft) S-SW 202 0 min 0,000 mm 0,0 UV-I 23 W/m 2,3 C -2,2 C 17,7 km/h (3 Bft) 92,11 %
17.02.2017 16:14 3,0 C 95 % 1024,9 hPa 0,0 l/m 14,7 km/h (3 Bft) S-SW 209 0 min 0,000 mm 0,0 UV-I 24 W/m 2,3 C -3,2 C 24,1 km/h (4 Bft) 85,11 %
17.02.2017 16:16 2,9 C 95 % 1024,9 hPa 0,0 l/m 13,3 km/h (3 Bft) W-SW 252 0 min 0,000 mm 0,0 UV-I 29 W/m 2,2 C -2,5 C 20,9 km/h (4 Bft) 92,45 %
17.02.2017 16:18 2,9 C 95 % 1024,8 hPa 0,0 l/m 12,5 km/h (3 Bft) W-SW 255 0 min 0,000 mm 0,0 UV-I 33 W/m 2,2 C -2,0 C 17,7 km/h (3 Bft) 94,74 %
17.02.2017 16:20 2,9 C 95 % 1024,8 hPa 0,0 l/m 12,9 km/h (3 Bft) W-SW 243 0 min 0,000 mm 0,0 UV-I 33 W/m 2,2 C -2,2 C 19,3 km/h (3 Bft) 90,91 %
17.02.2017 16:22 2,9 C 95 % 1024,9 hPa 0,0 l/m 15,8 km/h (3 Bft) S-SW 209 0 min 0,000 mm 0,0 UV-I 30 W/m 2,2 C -3,9 C 22,5 km/h (4 Bft) 94,44 %
17.02.2017 16:24 2,9 C 95 % 1024,8 hPa 0,0 l/m 12,1 km/h (2 Bft) SW 215 0 min 0,000 mm 0,0 UV-I 25 W/m 2,2 C -1,7 C 22,5 km/h (4 Bft) 96,36 %
17.02.2017 16:26 2,9 C 95 % 1024,9 hPa 0,0 l/m 13,2 km/h (3 Bft) S-SW 204 0 min 0,000 mm 0,0 UV-I 23 W/m 2,2 C -2,4 C 19,3 km/h (3 Bft) 96,00 %
17.02.2017 16:28 2,9 C 95 % 1024,8 hPa 0,0 l/m 13,1 km/h (3 Bft) SW 232 0 min 0,000 mm 0,0 UV-I 18 W/m 2,2 C -2,4 C 20,9 km/h (4 Bft) 94,87 %
17.02.2017 16:30 2,9 C 95 % 1024,9 hPa 0,0 l/m 12,6 km/h (3 Bft) W-SW 242 0 min 0,000 mm 0,0 UV-I 18 W/m 2,2 C -2,1 C 16,1 km/h (3 Bft) 94,64 %
17.02.2017 16:32 2,9 C 95 % 1024,9 hPa 0,0 l/m 11,5 km/h (2 Bft) SW 223 0 min 0,000 mm 0,0 UV-I 18 W/m 2,2 C -1,3 C 17,7 km/h (3 Bft) 95,45 %
17.02.2017 16:34 2,8 C 95 % 1024,9 hPa 0,0 l/m 12,4 km/h (3 Bft) W-SW 254 0 min 0,000 mm 0,0 UV-I 19 W/m 2,1 C -2,0 C 22,5 km/h (4 Bft) 92,00 %
17.02.2017 16:36 2,8 C 94 % 1024,9 hPa 0,0 l/m 12,4 km/h (3 Bft) S-SW 205 0 min 0,000 mm 0,0 UV-I 19 W/m 1,9 C -2,0 C 16,1 km/h (3 Bft) 95,12 %
17.02.2017 16:38 2,8 C 94 % 1024,9 hPa 0,2 l/m 12,3 km/h (3 Bft) W-SW 238 0 min 0,000 mm 0,0 UV-I 19 W/m 1,9 C -2,0 C 20,9 km/h (4 Bft) 97,56 %
17.02.2017 16:40 2,8 C 95 % 1024,9 hPa 0,0 l/m 13,2 km/h (3 Bft) S-SW 209 0 min 0,000 mm 0,0 UV-I 17 W/m 2,1 C -2,5 C 19,3 km/h (3 Bft) 97,73 %
17.02.2017 16:42 2,8 C 95 % 1024,9 hPa 0,0 l/m 12,4 km/h (3 Bft) W-SW 242 0 min 0,000 mm 0,0 UV-I 16 W/m 2,1 C -2,0 C 19,3 km/h (3 Bft) 92,86 %
17.02.2017 16:44 2,8 C 95 % 1024,9 hPa 0,0 l/m 12,3 km/h (3 Bft) SW 223 0 min 0,000 mm 0,0 UV-I 14 W/m 2,1 C -2,0 C 20,9 km/h (4 Bft) 100,00 %
17.02.2017 16:46 2,8 C 95 % 1024,9 hPa 0,0 l/m 14,4 km/h (3 Bft) W-SW 244 0 min 0,000 mm 0,0 UV-I 14 W/m 2,1 C -3,3 C 22,5 km/h (4 Bft) 97,73 %
17.02.2017 16:48 2,8 C 95 % 1024,9 hPa 0,0 l/m 10,8 km/h (2 Bft) S 188 0 min 0,000 mm 0,0 UV-I 12 W/m 2,1 C -0,9 C 17,7 km/h (3 Bft) 96,43 %
17.02.2017 16:50 2,7 C 95 % 1024,9 hPa 0,2 l/m 11,3 km/h (2 Bft) W-SW 239 0 min 0,000 mm 0,0 UV-I 14 W/m 2,0 C -1,4 C 25,7 km/h (4 Bft) 97,06 %
17.02.2017 16:52 2,7 C 95 % 1024,9 hPa 0,0 l/m 12,1 km/h (2 Bft) SW 219 0 min 0,000 mm 0,0 UV-I 17 W/m 2,0 C -2,0 C 22,5 km/h (4 Bft) 95,12 %
17.02.2017 16:54 2,7 C 95 % 1024,9 hPa 0,0 l/m 14,5 km/h (3 Bft) W-SW 239 0 min 0,000 mm 0,0 UV-I 18 W/m 2,0 C -3,4 C 20,9 km/h (4 Bft) 97,37 %
17.02.2017 16:56 2,7 C 95 % 1024,9 hPa 0,0 l/m 13,7 km/h (3 Bft) W-SW 239 0 min 0,000 mm 0,0 UV-I 18 W/m 2,0 C -3,0 C 17,7 km/h (3 Bft) 94,34 %
17.02.2017 16:58 2,7 C 95 % 1024,9 hPa 0,0 l/m 11,6 km/h (2 Bft) S-SW 211 0 min 0,000 mm 0,0 UV-I 18 W/m 2,0 C -1,6 C 17,7 km/h (3 Bft) 100,00 %
17.02.2017 17:00 2,7 C 95 % 1024,9 hPa 0,0 l/m 14,6 km/h (3 Bft) S-SW 199 0 min 0,025 mm 0,0 UV-I 19 W/m 2,0 C -3,5 C 22,5 km/h (4 Bft) 100,00 %
17.02.2017 17:02 2,7 C 95 % 1024,9 hPa 0,0 l/m 15,1 km/h (3 Bft) S-SW 210 0 min 0,000 mm 0,0 UV-I 19 W/m 2,0 C -3,8 C 22,5 km/h (4 Bft) 100,00 %
17.02.2017 17:04 2,7 C 95 % 1024,9 hPa 0,0 l/m 13,1 km/h (3 Bft) SW 234 0 min 0,000 mm 0,0 UV-I 17 W/m 2,0 C -2,6 C 19,3 km/h (3 Bft) 100,00 %
17.02.2017 17:06 2,7 C 95 % 1024,8 hPa 0,0 l/m 14,1 km/h (3 Bft) S-SW 208 0 min 0,000 mm 0,0 UV-I 14 W/m 2,0 C -3,2 C 20,9 km/h (4 Bft) 100,00 %
17.02.2017 17:08 2,7 C 95 % 1024,9 hPa 0,0 l/m 10,4 km/h (2 Bft) W-SW 241 0 min 0,000 mm 0,0 UV-I 12 W/m 2,0 C -0,8 C 16,1 km/h (3 Bft) 100,00 %
17.02.2017 17:10 2,7 C 95 % 1024,9 hPa 0,0 l/m 13,7 km/h (3 Bft) SW 232 0 min 0,000 mm 0,0 UV-I 10 W/m 2,0 C -3,0 C 20,9 km/h (4 Bft) 100,00 %
17.02.2017 17:12 2,7 C 95 % 1024,9 hPa 0,0 l/m 9,9 km/h (2 Bft) S-SW 207 0 min 0,000 mm 0,0 UV-I 9 W/m 2,0 C -0,4 C 16,1 km/h (3 Bft) 100,00 %
17.02.2017 17:14 2,7 C 95 % 1025,0 hPa 0,0 l/m 10,8 km/h (2 Bft) SW 225 0 min 0,000 mm 0,0 UV-I 7 W/m 2,0 C -1,1 C 19,3 km/h (3 Bft) 100,00 %
17.02.2017 17:16 2,7 C 95 % 1025,0 hPa 0,0 l/m 9,5 km/h (2 Bft) SW 230 0 min 0,000 mm 0,0 UV-I 7 W/m 2,0 C -0,1 C 19,3 km/h (3 Bft) 100,00 %
17.02.2017 17:18 2,7 C 95 % 1025,0 hPa 0,0 l/m 11,4 km/h (2 Bft) W-SW 247 0 min 0,000 mm 0,0 UV-I 7 W/m 2,0 C -1,5 C 17,7 km/h (3 Bft) 100,00 %
17.02.2017 17:20 2,7 C 95 % 1025,1 hPa 0,0 l/m 12,7 km/h (3 Bft) W-SW 238 0 min 0,000 mm 0,0 UV-I 7 W/m 2,0 C -2,3 C 24,1 km/h (4 Bft) 100,00 %
17.02.2017 17:22 2,6 C 95 % 1025,1 hPa 0,0 l/m 10,5 km/h (2 Bft) S-SW 202 0 min 0,000 mm 0,0 UV-I 5 W/m 1,9 C -1,0 C 17,7 km/h (3 Bft) 98,11 %
17.02.2017 17:24 2,6 C 95 % 1025,1 hPa 0,0 l/m 11,7 km/h (2 Bft) S-SW 207 0 min 0,000 mm 0,0 UV-I 5 W/m 1,9 C -1,8 C 19,3 km/h (3 Bft) 100,00 %
17.02.2017 17:26 2,6 C 95 % 1025,1 hPa 0,0 l/m 14,2 km/h (3 Bft) SW 223 0 min 0,000 mm 0,0 UV-I 5 W/m 1,9 C -3,4 C 22,5 km/h (4 Bft) 100,00 %
17.02.2017 17:28 2,6 C 95 % 1025,2 hPa 0,0 l/m 15,0 km/h (3 Bft) S-SW 213 0 min 0,000 mm 0,0 UV-I 5 W/m 1,9 C -3,8 C 22,5 km/h (4 Bft) 100,00 %
17.02.2017 17:30 2,6 C 95 % 1025,2 hPa 0,0 l/m 13,9 km/h (3 Bft) S-SW 213 0 min 0,000 mm 0,0 UV-I 5 W/m 1,9 C -3,2 C 20,9 km/h (4 Bft) 100,00 %
17.02.2017 17:32 2,6 C 95 % 1025,1 hPa 0,0 l/m 14,9 km/h (3 Bft) SW 221 0 min 0,000 mm 0,0 UV-I 5 W/m 1,9 C -3,8 C 25,7 km/h (4 Bft) 98,00 %
17.02.2017 17:34 2,6 C 95 % 1025,2 hPa 0,0 l/m 16,7 km/h (3 Bft) SW 227 0 min 0,000 mm 0,0 UV-I 5 W/m 1,9 C -4,7 C 24,1 km/h (4 Bft) 100,00 %
17.02.2017 17:36 2,5 C 94 % 1025,2 hPa 0,0 l/m 18,4 km/h (3 Bft) W-SW 240 0 min 0,000 mm 0,0 UV-I 3 W/m 1,6 C -5,7 C 30,6 km/h (5 Bft) 100,00 %
17.02.2017 17:38 2,5 C 94 % 1025,2 hPa 0,0 l/m 17,4 km/h (3 Bft) SW 223 0 min 0,000 mm 0,0 UV-I 0 W/m 1,6 C -5,2 C 27,4 km/h (4 Bft) 98,00 %
17.02.2017 17:40 2,4 C 94 % 1025,2 hPa 0,0 l/m 14,9 km/h (3 Bft) W-SW 256 0 min 0,000 mm 0,0 UV-I 0 W/m 1,5 C -4,0 C 22,5 km/h (4 Bft) 100,00 %
17.02.2017 17:42 2,4 C 94 % 1025,3 hPa 0,0 l/m 14,5 km/h (3 Bft) W-NW 284 0 min 0,000 mm 0,0 UV-I 0 W/m 1,5 C -3,8 C 24,1 km/h (4 Bft) 98,08 %
17.02.2017 17:44 2,4 C 94 % 1025,3 hPa 0,0 l/m 15,7 km/h (3 Bft) SW 215 0 min 0,000 mm 0,0 UV-I 0 W/m 1,5 C -4,5 C 22,5 km/h (4 Bft) 100,00 %
17.02.2017 17:46 2,4 C 94 % 1025,3 hPa 0,0 l/m 14,5 km/h (3 Bft) SW 215 0 min 0,000 mm 0,0 UV-I 0 W/m 1,5 C -3,8 C 19,3 km/h (3 Bft) 100,00 %
17.02.2017 17:48 2,4 C 94 % 1025,3 hPa 0,0 l/m 11,0 km/h (2 Bft) W-SW 253 0 min 0,000 mm 0,0 UV-I 0 W/m 1,5 C -1,5 C 16,1 km/h (3 Bft) 96,43 %
17.02.2017 17:50 2,3 C 94 % 1025,4 hPa 0,0 l/m 12,0 km/h (2 Bft) SW 228 0 min 0,000 mm 0,0 UV-I 0 W/m 1,4 C -2,4 C 20,9 km/h (4 Bft) 97,73 %
17.02.2017 17:52 2,3 C 94 % 1025,4 hPa 0,0 l/m 13,1 km/h (3 Bft) W-SW 238 0 min 0,000 mm 0,0 UV-I 0 W/m 1,4 C -3,1 C 20,9 km/h (4 Bft) 97,78 %
17.02.2017 17:54 2,3 C 95 % 1025,4 hPa 0,0 l/m 12,6 km/h (3 Bft) S-SW 197 0 min 0,000 mm 0,0 UV-I 0 W/m 1,6 C -2,7 C 17,7 km/h (3 Bft) 98,00 %
17.02.2017 17:56 2,3 C 95 % 1025,4 hPa 0,0 l/m 14,8 km/h (3 Bft) SW 214 0 min 0,000 mm 0,0 UV-I 0 W/m 1,6 C -4,1 C 22,5 km/h (4 Bft) 91,43 %
17.02.2017 17:58 2,3 C 95 % 1025,4 hPa 0,0 l/m 14,0 km/h (3 Bft) SW 219 0 min 0,000 mm 0,0 UV-I 0 W/m 1,6 C -3,6 C 20,9 km/h (4 Bft) 92,00 %
17.02.2017 18:00 2,3 C 95 % 1025,5 hPa 0,0 l/m 12,8 km/h (3 Bft) SW 234 0 min 0,000 mm 0,0 UV-I 0 W/m 1,6 C -2,9 C 17,7 km/h (3 Bft) 98,11 %
17.02.2017 18:02 2,3 C 95 % 1025,5 hPa 0,0 l/m 12,8 km/h (3 Bft) S-SW 193 0 min 0,000 mm 0,0 UV-I 0 W/m 1,6 C -2,9 C 20,9 km/h (4 Bft) 92,68 %
17.02.2017 18:04 2,3 C 95 % 1025,4 hPa 0,0 l/m 12,1 km/h (2 Bft) SW 217 0 min 0,000 mm 0,0 UV-I 0 W/m 1,6 C -2,4 C 17,7 km/h (3 Bft) 96,00 %
17.02.2017 18:06 2,3 C 95 % 1025,5 hPa 0,0 l/m 13,4 km/h (3 Bft) W-SW 252 0 min 0,000 mm 0,0 UV-I 0 W/m 1,6 C -3,3 C 19,3 km/h (3 Bft) 94,00 %
17.02.2017 18:08 2,3 C 95 % 1025,6 hPa 0,0 l/m 11,8 km/h (2 Bft) W-SW 238 0 min 0,000 mm 0,0 UV-I 0 W/m 1,6 C -2,2 C 19,3 km/h (3 Bft) 95,74 %
17.02.2017 18:10 2,3 C 95 % 1025,6 hPa 0,0 l/m 9,9 km/h (2 Bft) SW 230 0 min 0,000 mm 0,0 UV-I 0 W/m 1,6 C -0,8 C 16,1 km/h (3 Bft) 95,74 %
17.02.2017 18:12 2,3 C 95 % 1025,6 hPa 0,0 l/m 12,5 km/h (3 Bft) SW 223 0 min 0,000 mm 0,0 UV-I 0 W/m 1,6 C -2,7 C 19,3 km/h (3 Bft) 95,74 %
17.02.2017 18:14 2,3 C 95 % 1025,5 hPa 0,0 l/m 9,1 km/h (2 Bft) S-SW 195 0 min 0,000 mm 0,0 UV-I 0 W/m 1,6 C -0,2 C 16,1 km/h (3 Bft) 90,24 %
17.02.2017 18:16 2,3 C 95 % 1025,6 hPa 0,0 l/m 12,0 km/h (2 Bft) W-SW 238 0 min 0,000 mm 0,0 UV-I 0 W/m 1,6 C -2,4 C 16,1 km/h (3 Bft) 95,45 %
17.02.2017 18:18 2,3 C 95 % 1025,6 hPa 0,0 l/m 8,7 km/h (2 Bft) W-SW 252 0 min 0,000 mm 0,0 UV-I 0 W/m 1,6 C 0,1 C 14,5 km/h (3 Bft) 96,43 %
17.02.2017 18:20 2,3 C 95 % 1025,6 hPa 0,0 l/m 9,6 km/h (2 Bft) SW 236 0 min 0,000 mm 0,0 UV-I 0 W/m 1,6 C -0,6 C 16,1 km/h (3 Bft) 94,87 %
17.02.2017 18:22 2,2 C 95 % 1025,6 hPa 0,0 l/m 8,4 km/h (2 Bft) W-SW 252 0 min 0,000 mm 0,0 UV-I 0 W/m 1,5 C 0,3 C 14,5 km/h (3 Bft) 87,27 %
17.02.2017 18:24 2,2 C 95 % 1025,6 hPa 0,0 l/m 7,4 km/h (2 Bft) W-SW 246 0 min 0,000 mm 0,0 UV-I 0 W/m 1,5 C 1,2 C 12,9 km/h (3 Bft) 100,00 %
17.02.2017 18:26 2,2 C 95 % 1025,7 hPa 0,0 l/m 8,4 km/h (2 Bft) SW 229 0 min 0,000 mm 0,0 UV-I 0 W/m 1,5 C 0,3 C 14,5 km/h (3 Bft) 97,87 %
17.02.2017 18:28 2,2 C 95 % 1025,7 hPa 0,0 l/m 9,8 km/h (2 Bft) W-SW 240 0 min 0,000 mm 0,0 UV-I 0 W/m 1,5 C -0,9 C 14,5 km/h (3 Bft) 94,34 %
17.02.2017 18:30 2,2 C 95 % 1025,6 hPa 0,0 l/m 8,6 km/h (2 Bft) SW 219 0 min 0,000 mm 0,0 UV-I 0 W/m 1,5 C 0,1 C 14,5 km/h (3 Bft) 100,00 %
17.02.2017 18:32 2,2 C 95 % 1025,7 hPa 0,0 l/m 8,9 km/h (2 Bft) SW 236 0 min 0,000 mm 0,0 UV-I 0 W/m 1,5 C -0,1 C 11,3 km/h (2 Bft) 100,00 %
17.02.2017 18:34 2,2 C 95 % 1025,7 hPa 0,0 l/m 8,6 km/h (2 Bft) SW 220 0 min 0,000 mm 0,0 UV-I 0 W/m 1,5 C 0,1 C 14,5 km/h (3 Bft) 94,74 %
17.02.2017 18:36 2,2 C 95 % 1025,7 hPa 0,0 l/m 10,1 km/h (2 Bft) W-SW 240 0 min 0,000 mm 0,0 UV-I 0 W/m 1,5 C -1,1 C 17,7 km/h (3 Bft) 100,00 %
17.02.2017 18:38 2,2 C 95 % 1025,7 hPa 0,0 l/m 10,6 km/h (2 Bft) SW 227 0 min 0,000 mm 0,0 UV-I 0 W/m 1,5 C -1,5 C 14,5 km/h (3 Bft) 100,00 %
17.02.2017 18:40 2,2 C 95 % 1025,7 hPa 0,0 l/m 9,1 km/h (2 Bft) SW 231 0 min 0,000 mm 0,0 UV-I 0 W/m 1,5 C -0,3 C 17,7 km/h (3 Bft) 95,74 %
17.02.2017 18:42 2,2 C 95 % 1025,6 hPa 0,0 l/m 12,7 km/h (3 Bft) SW 227 0 min 0,000 mm 0,0 UV-I 0 W/m 1,5 C -2,9 C 17,7 km/h (3 Bft) 97,37 %
17.02.2017 18:44 2,2 C 95 % 1025,7 hPa 0,0 l/m 12,9 km/h (3 Bft) W-SW 244 0 min 0,000 mm 0,0 UV-I 0 W/m 1,5 C -3,1 C 17,7 km/h (3 Bft) 100,00 %
17.02.2017 18:46 2,2 C 95 % 1025,6 hPa 0,0 l/m 12,7 km/h (3 Bft) SW 225 0 min 0,000 mm 0,0 UV-I 0 W/m 1,5 C -2,9 C 16,1 km/h (3 Bft) 98,00 %
17.02.2017 18:48 2,2 C 95 % 1025,6 hPa 0,0 l/m 11,9 km/h (2 Bft) S 176 0 min 0,000 mm 0,0 UV-I 0 W/m 1,5 C -2,4 C 17,7 km/h (3 Bft) 94,64 %
17.02.2017 18:50 2,2 C 95 % 1025,5 hPa 0,0 l/m 12,0 km/h (2 Bft) W-SW 241 0 min 0,000 mm 0,0 UV-I 0 W/m 1,5 C -2,5 C 19,3 km/h (3 Bft) 93,10 %
17.02.2017 18:52 2,2 C 95 % 1025,5 hPa 0,0 l/m 12,0 km/h (2 Bft) W-SW 252 0 min 0,000 mm 0,0 UV-I 0 W/m 1,5 C -2,5 C 19,3 km/h (3 Bft) 100,00 %
17.02.2017 18:54 2,2 C 95 % 1025,5 hPa 0,0 l/m 12,4 km/h (3 Bft) S-SW 198 0 min 0,000 mm 0,0 UV-I 0 W/m 1,5 C -2,7 C 19,3 km/h (3 Bft) 95,52 %
17.02.2017 18:56 2,2 C 95 % 1025,5 hPa 0,0 l/m 10,7 km/h (2 Bft) W-SW 250 0 min 0,000 mm 0,0 UV-I 0 W/m 1,5 C -1,6 C 17,7 km/h (3 Bft) 100,00 %
17.02.2017 18:58 2,2 C 95 % 1025,4 hPa 0,0 l/m 15,0 km/h (3 Bft) SW 221 0 min 0,000 mm 0,0 UV-I 0 W/m 1,5 C -4,3 C 20,9 km/h (4 Bft) 98,00 %
17.02.2017 19:00 2,2 C 95 % 1025,4 hPa 0,0 l/m 15,5 km/h (3 Bft) SW 225 0 min 0,000 mm 0,0 UV-I 0 W/m 1,5 C -4,6 C 20,9 km/h (4 Bft) 97,87 %
17.02.2017 19:02 2,2 C 95 % 1025,3 hPa 0,0 l/m 17,2 km/h (3 Bft) S-SW 205 0 min 0,000 mm 0,0 UV-I 0 W/m 1,5 C -5,5 C 24,1 km/h (4 Bft) 93,62 %
17.02.2017 19:04 2,2 C 95 % 1025,3 hPa 0,0 l/m 16,5 km/h (3 Bft) S 180 0 min 0,000 mm 0,0 UV-I 0 W/m 1,5 C -5,1 C 25,7 km/h (4 Bft) 97,87 %
17.02.2017 19:06 2,2 C 95 % 1025,3 hPa 0,0 l/m 17,1 km/h (3 Bft) SW 222 0 min 0,000 mm 0,0 UV-I 0 W/m 1,5 C -5,4 C 24,1 km/h (4 Bft) 92,86 %
17.02.2017 19:08 2,2 C 95 % 1025,3 hPa 0,0 l/m 16,4 km/h (3 Bft) W-SW 240 0 min 0,000 mm 0,0 UV-I 0 W/m 1,5 C -5,1 C 24,1 km/h (4 Bft) 98,00 %
17.02.2017 19:10 2,2 C 95 % 1025,2 hPa 0,0 l/m 15,9 km/h (3 Bft) S-SW 194 0 min 0,000 mm 0,0 UV-I 0 W/m 1,5 C -4,8 C 27,4 km/h (4 Bft) 94,74 %
17.02.2017 19:12 2,2 C 95 % 1025,2 hPa 0,0 l/m 15,2 km/h (3 Bft) SW 226 0 min 0,000 mm 0,0 UV-I 0 W/m 1,5 C -4,4 C 27,4 km/h (4 Bft) 94,00 %
17.02.2017 19:14 2,3 C 95 % 1025,3 hPa 0,0 l/m 15,4 km/h (3 Bft) SW 215 0 min 0,000 mm 0,0 UV-I 0 W/m 1,6 C -4,4 C 22,5 km/h (4 Bft) 100,00 %
17.02.2017 19:16 2,3 C 94 % 1025,4 hPa 0,0 l/m 13,9 km/h (3 Bft) SW 221 0 min 0,000 mm 0,0 UV-I 0 W/m 1,4 C -3,6 C 20,9 km/h (4 Bft) 100,00 %
17.02.2017 19:18 2,3 C 94 % 1025,4 hPa 0,0 l/m 13,7 km/h (3 Bft) S-SW 195 0 min 0,000 mm 0,0 UV-I 0 W/m 1,4 C -3,4 C 19,3 km/h (3 Bft) 97,56 %
17.02.2017 19:20 2,3 C 94 % 1025,4 hPa 0,0 l/m 11,1 km/h (2 Bft) S-SW 195 0 min 0,000 mm 0,0 UV-I 0 W/m 1,4 C -1,7 C 19,3 km/h (3 Bft) 92,68 %
17.02.2017 19:22 2,3 C 94 % 1025,4 hPa 0,0 l/m 12,0 km/h (2 Bft) SW 226 0 min 0,000 mm 0,0 UV-I 0 W/m 1,4 C -2,4 C 16,1 km/h (3 Bft) 98,46 %
17.02.2017 19:24 2,3 C 94 % 1025,4 hPa 0,0 l/m 13,8 km/h (3 Bft) S-SW 207 0 min 0,000 mm 0,0 UV-I 0 W/m 1,4 C -3,5 C 19,3 km/h (3 Bft) 88,57 %
17.02.2017 19:26 2,3 C 94 % 1025,5 hPa 0,0 l/m 9,2 km/h (2 Bft) W-SW 256 0 min 0,000 mm 0,0 UV-I 0 W/m 1,4 C -0,3 C 17,7 km/h (3 Bft) 96,23 %
17.02.2017 19:28 2,2 C 94 % 1025,5 hPa 0,0 l/m 8,2 km/h (2 Bft) W-SW 242 0 min 0,000 mm 0,0 UV-I 0 W/m 1,3 C 0,5 C 14,5 km/h (3 Bft) 96,00 %
17.02.2017 19:30 2,2 C 94 % 1025,5 hPa 0,0 l/m 9,3 km/h (2 Bft) SW 221 0 min 0,000 mm 0,0 UV-I 0 W/m 1,3 C -0,5 C 14,5 km/h (3 Bft) 91,49 %
17.02.2017 19:32 2,2 C 94 % 1025,5 hPa 0,0 l/m 11,3 km/h (2 Bft) W-SW 241 0 min 0,000 mm 0,0 UV-I 0 W/m 1,3 C -2,0 C 16,1 km/h (3 Bft) 95,12 %
17.02.2017 19:34 2,2 C 94 % 1025,5 hPa 0,0 l/m 9,0 km/h (2 Bft) W-SW 249 0 min 0,000 mm 0,0 UV-I 0 W/m 1,3 C -0,2 C 14,5 km/h (3 Bft) 96,23 %
17.02.2017 19:36 2,1 C 94 % 1025,5 hPa 0,0 l/m 8,0 km/h (2 Bft) SW 228 0 min 0,000 mm 0,0 UV-I 0 W/m 1,2 C 0,6 C 12,9 km/h (3 Bft) 95,12 %
17.02.2017 19:38 2,1 C 94 % 1025,5 hPa 0,0 l/m 8,6 km/h (2 Bft) SW 217 0 min 0,000 mm 0,0 UV-I 0 W/m 1,2 C 0,0 C 12,9 km/h (3 Bft) 95,74 %
17.02.2017 19:40 2,1 C 94 % 1025,5 hPa 0,0 l/m 6,3 km/h (2 Bft) S-SW 207 0 min 0,000 mm 0,0 UV-I 0 W/m 1,2 C 2,1 C 9,7 km/h (2 Bft) 94,00 %
17.02.2017 19:42 2,1 C 94 % 1025,5 hPa 0,0 l/m 8,7 km/h (2 Bft) W-SW 239 0 min 0,000 mm 0,0 UV-I 0 W/m 1,2 C -0,1 C 14,5 km/h (3 Bft) 97,87 %
17.02.2017 19:44 2,1 C 94 % 1025,5 hPa 0,0 l/m 7,9 km/h (2 Bft) W-SW 247 0 min 0,000 mm 0,0 UV-I 0 W/m 1,2 C 0,7 C 14,5 km/h (3 Bft) 98,04 %
17.02.2017 19:46 2,1 C 94 % 1025,6 hPa 0,0 l/m 6,0 km/h (2 Bft) W-SW 252 0 min 0,000 mm 0,0 UV-I 0 W/m 1,2 C 2,1 C 9,7 km/h (2 Bft) 94,74 %
17.02.2017 19:48 2,0 C 94 % 1025,6 hPa 0,0 l/m 4,0 km/h (1 Bft) W 271 0 min 0,000 mm 0,0 UV-I 0 W/m 1,1 C 2,0 C 6,4 km/h (2 Bft) 96,00 %
17.02.2017 19:50 1,9 C 94 % 1025,6 hPa 0,0 l/m 3,8 km/h (1 Bft) W 265 0 min 0,000 mm 0,0 UV-I 0 W/m 1,0 C 1,9 C 6,4 km/h (2 Bft) 96,23 %
17.02.2017 19:52 1,8 C 94 % 1025,7 hPa 0,0 l/m 3,9 km/h (1 Bft) W 273 0 min 0,000 mm 0,0 UV-I 0 W/m 0,9 C 1,8 C 6,4 km/h (2 Bft) 97,56 %
17.02.2017 19:54 1,7 C 94 % 1025,7 hPa 0,0 l/m 4,8 km/h (1 Bft) W 274 0 min 0,000 mm 0,0 UV-I 0 W/m 0,8 C 1,7 C 6,4 km/h (2 Bft) 95,92 %
17.02.2017 19:56 1,7 C 94 % 1025,7 hPa 0,0 l/m 4,7 km/h (1 Bft) W 271 0 min 0,000 mm 0,0 UV-I 0 W/m 0,8 C 1,7 C 9,7 km/h (2 Bft) 97,87 %
17.02.2017 19:58 1,6 C 95 % 1025,7 hPa 0,0 l/m 4,7 km/h (1 Bft) W-NW 286 0 min 0,000 mm 0,0 UV-I 0 W/m 0,9 C 1,6 C 9,7 km/h (2 Bft) 92,68 %
17.02.2017 20:00 1,6 C 95 % 1025,7 hPa 0,0 l/m 4,3 km/h (1 Bft) W 265 0 min 0,000 mm 0,0 UV-I 0 W/m 0,9 C 1,6 C 6,4 km/h (2 Bft) 92,00 %
17.02.2017 20:02 1,5 C 95 % 1025,8 hPa 0,0 l/m 6,4 km/h (2 Bft) W-SW 250 0 min 0,000 mm 0,0 UV-I 0 W/m 0,8 C 1,5 C 9,7 km/h (2 Bft) 94,34 %
17.02.2017 20:04 1,5 C 95 % 1025,7 hPa 0,0 l/m 7,9 km/h (2 Bft) W-SW 251 0 min 0,000 mm 0,0 UV-I 0 W/m 0,8 C 0,0 C 12,9 km/h (3 Bft) 95,12 %
17.02.2017 20:06 1,5 C 95 % 1025,8 hPa 0,0 l/m 9,2 km/h (2 Bft) W-SW 246 0 min 0,000 mm 0,0 UV-I 0 W/m 0,8 C -1,1 C 11,3 km/h (2 Bft) 88,64 %
17.02.2017 20:08 1,6 C 96 % 1025,8 hPa 0,0 l/m 10,5 km/h (2 Bft) W-SW 252 0 min 0,000 mm 0,0 UV-I 0 W/m 1,0 C -2,1 C 12,9 km/h (3 Bft) 96,00 %
17.02.2017 20:10 1,6 C 96 % 1025,8 hPa 0,0 l/m 8,5 km/h (2 Bft) W 260 0 min 0,000 mm 0,0 UV-I 0 W/m 1,0 C -0,4 C 11,3 km/h (2 Bft) 91,49 %
17.02.2017 20:12 1,6 C 96 % 1025,8 hPa 0,0 l/m 8,7 km/h (2 Bft) W 259 0 min 0,000 mm 0,0 UV-I 0 W/m 1,0 C -0,6 C 12,9 km/h (3 Bft) 94,00 %
17.02.2017 20:14 1,6 C 96 % 1025,8 hPa 0,0 l/m 9,4 km/h (2 Bft) W 259 0 min 0,000 mm 0,0 UV-I 0 W/m 1,0 C -1,2 C 12,9 km/h (3 Bft) 90,70 %
17.02.2017 20:16 1,6 C 96 % 1025,8 hPa 0,0 l/m 10,5 km/h (2 Bft) W-SW 242 0 min 0,000 mm 0,0 UV-I 0 W/m 1,0 C -2,1 C 14,5 km/h (3 Bft) 96,00 %
17.02.2017 20:18 1,6 C 96 % 1025,8 hPa 0,0 l/m 8,3 km/h (2 Bft) W-SW 242 0 min 0,000 mm 0,0 UV-I 0 W/m 1,0 C -0,2 C 14,5 km/h (3 Bft) 96,00 %
17.02.2017 20:20 1,7 C 96 % 1025,8 hPa 0,0 l/m 9,3 km/h (2 Bft) W-SW 246 0 min 0,000 mm 0,0 UV-I 0 W/m 1,1 C -1,0 C 12,9 km/h (3 Bft) 96,30 %
17.02.2017 20:22 1,7 C 96 % 1025,8 hPa 0,0 l/m 11,1 km/h (2 Bft) W-SW 237 0 min 0,000 mm 0,0 UV-I 0 W/m 1,1 C -2,4 C 19,3 km/h (3 Bft) 95,31 %
17.02.2017 20:24 1,7 C 96 % 1025,8 hPa 0,0 l/m 11,2 km/h (2 Bft) W-SW 249 0 min 0,000 mm 0,0 UV-I 0 W/m 1,1 C -2,5 C 16,1 km/h (3 Bft) 94,87 %
17.02.2017 20:26 1,8 C 96 % 1025,9 hPa 0,0 l/m 10,4 km/h (2 Bft) W-SW 243 0 min 0,000 mm 0,0 UV-I 0 W/m 1,2 C -1,8 C 16,1 km/h (3 Bft) 97,87 %
17.02.2017 20:28 1,8 C 95 % 1025,9 hPa 0,0 l/m 9,9 km/h (2 Bft) SW 229 0 min 0,000 mm 0,0 UV-I 0 W/m 1,1 C -1,4 C 14,5 km/h (3 Bft) 96,43 %
17.02.2017 20:30 1,8 C 95 % 1025,9 hPa 0,0 l/m 7,8 km/h (2 Bft) W-SW 240 0 min 0,000 mm 0,0 UV-I 0 W/m 1,1 C 0,4 C 12,9 km/h (3 Bft) 95,74 %
17.02.2017 20:32 1,8 C 95 % 1026,0 hPa 0,0 l/m 8,8 km/h (2 Bft) SW 215 0 min 0,000 mm 0,0 UV-I 0 W/m 1,1 C -0,5 C 14,5 km/h (3 Bft) 97,56 %
17.02.2017 20:34 1,8 C 95 % 1026,0 hPa 0,0 l/m 9,7 km/h (2 Bft) W-SW 238 0 min 0,000 mm 0,0 UV-I 0 W/m 1,1 C -1,2 C 14,5 km/h (3 Bft) 96,23 %
17.02.2017 20:36 1,8 C 95 % 1026,0 hPa 0,0 l/m 9,1 km/h (2 Bft) SW 217 0 min 0,000 mm 0,0 UV-I 0 W/m 1,1 C -0,7 C 14,5 km/h (3 Bft) 97,56 %
17.02.2017 20:38 1,8 C 95 % 1026,0 hPa 0,0 l/m 10,8 km/h (2 Bft) SW 233 0 min 0,000 mm 0,0 UV-I 0 W/m 1,1 C -2,1 C 17,7 km/h (3 Bft) 96,00 %
17.02.2017 20:40 1,8 C 95 % 1026,0 hPa 0,0 l/m 13,3 km/h (3 Bft) W-SW 238 0 min 0,000 mm 0,0 UV-I 0 W/m 1,1 C -3,8 C 19,3 km/h (3 Bft) 96,00 %
17.02.2017 20:42 1,8 C 95 % 1026,0 hPa 0,0 l/m 11,4 km/h (2 Bft) S-SW 210 0 min 0,000 mm 0,0 UV-I 0 W/m 1,1 C -2,5 C 16,1 km/h (3 Bft) 97,56 %
17.02.2017 20:44 1,8 C 95 % 1026,0 hPa 0,0 l/m 13,0 km/h (3 Bft) SW 223 0 min 0,000 mm 0,0 UV-I 0 W/m 1,1 C -3,6 C 17,7 km/h (3 Bft) 100,00 %
17.02.2017 20:46 1,8 C 95 % 1026,0 hPa 0,0 l/m 8,9 km/h (2 Bft) W-SW 242 0 min 0,000 mm 0,0 UV-I 0 W/m 1,1 C -0,6 C 12,9 km/h (3 Bft) 96,23 %
17.02.2017 20:48 1,8 C 95 % 1026,0 hPa 0,0 l/m 10,2 km/h (2 Bft) SW 229 0 min 0,000 mm 0,0 UV-I 0 W/m 1,1 C -1,6 C 14,5 km/h (3 Bft) 97,87 %
17.02.2017 20:50 1,8 C 95 % 1026,0 hPa 0,0 l/m 10,9 km/h (2 Bft) S-SW 203 0 min 0,000 mm 0,0 UV-I 0 W/m 1,1 C -2,1 C 14,5 km/h (3 Bft) 100,00 %
17.02.2017 20:52 1,8 C 95 % 1026,0 hPa 0,0 l/m 10,0 km/h (2 Bft) SW 234 0 min 0,000 mm 0,0 UV-I 0 W/m 1,1 C -1,5 C 14,5 km/h (3 Bft) 98,57 %
17.02.2017 20:54 1,8 C 95 % 1026,0 hPa 0,0 l/m 9,9 km/h (2 Bft) W 261 0 min 0,000 mm 0,0 UV-I 0 W/m 1,1 C -1,4 C 14,5 km/h (3 Bft) 97,87 %
17.02.2017 20:56 1,8 C 95 % 1025,9 hPa 0,0 l/m 9,4 km/h (2 Bft) W-SW 257 0 min 0,000 mm 0,0 UV-I 0 W/m 1,1 C -1,0 C 14,5 km/h (3 Bft) 98,00 %
17.02.2017 20:58 1,8 C 95 % 1026,0 hPa 0,0 l/m 6,7 km/h (2 Bft) SW 235 0 min 0,000 mm 0,0 UV-I 0 W/m 1,1 C 1,5 C 11,3 km/h (2 Bft) 97,37 %
17.02.2017 21:00 1,8 C 95 % 1026,0 hPa 0,0 l/m 9,0 km/h (2 Bft) W-SW 253 0 min 0,000 mm 0,0 UV-I 0 W/m 1,1 C -0,6 C 12,9 km/h (3 Bft) 100,00 %
17.02.2017 21:02 1,9 C 95 % 1026,0 hPa 0,0 l/m 7,6 km/h (2 Bft) SW 232 0 min 0,000 mm 0,0 UV-I 0 W/m 1,2 C 0,7 C 12,9 km/h (3 Bft) 97,62 %
17.02.2017 21:04 1,9 C 95 % 1026,0 hPa 0,0 l/m 9,3 km/h (2 Bft) SW 235 0 min 0,000 mm 0,0 UV-I 0 W/m 1,2 C -0,8 C 12,9 km/h (3 Bft) 100,00 %
17.02.2017 21:06 1,9 C 95 % 1026,0 hPa 0,0 l/m 9,6 km/h (2 Bft) SW 231 0 min 0,000 mm 0,0 UV-I 0 W/m 1,2 C -1,0 C 12,9 km/h (3 Bft) 100,00 %
17.02.2017 21:08 1,9 C 95 % 1026,0 hPa 0,0 l/m 10,0 km/h (2 Bft) W-SW 238 0 min 0,000 mm 0,0 UV-I 0 W/m 1,2 C -1,4 C 14,5 km/h (3 Bft) 100,00 %
17.02.2017 21:10 1,9 C 95 % 1026,0 hPa 0,0 l/m 10,0 km/h (2 Bft) SW 224 0 min 0,000 mm 0,0 UV-I 0 W/m 1,2 C -1,4 C 14,5 km/h (3 Bft) 100,00 %
17.02.2017 21:12 1,9 C 95 % 1025,9 hPa 0,0 l/m 9,7 km/h (2 Bft) SW 225 0 min 0,000 mm 0,0 UV-I 0 W/m 1,2 C -1,1 C 12,9 km/h (3 Bft) 97,56 %
17.02.2017 21:14 1,9 C 95 % 1026,0 hPa 0,0 l/m 9,0 km/h (2 Bft) W-SW 248 0 min 0,000 mm 0,0 UV-I 0 W/m 1,2 C -0,5 C 12,9 km/h (3 Bft) 100,00 %
17.02.2017 21:16 1,9 C 95 % 1025,9 hPa 0,0 l/m 6,2 km/h (2 Bft) SW 229 0 min 0,000 mm 0,0 UV-I 0 W/m 1,2 C 1,9 C 12,9 km/h (3 Bft) 100,00 %
17.02.2017 21:18 1,9 C 95 % 1025,9 hPa 0,0 l/m 7,4 km/h (2 Bft) S-SW 209 0 min 0,000 mm 0,0 UV-I 0 W/m 1,2 C 0,9 C 11,3 km/h (2 Bft) 100,00 %
17.02.2017 21:20 1,9 C 95 % 1025,9 hPa 0,0 l/m 7,0 km/h (2 Bft) SW 232 0 min 0,000 mm 0,0 UV-I 0 W/m 1,2 C 1,3 C 11,3 km/h (2 Bft) 98,21 %
17.02.2017 21:22 1,9 C 95 % 1026,0 hPa 0,0 l/m 8,5 km/h (2 Bft) SW 229 0 min 0,000 mm 0,0 UV-I 0 W/m 1,2 C -0,1 C 12,9 km/h (3 Bft) 100,00 %
17.02.2017 21:24 1,9 C 95 % 1026,0 hPa 0,0 l/m 9,4 km/h (2 Bft) S-SW 205 0 min 0,000 mm 0,0 UV-I 0 W/m 1,2 C -0,9 C 12,9 km/h (3 Bft) 94,74 %
17.02.2017 21:26 2,0 C 95 % 1026,0 hPa 0,0 l/m 8,0 km/h (2 Bft) SW 214 0 min 0,000 mm 0,0 UV-I 0 W/m 1,3 C 0,5 C 14,5 km/h (3 Bft) 98,11 %
17.02.2017 21:28 2,0 C 95 % 1026,0 hPa 0,0 l/m 6,5 km/h (2 Bft) SW 216 0 min 0,000 mm 0,0 UV-I 0 W/m 1,3 C 1,9 C 9,7 km/h (2 Bft) 100,00 %
17.02.2017 21:30 2,1 C 95 % 1026,0 hPa 0,0 l/m 8,9 km/h (2 Bft) S-SW 204 0 min 0,000 mm 0,0 UV-I 0 W/m 1,4 C -0,2 C 16,1 km/h (3 Bft) 96,67 %
17.02.2017 21:32 2,1 C 95 % 1026,0 hPa 0,0 l/m 7,6 km/h (2 Bft) S-SW 209 0 min 0,000 mm 0,0 UV-I 0 W/m 1,4 C 0,9 C 11,3 km/h (2 Bft) 98,51 %
17.02.2017 21:34 2,1 C 95 % 1026,0 hPa 0,0 l/m 8,6 km/h (2 Bft) S-SW 205 0 min 0,000 mm 0,0 UV-I 0 W/m 1,4 C 0,0 C 12,9 km/h (3 Bft) 100,00 %
17.02.2017 21:36 2,1 C 95 % 1026,0 hPa 0,0 l/m 9,1 km/h (2 Bft) S-SW 202 0 min 0,000 mm 0,0 UV-I 0 W/m 1,4 C -0,4 C 12,9 km/h (3 Bft) 100,00 %
17.02.2017 21:38 2,2 C 95 % 1026,0 hPa 0,0 l/m 8,8 km/h (2 Bft) SW 217 0 min 0,000 mm 0,0 UV-I 0 W/m 1,5 C -0,0 C 14,5 km/h (3 Bft) 97,73 %
17.02.2017 21:40 2,2 C 95 % 1026,0 hPa 0,0 l/m 8,3 km/h (2 Bft) SW 232 0 min 0,000 mm 0,0 UV-I 0 W/m 1,5 C 0,4 C 11,3 km/h (2 Bft) 98,21 %
17.02.2017 21:42 2,2 C 95 % 1026,0 hPa 0,0 l/m 6,1 km/h (2 Bft) SW 215 0 min 0,000 mm 0,0 UV-I 0 W/m 1,5 C 2,2 C 12,9 km/h (3 Bft) 95,24 %
17.02.2017 21:44 2,2 C 95 % 1026,0 hPa 0,0 l/m 6,0 km/h (2 Bft) S-SW 204 0 min 0,000 mm 0,0 UV-I 0 W/m 1,5 C 2,2 C 8,0 km/h (2 Bft) 97,37 %
17.02.2017 21:46 2,2 C 95 % 1026,0 hPa 0,0 l/m 6,3 km/h (2 Bft) SW 227 0 min 0,000 mm 0,0 UV-I 0 W/m 1,5 C 2,2 C 9,7 km/h (2 Bft) 96,43 %
17.02.2017 21:48 2,2 C 94 % 1026,0 hPa 0,0 l/m 7,7 km/h (2 Bft) SW 215 0 min 0,000 mm 0,0 UV-I 0 W/m 1,3 C 0,9 C 11,3 km/h (2 Bft) 97,56 %
17.02.2017 21:50 2,2 C 94 % 1026,0 hPa 0,0 l/m 7,2 km/h (2 Bft) S-SW 209 0 min 0,000 mm 0,0 UV-I 0 W/m 1,3 C 1,4 C 11,3 km/h (2 Bft) 100,00 %
17.02.2017 21:52 2,2 C 94 % 1026,0 hPa 0,0 l/m 7,2 km/h (2 Bft) S-SW 211 0 min 0,000 mm 0,0 UV-I 0 W/m 1,3 C 1,4 C 9,7 km/h (2 Bft) 95,45 %
17.02.2017 21:54 2,2 C 94 % 1026,0 hPa 0,0 l/m 7,0 km/h (2 Bft) SW 215 0 min 0,000 mm 0,0 UV-I 0 W/m 1,3 C 1,6 C 11,3 km/h (2 Bft) 92,45 %
17.02.2017 21:56 2,2 C 94 % 1026,1 hPa 0,0 l/m 6,0 km/h (2 Bft) S-SW 207 0 min 0,000 mm 0,0 UV-I 0 W/m 1,3 C 2,2 C 9,7 km/h (2 Bft) 100,00 %
17.02.2017 21:58 2,2 C 94 % 1026,0 hPa 0,0 l/m 8,9 km/h (2 Bft) S-SW 209 0 min 0,000 mm 0,0 UV-I 0 W/m 1,3 C -0,1 C 12,9 km/h (3 Bft) 100,00 %
17.02.2017 22:00 2,2 C 94 % 1026,0 hPa 0,0 l/m 8,6 km/h (2 Bft) S-SW 209 0 min 0,000 mm 0,0 UV-I 0 W/m 1,3 C 0,1 C 11,3 km/h (2 Bft) 98,11 %
17.02.2017 22:02 2,3 C 94 % 1026,0 hPa 0,0 l/m 9,7 km/h (2 Bft) S-SW 199 0 min 0,000 mm 0,0 UV-I 0 W/m 1,4 C -0,7 C 14,5 km/h (3 Bft) 97,56 %
17.02.2017 22:04 2,3 C 94 % 1026,0 hPa 0,0 l/m 8,1 km/h (2 Bft) S 188 0 min 0,000 mm 0,0 UV-I 0 W/m 1,4 C 0,7 C 12,9 km/h (3 Bft) 98,00 %
17.02.2017 22:06 2,3 C 94 % 1026,0 hPa 0,0 l/m 10,4 km/h (2 Bft) S-SW 211 0 min 0,000 mm 0,0 UV-I 0 W/m 1,4 C -1,2 C 14,5 km/h (3 Bft) 98,00 %
17.02.2017 22:08 2,4 C 94 % 1026,0 hPa 0,0 l/m 10,2 km/h (2 Bft) S-SW 213 0 min 0,000 mm 0,0 UV-I 0 W/m 1,5 C -1,0 C 16,1 km/h (3 Bft) 92,68 %
17.02.2017 22:10 2,4 C 94 % 1025,9 hPa 0,0 l/m 11,1 km/h (2 Bft) W-SW 246 0 min 0,000 mm 0,0 UV-I 0 W/m 1,5 C -1,6 C 17,7 km/h (3 Bft) 100,00 %
17.02.2017 22:12 2,4 C 94 % 1025,9 hPa 0,0 l/m 12,3 km/h (3 Bft) SW 225 0 min 0,000 mm 0,0 UV-I 0 W/m 1,5 C -2,4 C 17,7 km/h (3 Bft) 94,64 %
17.02.2017 22:14 2,4 C 94 % 1025,9 hPa 0,0 l/m 12,8 km/h (3 Bft) SW 235 0 min 0,000 mm 0,0 UV-I 0 W/m 1,5 C -2,8 C 19,3 km/h (3 Bft) 95,45 %
17.02.2017 22:16 2,5 C 94 % 1025,8 hPa 0,0 l/m 10,0 km/h (2 Bft) SW 220 0 min 0,000 mm 0,0 UV-I 0 W/m 1,6 C -0,7 C 16,1 km/h (3 Bft) 96,00 %
17.02.2017 22:18 2,6 C 94 % 1025,8 hPa 0,0 l/m 9,4 km/h (2 Bft) S-SW 202 0 min 0,000 mm 0,0 UV-I 0 W/m 1,7 C -0,1 C 12,9 km/h (3 Bft) 95,45 %
17.02.2017 22:20 2,6 C 94 % 1025,8 hPa 0,0 l/m 10,6 km/h (2 Bft) W-SW 245 0 min 0,000 mm 0,0 UV-I 0 W/m 1,7 C -1,0 C 16,1 km/h (3 Bft) 97,78 %
17.02.2017 22:22 2,6 C 94 % 1025,8 hPa 0,0 l/m 8,9 km/h (2 Bft) W-SW 243 0 min 0,000 mm 0,0 UV-I 0 W/m 1,7 C 0,3 C 12,9 km/h (3 Bft) 96,15 %
17.02.2017 22:24 2,6 C 94 % 1025,8 hPa 0,0 l/m 8,7 km/h (2 Bft) W-SW 240 0 min 0,000 mm 0,0 UV-I 0 W/m 1,7 C 0,5 C 14,5 km/h (3 Bft) 88,00 %
17.02.2017 22:26 2,6 C 93 % 1025,8 hPa 0,0 l/m 8,8 km/h (2 Bft) SW 223 0 min 0,000 mm 0,0 UV-I 0 W/m 1,6 C 0,4 C 12,9 km/h (3 Bft) 97,22 %
17.02.2017 22:28 2,6 C 93 % 1025,8 hPa 0,0 l/m 8,6 km/h (2 Bft) W-SW 237 0 min 0,000 mm 0,0 UV-I 0 W/m 1,6 C 0,6 C 12,9 km/h (3 Bft) 96,30 %
17.02.2017 22:30 2,5 C 93 % 1025,9 hPa 0,0 l/m 5,8 km/h (2 Bft) SW 236 0 min 0,000 mm 0,0 UV-I 0 W/m 1,5 C 2,5 C 9,7 km/h (2 Bft) 98,00 %
17.02.2017 22:32 2,5 C 93 % 1025,9 hPa 0,0 l/m 6,8 km/h (2 Bft) W-SW 257 0 min 0,000 mm 0,0 UV-I 0 W/m 1,5 C 2,1 C 11,3 km/h (2 Bft) 97,37 %
17.02.2017 22:34 2,5 C 93 % 1025,9 hPa 0,0 l/m 7,4 km/h (2 Bft) W 261 0 min 0,000 mm 0,0 UV-I 0 W/m 1,5 C 1,5 C 11,3 km/h (2 Bft) 92,00 %
17.02.2017 22:36 2,5 C 93 % 1025,9 hPa 0,0 l/m 7,2 km/h (2 Bft) W 263 0 min 0,000 mm 0,0 UV-I 0 W/m 1,5 C 1,7 C 12,9 km/h (3 Bft) 96,00 %
17.02.2017 22:38 2,5 C 93 % 1025,9 hPa 0,0 l/m 8,9 km/h (2 Bft) W 265 0 min 0,000 mm 0,0 UV-I 0 W/m 1,5 C 0,2 C 14,5 km/h (3 Bft) 93,62 %
17.02.2017 22:40 2,5 C 94 % 1025,9 hPa 0,0 l/m 7,5 km/h (2 Bft) W-SW 253 0 min 0,000 mm 0,0 UV-I 0 W/m 1,6 C 1,4 C 11,3 km/h (2 Bft) 92,00 %
17.02.2017 22:42 2,4 C 94 % 1025,9 hPa 0,0 l/m 7,5 km/h (2 Bft) W 276 0 min 0,000 mm 0,0 UV-I 0 W/m 1,5 C 1,3 C 12,9 km/h (3 Bft) 92,11 %
17.02.2017 22:44 2,5 C 94 % 1025,9 hPa 0,0 l/m 5,9 km/h (2 Bft) W-NW 286 0 min 0,000 mm 0,0 UV-I 0 W/m 1,6 C 2,5 C 11,3 km/h (2 Bft) 91,07 %
17.02.2017 22:46 2,4 C 94 % 1025,9 hPa 0,0 l/m 5,6 km/h (1 Bft) W 260 0 min 0,000 mm 0,0 UV-I 0 W/m 1,5 C 2,4 C 9,7 km/h (2 Bft) 97,50 %
17.02.2017 22:48 2,4 C 94 % 1025,9 hPa 0,0 l/m 7,6 km/h (2 Bft) W 263 0 min 0,000 mm 0,0 UV-I 0 W/m 1,5 C 1,2 C 14,5 km/h (3 Bft) 96,00 %
17.02.2017 22:50 2,4 C 94 % 1025,9 hPa 0,0 l/m 7,1 km/h (2 Bft) W 268 0 min 0,000 mm 0,0 UV-I 0 W/m 1,5 C 1,7 C 11,3 km/h (2 Bft) 97,87 %
17.02.2017 22:52 2,4 C 94 % 1025,9 hPa 0,0 l/m 9,7 km/h (2 Bft) W-SW 250 0 min 0,000 mm 0,0 UV-I 0 W/m 1,5 C -0,6 C 14,5 km/h (3 Bft) 95,74 %
17.02.2017 22:54 2,4 C 94 % 1025,8 hPa 0,0 l/m 9,1 km/h (2 Bft) W-SW 249 0 min 0,000 mm 0,0 UV-I 0 W/m 1,5 C -0,1 C 12,9 km/h (3 Bft) 96,00 %
17.02.2017 22:56 2,5 C 94 % 1025,8 hPa 0,0 l/m 9,1 km/h (2 Bft) W-NW 283 0 min 0,000 mm 0,0 UV-I 0 W/m 1,6 C 0,0 C 12,9 km/h (3 Bft) 97,37 %
17.02.2017 22:58 2,5 C 94 % 1025,8 hPa 0,0 l/m 12,3 km/h (3 Bft) W-SW 257 0 min 0,000 mm 0,0 UV-I 0 W/m 1,6 C -2,3 C 17,7 km/h (3 Bft) 98,11 %
17.02.2017 23:00 2,5 C 94 % 1025,8 hPa 0,0 l/m 10,5 km/h (2 Bft) W 266 0 min 0,000 mm 0,0 UV-I 0 W/m 1,6 C -1,1 C 16,1 km/h (3 Bft) 97,44 %
17.02.2017 23:02 2,6 C 94 % 1025,8 hPa 0,0 l/m 12,0 km/h (2 Bft) W-SW 246 0 min 0,000 mm 0,0 UV-I 0 W/m 1,7 C -2,0 C 16,1 km/h (3 Bft) 96,23 %
17.02.2017 23:04 2,6 C 94 % 1025,8 hPa 0,0 l/m 13,1 km/h (3 Bft) W-SW 249 0 min 0,000 mm 0,0 UV-I 0 W/m 1,7 C -2,7 C 19,3 km/h (3 Bft) 92,00 %
17.02.2017 23:06 2,6 C 94 % 1025,8 hPa 0,0 l/m 12,1 km/h (2 Bft) W 261 0 min 0,000 mm 0,0 UV-I 0 W/m 1,7 C -2,1 C 16,1 km/h (3 Bft) 95,74 %
17.02.2017 23:08 2,6 C 94 % 1025,9 hPa 0,2 l/m 11,0 km/h (2 Bft) W-SW 258 0 min 0,000 mm 0,0 UV-I 0 W/m 1,7 C -1,3 C 16,1 km/h (3 Bft) 93,62 %
17.02.2017 23:10 2,6 C 94 % 1025,9 hPa 0,0 l/m 9,3 km/h (2 Bft) W 268 0 min 0,000 mm 0,0 UV-I 0 W/m 1,7 C -0,0 C 12,9 km/h (3 Bft) 95,12 %
17.02.2017 23:12 2,6 C 94 % 1026,0 hPa 0,2 l/m 7,2 km/h (2 Bft) W-NW 284 0 min 0,000 mm 0,0 UV-I 0 W/m 1,7 C 1,8 C 11,3 km/h (2 Bft) 98,00 %
17.02.2017 23:14 2,6 C 94 % 1025,9 hPa 0,0 l/m 6,0 km/h (2 Bft) W 269 0 min 0,000 mm 0,0 UV-I 0 W/m 1,7 C 2,6 C 9,7 km/h (2 Bft) 97,73 %
17.02.2017 23:16 2,5 C 94 % 1025,9 hPa 0,2 l/m 4,4 km/h (1 Bft) W-NW 292 0 min 0,000 mm 0,0 UV-I 0 W/m 1,6 C 2,5 C 9,7 km/h (2 Bft) 97,73 %
17.02.2017 23:18 2,4 C 94 % 1025,8 hPa 0,0 l/m 6,0 km/h (2 Bft) W 277 0 min 0,000 mm 0,0 UV-I 0 W/m 1,5 C 2,4 C 9,7 km/h (2 Bft) 94,34 %
17.02.2017 23:20 2,4 C 95 % 1025,8 hPa 0,2 l/m 4,3 km/h (1 Bft) W-NW 286 0 min 0,000 mm 0,0 UV-I 0 W/m 1,7 C 2,4 C 9,7 km/h (2 Bft) 96,00 %
17.02.2017 23:22 2,4 C 95 % 1025,7 hPa 0,0 l/m 3,8 km/h (1 Bft) W 271 0 min 0,000 mm 0,0 UV-I 0 W/m 1,7 C 2,4 C 4,8 km/h (1 Bft) 95,12 %
17.02.2017 23:24 2,4 C 95 % 1025,7 hPa 0,0 l/m 3,9 km/h (1 Bft) W 263 0 min 0,000 mm 0,0 UV-I 0 W/m 1,7 C 2,4 C 6,4 km/h (2 Bft) 97,87 %
17.02.2017 23:26 2,3 C 95 % 1025,7 hPa 0,0 l/m 4,9 km/h (1 Bft) W-SW 257 0 min 0,000 mm 0,0 UV-I 0 W/m 1,6 C 2,3 C 9,7 km/h (2 Bft) 92,00 %
17.02.2017 23:28 2,3 C 95 % 1025,7 hPa 0,0 l/m 7,2 km/h (2 Bft) W-SW 248 0 min 0,000 mm 0,0 UV-I 0 W/m 1,6 C 1,5 C 11,3 km/h (2 Bft) 97,37 %
17.02.2017 23:30 2,3 C 95 % 1025,7 hPa 0,0 l/m 6,9 km/h (2 Bft) W-SW 257 0 min 0,000 mm 0,0 UV-I 0 W/m 1,6 C 1,8 C 11,3 km/h (2 Bft) 95,74 %
17.02.2017 23:32 2,3 C 95 % 1025,6 hPa 0,2 l/m 6,3 km/h (2 Bft) W 265 0 min 0,000 mm 0,0 UV-I 0 W/m 1,6 C 2,3 C 11,3 km/h (2 Bft) 94,34 %
17.02.2017 23:34 2,3 C 95 % 1025,6 hPa 0,0 l/m 6,0 km/h (2 Bft) W-SW 250 0 min 0,000 mm 0,0 UV-I 0 W/m 1,6 C 2,3 C 11,3 km/h (2 Bft) 95,74 %
17.02.2017 23:36 2,3 C 95 % 1025,6 hPa 0,0 l/m 6,8 km/h (2 Bft) W-SW 241 0 min 0,000 mm 0,0 UV-I 0 W/m 1,6 C 1,9 C 11,3 km/h (2 Bft) 96,00 %
17.02.2017 23:38 2,3 C 95 % 1025,6 hPa 0,0 l/m 7,3 km/h (2 Bft) W 259 0 min 0,000 mm 0,0 UV-I 0 W/m 1,6 C 1,4 C 11,3 km/h (2 Bft) 97,87 %
17.02.2017 23:40 2,3 C 95 % 1025,7 hPa 0,0 l/m 7,2 km/h (2 Bft) SW 227 0 min 0,000 mm 0,0 UV-I 0 W/m 1,6 C 1,5 C 11,3 km/h (2 Bft) 97,44 %
17.02.2017 23:42 2,3 C 95 % 1025,6 hPa 0,0 l/m 7,8 km/h (2 Bft) W-SW 257 0 min 0,000 mm 0,0 UV-I 0 W/m 1,6 C 1,0 C 12,9 km/h (3 Bft) 98,08 %
17.02.2017 23:44 2,3 C 95 % 1025,6 hPa 0,0 l/m 8,4 km/h (2 Bft) W-SW 256 0 min 0,000 mm 0,0 UV-I 0 W/m 1,6 C 0,4 C 12,9 km/h (3 Bft) 97,62 %
17.02.2017 23:46 2,3 C 95 % 1025,6 hPa 0,0 l/m 9,2 km/h (2 Bft) W 274 0 min 0,000 mm 0,0 UV-I 0 W/m 1,6 C -0,3 C 12,9 km/h (3 Bft) 98,11 %
17.02.2017 23:48 2,3 C 95 % 1025,6 hPa 0,0 l/m 9,2 km/h (2 Bft) W 270 0 min 0,000 mm 0,0 UV-I 0 W/m 1,6 C -0,3 C 16,1 km/h (3 Bft) 100,00 %
17.02.2017 23:50 2,4 C 95 % 1025,7 hPa 0,0 l/m 10,5 km/h (2 Bft) W 261 0 min 0,000 mm 0,0 UV-I 0 W/m 1,7 C -1,2 C 14,5 km/h (3 Bft) 96,00 %
17.02.2017 23:52 2,4 C 95 % 1025,7 hPa 0,0 l/m 8,0 km/h (2 Bft) W 260 0 min 0,000 mm 0,0 UV-I 0 W/m 1,7 C 0,9 C 12,9 km/h (3 Bft) 100,00 %
17.02.2017 23:54 2,4 C 95 % 1025,7 hPa 0,0 l/m 12,6 km/h (3 Bft) W 262 0 min 0,000 mm 0,0 UV-I 0 W/m 1,7 C -2,6 C 17,7 km/h (3 Bft) 98,04 %
17.02.2017 23:56 2,4 C 96 % 1025,7 hPa 0,0 l/m 10,9 km/h (2 Bft) W 259 0 min 0,000 mm 0,0 UV-I 0 W/m 1,8 C -1,5 C 16,1 km/h (3 Bft) 100,00 %
17.02.2017 23:58 2,5 C 96 % 1025,7 hPa 0,0 l/m 12,6 km/h (3 Bft) W 268 0 min 0,000 mm 0,0 UV-I 0 W/m 1,9 C -2,5 C 17,7 km/h (3 Bft) 100,00 %
_ Min-Zeit 03:34 00:00 06:18 - 00:02 - - - - - - 03:30 08:24 00:02 16:14
Minimum _ -1,8 C 88 % 1023,7 hPa - 0,0 km/h (0 Bft) - - - - - - -2,8 C -5,9 C 0,0 km/h (0 Bft) 85,11 %
_ Max-Zeit 12:42 11:18 00:00 09:18 13:50 - - 00:00 12:02 11:40 12:20 12:42 12:54 13:50 00:00
Maximum _ 4,2 C 96 % 1027,9 hPa 0,2 l/m 19,6 km/h
W-SW (3 Bft)
- - 0 min 0,051 mm 0,6 UV-I 212 W/m 3,6 C 4,2 C 30,6 km/h
W (5 Bft)
100,00 %
Durchschnitt _ 1,6 C 94 % 1025,3 hPa #5,4 l/m 7,6 km/h (2 Bft) W-SW - #0 min. #0,279 mm 0,5 UV-I 66 W/m 0,7 C -0,7 C 11,8 km/h (2 Bft) 96,70 %